[[{"header":{"parameterUnit":"m.s-1","parameterCategory":1,"la1":31.0,"la2":29.5877,"lo1":-88.7671,"lo2":-86.6584,"dy":0.0162,"dx":0.0185,"nx":115,"ny":88,"refTime":"2023-05-29T00:00:00:Z","depth":0,"parameterNumber":2,"parameterNumberName":"U-component_of_WINDS"},"data":[0.0,0.0,0.0,0.0,0.0,0.0,0.0,0.0,0.0,0.0,0.0,0.0,0.0,0.0,0.0,0.0,0.0,0.0,0.0,0.0,0.0,0.0,0.0,0.0,0.0,0.0,0.0,0.0,0.0,0.0,0.0,0.0,0.0,0.0,0.0,0.0,0.0,0.0,0.0,0.0,0.0,0.0,0.0,0.0,0.0,0.0,0.0,0.0,0.0,0.0,0.0,0.0,0.0,0.0,0.0,0.0,0.0,0.0,0.0,0.0,0.0,0.0,0.0,0.0,0.0,0.0,0.0,0.0,0.0,0.0,0.0,0.0,0.0,0.0,0.0,0.0,0.0,0.0,0.0,0.0,0.0,0.0,0.0,0.0,0.0,0.0,0.0,0.0,0.0,0.0,0.0,0.0,0.0,0.0,0.0,0.0,0.0,0.0,0.0,0.0,0.0,0.0,0.0,0.0,0.0,0.0,0.0,0.0,0.0,0.0,0.0,0.0,0.0,0.0,0.0,0.0,0.0,0.0,0.0,0.0,0.0,0.0,0.0,0.0,0.0,0.0,0.0,0.0,0.0,0.0,0.0,0.0,0.0,0.0,0.0,0.0,0.0,0.0,0.0,0.0,0.0,0.0,0.0,0.0,0.0,0.0,0.0,0.0,0.0,0.0,0.0,0.0,0.0,0.0,0.0,0.0,0.0,0.0,0.0,0.0,0.0,0.0,0.0,0.0,0.0,0.0,0.0,0.0,0.0,0.0,0.0,0.0,0.0,0.0,0.0,0.0,0.0,0.0,0.0,0.0,0.0,0.0,0.0,0.0,0.0,0.0,0.0,0.0,0.0,0.0,0.0,0.0,0.0,0.0,0.0,0.0,0.0,0.0,0.0,0.0,0.0,0.0,0.0,0.0,0.0,0.0,0.0,0.0,0.0,0.0,0.0,0.0,0.0,0.0,0.0,0.0,0.0,0.0,0.0,0.0,0.0,0.0,0.0,0.0,0.0,0.0,0.0,0.0,0.0,0.0,0.0,0.0,0.0,0.0,0.0,0.0,0.0,0.0,0.0,0.0,0.0,0.0,0.0,0.0,0.0,0.0,0.0,0.0,0.0,0.0,0.0,0.0,0.0,0.0,0.0,0.0,0.0,0.0,0.0,0.0,0.0,0.0,0.0,0.0,0.0,0.0,0.0,0.0,0.0,0.0,0.0,0.0,0.0,0.0,0.0,0.0,0.0,0.0,0.0,0.0,0.0,0.0,0.0,0.0,0.0,0.0,0.0,0.0,0.0,0.0,0.0,0.0,0.0,0.0,0.0,0.0,0.0,0.0,0.0,0.0,0.0,0.0,0.0,0.0,0.0,0.0,0.0,0.0,0.0,0.0,0.0,0.0,0.0,0.0,0.0,0.0,0.0,0.0,0.0,0.0,0.0,0.0,0.0,0.0,0.0,0.0,0.0,0.0,0.0,0.0,0.0,0.0,0.0,0.0,0.0,0.0,0.0,0.0,0.0,0.0,0.0,0.0,0.0,0.0,0.0,0.0,0.0,0.0,0.0,0.0,0.0,0.0,0.0,0.0,0.0,0.0,0.0,0.0,0.0,0.0,0.0,0.0,0.0,0.0,0.0,0.0,0.0,0.0,0.0,0.0,0.0,0.0,0.0,0.0,0.0,0.0,0.0,0.0,0.0,0.0,0.0,0.0,0.0,0.0,0.0,0.0,0.0,0.0,0.0,0.0,0.0,0.0,0.0,0.0,0.0,0.0,0.0,0.0,0.0,0.0,0.0,0.0,0.0,0.0,0.0,0.0,0.0,0.0,0.0,0.0,0.0,0.0,0.0,0.0,0.0,0.0,0.0,0.0,0.0,0.0,0.0,0.0,0.0,0.0,0.0,0.0,0.0,0.0,0.0,0.0,0.0,0.0,0.0,0.0,0.0,0.0,0.0,0.0,0.0,0.0,0.0,0.0,0.0,0.0,0.0,0.0,0.0,0.0,0.0,0.0,0.0,0.0,0.0,0.0,0.0,0.0,0.0,0.0,0.0,0.0,0.0,0.0,0.0,0.0,0.0,0.0,0.0,0.0,0.0,0.0,0.0,0.0,0.0,0.0,0.0,0.0,0.0,0.0,0.0,0.0,0.0,0.0,0.0,0.0,0.0,0.0,0.0,0.0,0.0,0.0,0.0,0.0,0.0,0.0,0.0,0.0,0.0,0.0,0.0,0.0,0.0,0.0,0.0,0.0,0.0,0.0,0.0,0.0,0.0,0.0,0.0,0.0,0.0,0.0,0.0,0.0,0.0,0.0,0.0,0.0,0.0,0.0,0.0,0.0,0.0,0.0,0.0,0.0,0.0,0.0,0.0,0.0,0.0,0.0,0.0,0.0,0.0,0.0,0.0,0.0,0.0,0.0,0.0,0.0,0.0,0.0,0.0,0.0,0.0,0.0,0.0,0.0,0.0,0.0,0.0,0.0,0.0,0.0,0.0,0.0,0.0,0.0,0.0,0.0,0.0,0.0,0.0,0.0,0.0,0.0,0.0,0.0,0.0,0.0,0.0,0.0,0.0,0.0,0.0,0.0,0.0,0.0,0.0,0.0,0.0,0.0,0.0,0.0,0.0,0.0,0.0,0.0,0.0,0.0,0.0,0.0,0.0,0.0,0.0,0.0,0.0,0.0,0.0,0.0,0.0,0.0,0.0,0.0,0.0,0.0,0.0,0.0,0.0,0.0,0.0,0.0,0.0,0.0,0.0,0.0,0.0,0.0,0.0,0.0,0.0,0.0,0.0,0.0,0.0,0.0,0.0,0.0,0.0,0.0,0.0,0.0,0.0,0.0,0.0,0.0,0.0,0.0,0.0,0.0,0.0,0.0,0.0,0.0,0.0,0.0,0.0,0.0,0.0,0.0,0.0,0.0,0.0,0.0,0.0,0.0,0.0,0.0,0.0,0.0,0.0,0.0,0.0,0.0,0.0,0.0,0.0,0.0,0.0,0.0,0.0,0.0,0.0,0.0,0.0,0.0,0.0,0.0,0.0,0.0,0.0,0.0,0.0,0.0,0.0,0.0,0.0,0.0,0.0,0.0,0.0,0.0,0.0,0.0,0.0,0.0,0.0,0.0,0.0,0.0,0.0,0.0,0.0,0.0,0.0,0.0,0.0,0.0,0.0,0.0,0.0,0.0,0.0,0.0,0.0,0.0,0.0,0.0,0.0,0.0,0.0,0.0,0.0,0.0,0.0,0.0,0.0,0.0,0.0,0.0,0.0,0.0,0.0,0.0,0.0,0.0,0.0,0.0,0.0,0.0,0.0,0.0,0.0,0.0,0.0,0.0,0.0,0.0,0.0,0.0,0.0,0.0,0.0,0.0,0.0,0.0,0.0,0.0,0.0,0.0,0.0,0.0,0.0,0.0,0.0,0.0,0.0,0.0,0.0,0.0,0.0,0.0,0.0,0.0,0.0,0.0,0.0,0.0,0.0,0.0,0.0,0.0,0.0,0.0,0.0,0.0,0.0,0.0,0.0,0.0,0.0,0.0,0.0,0.0,0.0,0.0,0.0,0.0,0.0,0.0,0.0,0.0,0.0,0.0,0.0,0.0,0.0,0.0,0.0,0.0,0.0,0.0,0.0,0.0,0.0,0.0,0.0,0.0,0.0,0.0,0.0,0.0,0.0,0.0,0.0,0.0,0.0,0.0,0.0,0.0,0.0,0.0,0.0,0.0,0.0,0.0,0.0,0.0,0.0,0.0,0.0,0.0,0.0,0.0,0.0,0.0,0.0,0.0,0.0,0.0,0.0,0.0,0.0,0.0,0.0,0.0,0.0,0.0,0.0,0.0,0.0,0.0,0.0,0.0,0.0,0.0,0.0,0.0,0.0,0.0,0.0,0.0,0.0,0.0,0.0,0.0,0.0,0.0,0.0,0.0,0.0,0.0,0.0,0.0,0.0,0.0,0.0,0.0,0.0,0.0,0.0,0.0,0.0,0.0,0.0,0.0,0.0,0.0,0.0,0.0,0.0,0.0,0.0,0.0,0.0,0.0,0.0,0.0,0.0,0.0,0.0,0.0,0.0,0.0,0.0,0.0,0.0,0.0,0.0,0.0,0.0,0.0,0.0,0.0,0.0,0.0,0.0,0.0,0.0,0.0,0.0,0.0,0.0,0.0,0.0,0.0,0.0,0.0,0.0,0.0,0.0,0.0,0.0,0.0,0.0,0.0,0.0,0.0,0.0,0.0,0.0,0.0,0.0,0.0,0.0,0.0,0.0,0.0,0.0,0.0,0.0,0.0,2.6376,0.0,0.0,0.0,0.0,0.0,0.0,0.0,0.0,0.0,0.0,0.0,0.0,0.0,0.0,0.0,0.0,0.0,0.0,0.0,0.0,0.0,0.0,0.0,0.0,0.0,0.0,0.0,0.0,0.0,0.0,0.0,0.0,0.0,0.0,0.0,0.0,0.0,0.0,0.0,0.0,0.0,0.0,0.0,0.0,0.0,0.0,0.0,0.0,0.0,0.0,0.0,0.0,0.0,0.0,0.0,0.0,0.0,0.0,0.0,0.0,0.0,0.0,0.0,0.0,0.0,0.0,0.0,0.0,0.0,0.0,0.0,0.0,0.0,0.0,0.0,0.0,0.0,0.0,0.0,0.0,0.0,0.0,0.0,0.0,0.0,0.0,0.0,0.0,0.0,0.0,0.0,0.0,0.0,0.0,0.0,0.0,0.0,0.0,0.0,0.0,0.0,0.0,0.0,0.0,0.0,0.0,0.0,0.0,0.0,0.0,2.5568,2.5388,2.6083,2.6496,2.6496,0.0,0.0,0.0,0.0,0.0,0.0,0.0,0.0,0.0,0.0,0.0,0.0,0.0,0.0,0.0,0.0,0.0,0.0,0.0,0.0,0.0,0.0,0.0,0.0,0.0,0.0,0.0,0.0,0.0,0.0,0.0,0.0,0.0,0.0,0.0,0.0,0.0,0.0,0.0,0.0,0.0,0.0,0.0,0.0,0.0,0.0,0.0,0.0,0.0,0.0,0.0,0.0,0.0,0.0,0.0,0.0,0.0,0.0,0.0,0.0,0.0,0.0,0.0,0.0,0.0,0.0,0.0,0.0,0.0,0.0,0.0,0.0,0.0,0.0,0.0,0.0,0.0,0.0,0.0,0.0,0.0,0.0,0.0,0.0,0.0,0.0,0.0,0.0,0.0,0.0,0.0,0.0,0.0,0.0,0.0,0.0,0.0,0.0,0.0,0.0,0.0,0.0,0.0,0.0,0.0,0.0,0.0,0.0,0.0,0.0,0.0,0.0,2.6445,2.676,2.676,0.0,0.0,0.0,0.0,0.0,0.0,0.0,0.0,0.0,0.0,0.0,0.0,0.0,0.0,0.0,0.0,0.0,0.0,0.0,0.0,0.0,0.0,0.0,0.0,0.0,0.0,0.0,0.0,0.0,0.0,0.0,0.0,0.0,0.0,0.0,0.0,0.0,0.0,0.0,0.0,0.0,0.0,0.0,0.0,0.0,0.0,0.0,0.0,0.0,0.0,0.0,0.0,0.0,0.0,0.0,0.0,0.0,0.0,0.0,0.0,0.0,0.0,0.0,0.0,0.0,0.0,0.0,0.0,0.0,0.0,0.0,0.0,0.0,0.0,0.0,0.0,0.0,0.0,0.0,0.0,0.0,0.0,0.0,0.0,0.0,0.0,0.0,0.0,0.0,0.0,0.0,0.0,0.0,0.0,0.0,0.0,0.0,0.0,0.0,0.0,0.0,0.0,0.0,0.0,0.0,0.0,0.0,0.0,0.0,0.0,2.6611,2.6183,2.7037,0.0,2.7499,0.0,0.0,0.0,0.0,0.0,0.0,0.0,0.0,0.0,0.0,0.0,0.0,0.0,0.0,0.0,0.0,0.0,0.0,0.0,0.0,0.0,0.0,0.0,0.0,0.0,0.0,0.0,0.0,0.0,0.0,0.0,0.0,0.0,0.0,0.0,0.0,0.0,0.0,0.0,0.0,0.0,0.0,0.0,0.0,0.0,0.0,0.0,0.0,0.0,0.0,0.0,0.0,0.0,0.0,0.0,0.0,0.0,0.0,0.0,0.0,0.0,0.0,0.0,0.0,0.0,0.0,0.0,0.0,0.0,0.0,0.0,0.0,0.0,0.0,0.0,0.0,0.0,0.0,0.0,0.0,0.0,0.0,0.0,0.0,0.0,0.0,0.0,0.0,0.0,0.0,0.0,0.0,0.0,0.0,0.0,0.0,0.0,0.0,0.0,0.0,0.0,0.0,0.0,0.0,0.0,0.0,0.0,0.0,0.0,0.0,2.7226,2.7043,2.7539,2.7762,0.0,0.0,0.0,0.0,0.0,0.0,0.0,0.0,0.0,0.0,0.0,0.0,0.0,0.0,0.0,0.0,0.0,0.0,0.0,0.0,0.0,0.0,0.0,0.0,0.0,0.0,0.0,0.0,0.0,0.0,0.0,0.0,0.0,0.0,0.0,0.0,0.0,0.0,0.0,0.0,0.0,0.0,0.0,0.0,0.0,0.0,0.0,0.0,0.0,0.0,0.0,0.0,0.0,0.0,0.0,0.0,0.0,0.0,0.0,0.0,0.0,0.0,0.0,0.0,0.0,0.0,0.0,0.0,0.0,0.0,0.0,0.0,0.0,0.0,0.0,0.0,0.0,0.0,0.0,0.0,0.0,0.0,0.0,0.0,0.0,0.0,0.0,0.0,0.0,0.0,0.0,0.0,0.0,0.0,0.0,0.0,0.0,0.0,0.0,0.0,0.0,0.0,0.0,0.0,0.0,0.0,0.0,0.0,0.0,0.0,2.7309,2.7668,2.7807,2.7927,2.7927,2.7831,0.0,0.0,0.0,0.0,0.0,0.0,0.0,0.0,0.0,0.0,0.0,0.0,0.0,0.0,0.0,0.0,0.0,0.0,0.0,0.0,0.0,0.0,0.0,0.0,0.0,0.0,0.0,0.0,0.0,0.0,0.0,0.0,0.0,0.0,0.0,0.0,0.0,0.0,0.0,0.0,0.0,0.0,0.0,0.0,0.0,0.0,0.0,0.0,0.0,0.0,0.0,0.0,0.0,0.0,0.0,0.0,0.0,0.0,0.0,0.0,0.0,0.0,0.0,0.0,0.0,0.0,0.0,0.0,0.0,0.0,0.0,0.0,0.0,0.0,0.0,0.0,0.0,0.0,0.0,0.0,0.0,0.0,0.0,0.0,0.0,0.0,0.0,0.0,0.0,0.0,0.0,0.0,0.0,0.0,0.0,0.0,0.0,0.0,0.0,0.0,0.0,0.0,0.0,0.0,0.0,0.0,0.0,0.0,2.7238,2.7476,2.7854,2.8324,2.8115,2.8115,0.0,0.0,0.0,0.0,0.0,0.0,0.0,0.0,0.0,0.0,0.0,0.0,0.0,0.0,0.0,0.0,0.0,0.0,0.0,0.0,0.0,0.0,0.0,0.0,0.0,0.0,0.0,0.0,0.0,0.0,0.0,0.0,0.0,0.0,0.0,0.0,0.0,0.0,0.0,0.0,0.0,0.0,0.0,0.0,0.0,0.0,0.0,0.0,0.0,0.0,0.0,0.0,0.0,0.0,0.0,0.0,0.0,0.0,0.0,0.0,0.0,0.0,0.0,0.0,0.0,0.0,0.0,0.0,0.0,0.0,0.0,0.0,0.0,0.0,0.0,0.0,0.0,0.0,0.0,0.0,0.0,0.0,0.0,0.0,0.0,0.0,0.0,0.0,0.0,0.0,0.0,0.0,0.0,0.0,0.0,0.0,0.0,0.0,0.0,0.0,0.0,0.0,0.0,0.0,0.0,0.0,0.0,0.0,0.0,2.7068,2.7594,2.8115,2.8628,2.8395,2.8209,0.0,0.0,0.0,0.0,0.0,0.0,0.0,0.0,0.0,0.0,0.0,0.0,0.0,0.0,0.0,0.0,0.0,0.0,0.0,0.0,0.0,0.0,0.0,0.0,0.0,0.0,0.0,0.0,0.0,0.0,0.0,0.0,0.0,0.0,0.0,0.0,0.0,0.0,0.0,0.0,0.0,0.0,0.0,0.0,0.0,0.0,0.0,0.0,0.0,0.0,0.0,0.0,0.0,0.0,0.0,0.0,0.0,0.0,0.0,0.0,0.0,0.0,0.0,0.0,0.0,0.0,0.0,0.0,0.0,0.0,0.0,0.0,0.0,0.0,0.0,0.0,0.0,0.0,0.0,0.0,0.0,0.0,0.0,0.0,0.0,0.0,0.0,0.0,0.0,0.0,0.0,0.0,0.0,0.0,0.0,0.0,0.0,0.0,0.0,0.0,0.0,0.0,0.0,0.0,0.0,0.0,0.0,0.0,0.0,2.7139,0.0,2.8162,2.8513,2.835,2.8186,0.0,0.0,0.0,0.0,0.0,0.0,0.0,0.0,0.0,0.0,0.0,0.0,0.0,0.0,0.0,0.0,0.0,0.0,0.0,0.0,0.0,0.0,0.0,0.0,0.0,0.0,0.0,0.0,0.0,0.0,0.0,0.0,0.0,0.0,0.0,0.0,0.0,0.0,0.0,0.0,0.0,0.0,0.0,0.0,0.0,0.0,0.0,0.0,0.0,0.0,0.0,0.0,0.0,0.0,0.0,0.0,0.0,0.0,0.0,0.0,0.0,0.0,0.0,0.0,0.0,0.0,0.0,0.0,0.0,0.0,0.0,0.0,0.0,0.0,0.0,0.0,0.0,0.0,0.0,0.0,0.0,0.0,0.0,0.0,0.0,0.0,0.0,0.0,0.0,0.0,0.0,0.0,0.0,0.0,0.0,0.0,0.0,0.0,0.0,0.0,0.0,0.0,0.0,0.0,0.0,0.0,0.0,0.0,2.7139,2.757,2.7833,2.7998,2.8021,2.8021,2.7998,0.0,0.0,0.0,0.0,0.0,0.0,0.0,0.0,0.0,0.0,0.0,0.0,0.0,0.0,0.0,0.0,0.0,0.0,0.0,0.0,0.0,0.0,0.0,0.0,0.0,0.0,0.0,0.0,0.0,0.0,0.0,0.0,0.0,0.0,0.0,0.0,0.0,0.0,0.0,0.0,0.0,0.0,0.0,0.0,0.0,0.0,0.0,0.0,0.0,0.0,0.0,0.0,0.0,0.0,0.0,0.0,0.0,0.0,0.0,0.0,0.0,0.0,0.0,0.0,0.0,0.0,0.0,0.0,0.0,0.0,0.0,0.0,0.0,0.0,0.0,0.0,0.0,0.0,0.0,0.0,0.0,0.0,0.0,0.0,0.0,0.0,0.0,0.0,0.0,0.0,0.0,0.0,0.0,0.0,0.0,0.0,0.0,0.0,0.0,0.0,0.0,0.0,0.0,0.0,0.0,0.0,0.0,0.0,0.0,2.7594,2.7668,2.7809,2.7998,2.7809,2.7715,0.0,0.0,0.0,0.0,0.0,0.0,0.0,0.0,0.0,0.0,0.0,0.0,0.0,0.0,0.0,0.0,0.0,0.0,0.0,0.0,0.0,0.0,0.0,0.0,0.0,0.0,0.0,0.0,0.0,0.0,0.0,0.0,0.0,0.0,0.0,0.0,0.0,0.0,0.0,0.0,0.0,0.0,0.0,0.0,0.0,0.0,0.0,0.0,0.0,0.0,0.0,0.0,0.0,0.0,0.0,0.0,0.0,0.0,0.0,0.0,0.0,0.0,0.0,0.0,0.0,0.0,0.0,0.0,0.0,0.0,0.0,0.0,0.0,0.0,0.0,0.0,0.0,0.0,0.0,0.0,0.0,0.0,0.0,0.0,0.0,0.0,0.0,0.0,0.0,0.0,0.0,0.0,0.0,0.0,0.0,0.0,0.0,0.0,0.0,0.0,0.0,0.0,0.0,0.0,0.0,0.0,0.0,0.0,0.0,2.7027,2.7143,2.7286,2.7431,2.7381,2.7333,2.7333,0.0,0.0,0.0,0.0,0.0,0.0,0.0,0.0,0.0,0.0,0.0,0.0,0.0,0.0,0.0,0.0,0.0,0.0,0.0,0.0,0.0,0.0,0.0,0.0,0.0,0.0,0.0,0.0,0.0,0.0,0.0,0.0,0.0,0.0,0.0,0.0,0.0,0.0,0.0,0.0,0.0,0.0,0.0,0.0,0.0,0.0,0.0,0.0,0.0,0.0,0.0,0.0,0.0,0.0,0.0,0.0,0.0,0.0,0.0,0.0,0.0,0.0,0.0,0.0,0.0,0.0,0.0,0.0,0.0,0.0,0.0,0.0,0.0,0.0,0.0,0.0,0.0,0.0,0.0,0.0,0.0,0.0,0.0,0.0,0.0,0.0,0.0,0.0,0.0,0.0,0.0,0.0,0.0,0.0,0.0,0.0,0.0,0.0,0.0,0.0,0.0,0.0,0.0,0.0,0.0,0.0,0.0,0.0,2.6066,2.6304,2.6448,2.6472,2.6733,2.6877,0.0,0.0,0.0,0.0,0.0,0.0,0.0,0.0,0.0,0.0,0.0,0.0,0.0,0.0,0.0,0.0,0.0,0.0,0.0,0.0,0.0,0.0,0.0,0.0,0.0,0.0,0.0,0.0,0.0,0.0,0.0,0.0,0.0,0.0,0.0,0.0,0.0,0.0,0.0,0.0,0.0,0.0,0.0,0.0,0.0,0.0,0.0,0.0,0.0,0.0,0.0,0.0,0.0,0.0,0.0,0.0,0.0,0.0,0.0,0.0,0.0,0.0,0.0,0.0,0.0,0.0,0.0,0.0,0.0,0.0,0.0,0.0,0.0,0.0,0.0,0.0,0.0,0.0,0.0,0.0,0.0,0.0,0.0,0.0,0.0,0.0,0.0,0.0,0.0,0.0,0.0,0.0,0.0,0.0,0.0,0.0,0.0,0.0,0.0,0.0,0.0,0.0,0.0,0.0,0.0,0.0,0.0,0.0,0.0,2.58,2.5484,2.5606,2.6163,2.6259,2.64,0.0,0.0,0.0,0.0,0.0,0.0,0.0,0.0,0.0,0.0,0.0,0.0,0.0,0.0,0.0,0.0,0.0,0.0,0.0,0.0,0.0,0.0,0.0,0.0,0.0,0.0,0.0,0.0,0.0,0.0,0.0,0.0,0.0,0.0,0.0,0.0,0.0,0.0,0.0,0.0,0.0,0.0,0.0,0.0,0.0,0.0,0.0,0.0,0.0,0.0,0.0,0.0,0.0,0.0,0.0,0.0,0.0,0.0,0.0,0.0,0.0,0.0,0.0,0.0,0.0,0.0,0.0,0.0,0.0,0.0,0.0,0.0,0.0,0.0,0.0,0.0,0.0,0.0,0.0,0.0,0.0,0.0,0.0,0.0,0.0,0.0,0.0,0.0,0.0,0.0,0.0,0.0,0.0,0.0,0.0,0.0,0.0,0.0,0.0,0.0,0.0,0.0,0.0,0.0,0.0,0.0,0.0,0.0,2.5314,2.5191,2.4873,2.4947,2.5411,2.5752,2.6115,0.0,0.0,0.0,0.0,0.0,0.0,0.0,0.0,0.0,0.0,0.0,0.0,0.0,0.0,0.0,0.0,0.0,0.0,0.0,0.0,0.0,0.0,0.0,0.0,0.0,0.0,0.0,0.0,0.0,0.0,0.0,0.0,0.0,0.0,0.0,0.0,0.0,0.0,0.0,0.0,0.0,0.0,0.0,0.0,0.0,0.0,0.0,0.0,0.0,0.0,0.0,0.0,0.0,0.0,0.0,0.0,0.0,0.0,0.0,0.0,0.0,0.0,0.0,0.0,0.0,0.0,0.0,0.0,0.0,0.0,0.0,0.0,0.0,0.0,0.0,0.0,0.0,0.0,0.0,0.0,0.0,0.0,0.0,0.0,0.0,0.0,0.0,0.0,0.0,0.0,0.0,0.0,0.0,0.0,0.0,0.0,0.0,0.0,0.0,0.0,0.0,0.0,0.0,0.0,0.0,0.0,0.0,0.0,2.4726,2.4504,2.448,2.448,2.4529,2.524,2.5873,0.0,0.0,0.0,0.0,0.0,0.0,0.0,0.0,0.0,0.0,0.0,0.0,0.0,0.0,0.0,0.0,0.0,0.0,0.0,0.0,0.0,0.0,0.0,0.0,0.0,0.0,0.0,0.0,0.0,0.0,0.0,0.0,0.0,0.0,0.0,0.0,0.0,0.0,0.0,0.0,0.0,0.0,0.0,0.0,0.0,0.0,0.0,0.0,0.0,0.0,0.0,0.0,0.0,0.0,0.0,0.0,0.0,0.0,0.0,0.0,0.0,0.0,0.0,0.0,0.0,0.0,0.0,0.0,0.0,0.0,0.0,0.0,0.0,0.0,0.0,0.0,0.0,0.0,0.0,0.0,0.0,0.0,0.0,0.0,0.0,0.0,0.0,0.0,0.0,0.0,0.0,0.0,0.0,0.0,0.0,0.0,0.0,0.0,0.0,0.0,0.0,0.0,0.0,0.0,0.0,0.0,0.0,0.0,2.4554,2.4504,2.435,2.435,2.4504,2.4873,2.5314,0.0,0.0,0.0,0.0,0.0,0.0,0.0,0.0,0.0,0.0,0.0,0.0,0.0,0.0,0.0,0.0,0.0,0.0,0.0,0.0,0.0,0.0,0.0,0.0,0.0,0.0,0.0,0.0,0.0,0.0,0.0,0.0,0.0,0.0,0.0,0.0,0.0,0.0,0.0,0.0,0.0,0.0,0.0,0.0,0.0,0.0,0.0,0.0,3.4702,0.0,0.0,0.0,0.0,0.0,0.0,0.0,0.0,0.0,0.0,0.0,0.0,0.0,0.0,0.0,0.0,0.0,0.0,0.0,0.0,0.0,0.0,0.0,0.0,0.0,0.0,0.0,0.0,0.0,0.0,0.0,0.0,0.0,0.0,0.0,0.0,0.0,0.0,0.0,0.0,0.0,0.0,0.0,0.0,0.0,0.0,0.0,0.0,0.0,0.0,0.0,0.0,0.0,0.0,0.0,0.0,0.0,0.0,0.0,2.4356,2.435,2.4435,2.4546,2.4646,2.5214,2.5618,0.0,0.0,0.0,0.0,0.0,0.0,0.0,0.0,0.0,0.0,0.0,0.0,0.0,0.0,0.0,0.0,0.0,0.0,0.0,0.0,0.0,0.0,0.0,0.0,0.0,0.0,0.0,0.0,0.0,0.0,0.0,0.0,0.0,0.0,0.0,0.0,0.0,0.0,0.0,0.0,0.0,0.0,0.0,0.0,0.0,0.0,0.0,0.0,0.0,0.0,0.0,0.0,0.0,0.0,0.0,0.0,0.0,0.0,0.0,0.0,0.0,0.0,0.0,0.0,0.0,0.0,0.0,0.0,0.0,0.0,0.0,0.0,0.0,0.0,0.0,0.0,0.0,0.0,0.0,0.0,0.0,0.0,0.0,0.0,0.0,0.0,0.0,0.0,0.0,0.0,0.0,0.0,0.0,0.0,0.0,0.0,0.0,0.0,0.0,0.0,0.0,0.0,0.0,0.0,0.0,0.0,0.0,2.4269,2.433,2.4404,2.4709,2.4893,2.4911,2.5745,2.6231,2.6231,0.0,0.0,0.0,0.0,0.0,0.0,0.0,0.0,0.0,0.0,0.0,0.0,0.0,0.0,0.0,0.0,0.0,0.0,0.0,0.0,0.0,0.0,0.0,0.0,0.0,0.0,0.0,0.0,0.0,0.0,0.0,0.0,0.0,0.0,0.0,0.0,0.0,0.0,3.499,3.5424,0.0,0.0,0.0,0.0,0.0,0.0,0.0,0.0,3.6411,0.0,0.0,0.0,0.0,0.0,0.0,0.0,0.0,0.0,0.0,0.0,0.0,0.0,0.0,0.0,0.0,0.0,0.0,0.0,0.0,0.0,0.0,0.0,0.0,0.0,0.0,0.0,0.0,0.0,0.0,0.0,0.0,0.0,0.0,0.0,0.0,0.0,0.0,0.0,0.0,0.0,0.0,0.0,0.0,0.0,0.0,0.0,0.0,0.0,0.0,0.0,0.0,0.0,0.0,0.0,0.0,2.4691,2.4709,2.4856,2.5186,2.526,2.5297,2.5323,2.5895,2.6397,2.6847,0.0,0.0,0.0,0.0,0.0,0.0,0.0,0.0,0.0,0.0,0.0,0.0,0.0,0.0,0.0,0.0,0.0,0.0,0.0,0.0,0.0,0.0,0.0,0.0,0.0,0.0,0.0,0.0,0.0,0.0,0.0,0.0,0.0,0.0,0.0,0.0,0.0,0.0,0.0,3.6193,3.629,0.0,0.0,0.0,0.0,0.0,0.0,0.0,0.0,3.6338,0.0,0.0,0.0,0.0,0.0,0.0,0.0,0.0,0.0,0.0,0.0,0.0,0.0,0.0,0.0,0.0,0.0,0.0,0.0,0.0,0.0,0.0,0.0,0.0,0.0,0.0,0.0,0.0,0.0,0.0,0.0,0.0,0.0,0.0,0.0,0.0,0.0,0.0,0.0,0.0,0.0,0.0,0.0,0.0,0.0,0.0,0.0,0.0,0.0,0.0,0.0,0.0,0.0,0.0,0.0,2.5095,2.5113,2.5205,2.5388,2.559,2.57,2.5727,2.6432,2.6984,0.0,0.0,0.0,0.0,0.0,0.0,0.0,0.0,0.0,0.0,0.0,0.0,0.0,0.0,0.0,0.0,0.0,0.0,0.0,0.0,0.0,0.0,0.0,0.0,0.0,0.0,0.0,0.0,0.0,0.0,0.0,0.0,0.0,0.0,0.0,0.0,0.0,0.0,0.0,0.0,3.6795,3.6916,3.718,0.0,0.0,0.0,0.0,0.0,0.0,3.7228,3.7228,0.0,0.0,0.0,0.0,0.0,0.0,0.0,0.0,0.0,0.0,0.0,0.0,0.0,0.0,0.0,0.0,0.0,0.0,0.0,0.0,0.0,0.0,0.0,0.0,0.0,0.0,0.0,0.0,0.0,0.0,0.0,0.0,0.0,0.0,0.0,0.0,0.0,0.0,0.0,0.0,0.0,0.0,0.0,0.0,0.0,0.0,0.0,0.0,0.0,0.0,0.0,0.0,0.0,0.0,0.0,2.5499,2.5517,2.5572,2.5645,2.5958,2.6104,2.6149,2.6956,2.7512,0.0,0.0,0.0,0.0,0.0,0.0,0.0,0.0,0.0,0.0,0.0,0.0,0.0,0.0,0.0,0.0,0.0,0.0,0.0,0.0,0.0,0.0,0.0,0.0,0.0,0.0,0.0,0.0,0.0,0.0,0.0,0.0,0.0,0.0,0.0,0.0,0.0,0.0,0.0,0.0,0.0,3.7519,3.7952,3.8,0.0,0.0,0.0,0.0,3.8,3.8,0.0,0.0,0.0,0.0,0.0,0.0,0.0,0.0,0.0,0.0,0.0,0.0,0.0,0.0,0.0,0.0,0.0,0.0,0.0,0.0,0.0,0.0,0.0,0.0,0.0,0.0,0.0,0.0,0.0,0.0,0.0,0.0,0.0,0.0,0.0,0.0,0.0,0.0,0.0,0.0,0.0,0.0,0.0,0.0,0.0,0.0,0.0,0.0,0.0,0.0,0.0,0.0,0.0,0.0,0.0,0.0,2.5902,2.5921,2.6086,2.6426,2.6508,2.6545,2.6545,2.7079,2.7645,0.0,0.0,0.0,0.0,0.0,0.0,0.0,0.0,0.0,0.0,0.0,0.0,0.0,0.0,0.0,0.0,0.0,0.0,0.0,0.0,0.0,0.0,0.0,0.0,0.0,0.0,0.0,0.0,0.0,0.0,0.0,0.0,0.0,0.0,0.0,0.0,0.0,0.0,0.0,0.0,0.0,3.7952,3.8,3.8,3.8,0.0,0.0,3.8,3.8,3.8,0.0,0.0,0.0,0.0,0.0,0.0,0.0,0.0,0.0,0.0,0.0,0.0,0.0,0.0,0.0,0.0,0.0,0.0,0.0,0.0,0.0,0.0,0.0,0.0,0.0,0.0,0.0,0.0,0.0,0.0,0.0,0.0,0.0,0.0,0.0,0.0,0.0,0.0,0.0,0.0,0.0,0.0,0.0,0.0,0.0,0.0,0.0,0.0,0.0,0.0,0.0,0.0,0.0,0.0,0.0,2.5921,2.6325,2.6343,2.6435,2.66,2.6618,2.6618,2.6618,2.7116,2.7664,0.0,0.0,0.0,0.0,0.0,0.0,0.0,0.0,0.0,0.0,0.0,0.0,0.0,0.0,0.0,0.0,0.0,0.0,0.0,0.0,0.0,0.0,0.0,0.0,0.0,0.0,0.0,0.0,0.0,0.0,0.0,0.0,0.0,0.0,0.0,0.0,0.0,0.0,0.0,0.0,0.0,0.0,3.8,3.8,0.0,0.0,0.0,3.8,3.8,0.0,0.0,0.0,0.0,0.0,0.0,0.0,0.0,0.0,0.0,0.0,0.0,0.0,0.0,0.0,0.0,0.0,0.0,0.0,0.0,0.0,0.0,0.0,0.0,0.0,0.0,0.0,0.0,0.0,0.0,0.0,0.0,0.0,0.0,0.0,0.0,0.0,0.0,0.0,0.0,0.0,0.0,0.0,0.0,0.0,0.0,0.0,0.0,0.0,0.0,0.0,0.0,0.0,0.0,0.0,0.0,0.0,2.6573,2.6618,2.6618,2.6618,2.6618,2.6618,2.6618,2.7143,0.0,0.0,0.0,0.0,0.0,0.0,0.0,0.0,0.0,0.0,0.0,0.0,0.0,0.0,0.0,0.0,0.0,0.0,0.0,0.0,0.0,0.0,0.0,0.0,0.0,0.0,0.0,2.9082,0.0,0.0,0.0,0.0,0.0,0.0,0.0,0.0,0.0,0.0,0.0,0.0,0.0,0.0,3.8,3.8,3.8,3.8,0.0,0.0,3.8,3.8,3.8,3.8,0.0,0.0,0.0,0.0,0.0,0.0,0.0,0.0,0.0,0.0,0.0,0.0,0.0,0.0,0.0,0.0,0.0,0.0,0.0,0.0,0.0,0.0,0.0,0.0,0.0,0.0,0.0,0.0,0.0,0.0,0.0,0.0,0.0,0.0,0.0,0.0,0.0,0.0,0.0,0.0,0.0,0.0,0.0,0.0,0.0,0.0,0.0,0.0,0.0,0.0,0.0,0.0,0.0,0.0,2.6554,2.6618,2.6618,2.6618,2.6618,2.6618,2.6618,2.6618,2.7116,2.7664,0.0,0.0,0.0,0.0,0.0,0.0,0.0,0.0,0.0,0.0,0.0,0.0,0.0,0.0,0.0,0.0,0.0,0.0,0.0,0.0,0.0,0.0,0.0,0.0,0.0,0.0,0.0,0.0,0.0,0.0,0.0,0.0,0.0,0.0,0.0,0.0,0.0,0.0,0.0,0.0,0.0,3.8,3.8,3.8,3.8,0.0,3.8,3.8,3.8,3.8,3.8,3.8,0.0,0.0,0.0,0.0,0.0,0.0,0.0,0.0,0.0,0.0,0.0,0.0,0.0,0.0,0.0,0.0,0.0,0.0,0.0,0.0,0.0,0.0,0.0,0.0,0.0,0.0,0.0,0.0,0.0,0.0,0.0,0.0,0.0,0.0,0.0,0.0,0.0,0.0,0.0,0.0,0.0,0.0,0.0,0.0,0.0,0.0,0.0,0.0,0.0,0.0,0.0,0.0,0.0,2.6618,2.6618,2.6618,2.6618,2.6618,2.6618,2.6618,2.6618,2.6954,2.7449,0.0,0.0,0.0,0.0,0.0,0.0,0.0,0.0,0.0,0.0,0.0,0.0,0.0,0.0,0.0,0.0,0.0,0.0,0.0,0.0,0.0,0.0,0.0,0.0,0.0,0.0,0.0,0.0,3.0736,3.2053,3.3561,0.0,0.0,0.0,0.0,0.0,0.0,0.0,0.0,0.0,0.0,3.7441,3.7465,3.7465,0.0,0.0,3.7625,3.7679,3.7492,3.7625,3.7679,3.7492,3.7465,0.0,0.0,0.0,0.0,0.0,0.0,0.0,0.0,0.0,0.0,0.0,0.0,0.0,0.0,0.0,0.0,0.0,0.0,0.0,0.0,0.0,0.0,0.0,0.0,0.0,0.0,0.0,0.0,0.0,0.0,0.0,0.0,0.0,0.0,0.0,0.0,0.0,0.0,0.0,0.0,0.0,0.0,0.0,0.0,0.0,0.0,0.0,0.0,0.0,0.0,0.0,0.0,2.6646,2.6784,2.6802,2.6811,2.6967,2.6967,2.694,2.6967,2.7224,2.7636,0.0,0.0,0.0,0.0,0.0,0.0,0.0,0.0,0.0,0.0,0.0,0.0,0.0,0.0,0.0,0.0,0.0,0.0,0.0,0.0,0.0,0.0,0.0,0.0,0.0,0.0,0.0,0.0,3.0973,3.242,3.3903,0.0,0.0,0.0,0.0,0.0,0.0,0.0,0.0,0.0,0.0,3.685,3.6874,3.6904,3.6985,3.6982,3.7251,3.7358,3.7143,3.7304,3.7355,3.7036,0.0,0.0,0.0,0.0,0.0,0.0,0.0,0.0,0.0,0.0,0.0,0.0,0.0,0.0,0.0,0.0,0.0,0.0,0.0,0.0,0.0,0.0,0.0,0.0,0.0,0.0,0.0,2.4812,0.0,0.0,2.4857,0.0,0.0,0.0,0.0,0.0,0.0,0.0,0.0,0.0,0.0,0.0,0.0,0.0,0.0,0.0,0.0,0.0,0.0,0.0,0.0,0.0,0.0,2.682,2.7187,2.7187,2.7371,2.7738,2.7775,2.7738,2.7767,2.8012,2.8455,2.9028,0.0,0.0,0.0,0.0,0.0,0.0,0.0,0.0,0.0,0.0,0.0,0.0,0.0,0.0,0.0,0.0,0.0,0.0,0.0,0.0,0.0,0.0,0.0,0.0,0.0,0.0,2.953,3.0869,3.2141,0.0,0.0,0.0,0.0,0.0,0.0,0.0,0.0,0.0,3.6332,3.6305,3.6282,3.6332,3.6549,3.6685,3.6685,3.6928,3.7093,3.7039,3.7066,3.7012,0.0,0.0,0.0,0.0,0.0,0.0,0.0,0.0,0.0,0.0,0.0,0.0,0.0,0.0,0.0,0.0,0.0,0.0,0.0,0.0,0.0,0.0,0.0,0.0,0.0,0.0,0.0,2.483,2.483,0.0,0.0,0.0,0.0,0.0,0.0,0.0,0.0,0.0,0.0,0.0,2.6699,2.7167,0.0,0.0,0.0,0.0,0.0,0.0,0.0,0.0,0.0,0.0,0.0,0.0,2.7463,2.7591,2.7591,2.7665,2.7775,2.7793,2.7793,2.7793,2.7879,2.8191,2.8737,0.0,0.0,0.0,0.0,0.0,0.0,0.0,0.0,0.0,0.0,0.0,0.0,0.0,0.0,0.0,0.0,0.0,0.0,0.0,0.0,0.0,0.0,0.0,0.0,0.0,2.942,0.0,0.0,0.0,0.0,0.0,0.0,0.0,0.0,0.0,0.0,3.5698,3.5533,3.545,3.5212,3.5185,3.54,3.5533,3.5643,0.0,0.0,0.0,0.0,0.0,0.0,0.0,0.0,0.0,0.0,0.0,0.0,0.0,0.0,3.5603,3.6417,3.6576,3.6607,3.6793,0.0,0.0,0.0,0.0,0.0,0.0,0.0,0.0,0.0,0.0,0.0,0.0,0.0,0.0,2.4479,2.4479,2.4479,0.0,0.0,0.0,0.0,0.0,0.0,0.0,0.0,2.6279,2.6714,2.6929,2.7399,2.7679,2.7793,2.7793,2.7518,0.0,0.0,0.0,0.0,0.0,0.0,0.0,0.0,2.7867,2.7995,2.8014,2.8087,2.8215,2.8215,2.8215,2.8215,2.8331,2.8562,2.8917,2.9488,3.0083,0.0,0.0,0.0,0.0,0.0,0.0,0.0,0.0,0.0,0.0,0.0,0.0,0.0,0.0,0.0,0.0,0.0,0.0,0.0,0.0,0.0,0.0,0.0,2.9272,0.0,0.0,0.0,0.0,0.0,0.0,0.0,0.0,0.0,3.4869,3.4785,3.4646,3.4534,3.4317,3.4289,3.4479,0.0,0.0,0.0,0.0,0.0,0.0,0.0,3.5268,3.5008,3.4952,3.4841,3.4562,3.4345,3.4183,3.4183,0.0,0.0,3.5488,3.5785,3.5895,3.6059,3.6168,3.6332,3.658,3.6634,3.6553,0.0,0.0,0.0,0.0,2.3893,0.0,0.0,0.0,2.3937,2.3954,0.0,2.397,0.0,0.0,0.0,0.0,2.5386,2.5734,0.0,0.0,2.6417,2.6723,2.7258,2.7333,2.7505,2.7801,2.7848,2.7848,2.783,2.783,0.0,0.0,0.0,0.0,0.0,0.0,2.8032,2.8407,2.8407,2.8608,2.8957,2.8975,2.9005,2.9005,2.9283,2.946,2.949,3.0001,3.0316,3.0188,3.0463,0.0,0.0,0.0,0.0,0.0,0.0,0.0,0.0,0.0,0.0,0.0,0.0,0.0,0.0,0.0,0.0,0.0,0.0,0.0,0.0,2.8975,0.0,0.0,0.0,0.0,0.0,0.0,0.0,0.0,0.0,3.2998,3.3889,3.403,3.3918,3.3586,0.0,0.0,0.0,0.0,3.403,3.403,3.4295,3.4463,3.4413,3.4441,3.4379,3.4114,0.0,0.0,3.3586,3.3551,3.3501,3.353,3.3501,3.3727,3.4274,3.4708,3.4952,3.498,3.5202,3.5428,3.5708,3.574,3.5763,2.3524,0.0,0.0,0.0,0.0,2.3613,2.3872,2.426,2.4244,2.442,2.4697,2.468,0.0,0.0,0.0,0.0,0.0,0.0,2.5925,2.6059,2.655,2.6924,2.7117,2.7842,2.8203,2.8292,2.8527,2.8656,2.8674,2.8674,2.8528,2.8252,0.0,0.0,0.0,0.0,2.8729,2.881,2.881,2.8865,2.8975,2.8975,2.8975,2.8975,2.9094,2.9153,2.9153,2.9538,2.9836,3.0004,3.0277,0.0,0.0,0.0,0.0,0.0,0.0,0.0,0.0,0.0,0.0,0.0,0.0,0.0,0.0,0.0,0.0,0.0,0.0,0.0,2.8975,2.8975,2.9124,0.0,0.0,0.0,0.0,0.0,0.0,0.0,0.0,0.0,3.242,3.2649,3.2714,0.0,0.0,3.2391,3.2571,3.2657,3.2828,3.3055,3.3339,0.0,3.3254,3.3424,3.3452,3.314,3.2913,3.2714,3.262,3.2449,3.2305,3.2334,3.2305,3.2391,3.2571,3.336,3.403,3.4283,3.4423,3.4541,3.4825,3.4858,3.4797,2.383,2.3435,2.3464,2.355,2.375,2.375,2.3965,2.4259,2.4259,2.4418,2.4643,2.4643,2.4643,2.4672,2.5054,0.0,0.0,0.0,2.6388,2.6405,2.6836,2.7088,2.7237,2.7943,2.8367,2.8517,2.8845,2.8975,2.8975,2.8975,2.8865,2.8645,0.0,2.8975,2.8975,2.8975,2.8975,2.8975,2.8975,2.8975,2.8975,2.8975,2.8975,2.8975,2.8975,2.8975,2.8975,2.9183,2.942,2.9715,2.9951,3.0186,0.0,0.0,0.0,0.0,0.0,0.0,0.0,0.0,0.0,0.0,0.0,2.9213,2.9005,0.0,0.0,0.0,2.8975,2.8975,2.8975,2.8975,0.0,0.0,0.0,0.0,0.0,0.0,0.0,3.1402,3.1431,3.1491,3.1679,3.1816,3.196,3.2038,3.1903,3.1845,3.1998,0.0,3.2113,3.2313,3.2514,3.2592,3.2371,3.2506,3.2571,3.2371,3.219,3.2055,3.2026,3.1903,3.1816,3.1816,3.1816,3.1816,3.1816,3.2391,3.2962,3.3275,3.3445,3.3614,3.3741,3.379,3.3734,2.4193,2.4164,2.4193,2.4161,2.4114,2.4114,2.41,2.4145,2.4132,2.4177,2.4164,2.4193,2.4193,2.4284,2.5231,0.0,2.6158,2.683,2.7103,2.7103,2.7103,2.7207,2.7491,2.7875,2.8223,2.8493,2.8918,2.9085,2.9085,2.9085,2.9115,2.9085,2.9115,2.9078,2.8975,2.8975,2.8975,2.8975,2.8975,2.8975,2.8975,2.8975,2.8975,2.8975,2.8975,2.8975,2.8975,2.8975,2.9153,2.945,2.945,2.9568,2.9804,0.0,0.0,0.0,0.0,0.0,0.0,0.0,0.0,0.0,0.0,0.0,0.0,0.0,0.0,2.8975,2.8975,0.0,2.8975,2.8975,0.0,0.0,0.0,2.9646,2.9901,3.0225,3.0596,3.0947,0.0,0.0,3.1494,3.1533,3.1633,3.1803,3.185,3.183,3.183,3.187,3.183,3.189,3.1879,3.1879,3.1931,3.191,3.1919,3.183,3.1761,3.1761,3.1721,3.1701,3.1701,3.1672,3.173,3.1701,3.173,3.177,3.1877,3.2136,3.242,3.2628,3.2657,3.2685,3.2685,2.4865,2.4865,2.4849,2.4577,2.4114,2.4114,2.4243,2.4482,2.4482,2.4625,2.4849,2.4865,2.5017,2.5291,2.6009,2.6396,2.651,2.6921,2.7103,2.7103,2.7103,2.7133,2.7241,2.8078,2.8524,2.8633,2.947,2.991,2.991,2.991,2.991,2.991,2.991,2.9629,2.9012,2.8975,2.8975,2.8975,2.8975,2.8975,2.8975,2.8975,2.8975,2.8975,2.8975,2.8975,2.8975,2.8975,2.9035,2.9094,2.9124,2.9124,2.9213,2.9213,0.0,0.0,0.0,0.0,0.0,0.0,0.0,0.0,0.0,2.8975,2.8975,0.0,2.8975,0.0,2.8975,2.8975,2.8975,2.8975,0.0,0.0,2.9302,2.9758,3.0357,3.0694,3.1107,3.1786,3.1905,3.1925,3.2042,3.2012,3.2063,3.2085,3.2096,3.2126,3.2126,3.2096,3.2096,3.2106,3.2236,3.2346,3.2146,3.2096,3.1988,3.1614,3.1584,3.1456,3.1171,3.1112,3.1112,3.1112,3.1112,3.1112,3.1132,3.1338,3.1584,3.1653,3.1854,3.2018,3.1998,3.2018,3.2018,2.5437,2.5595,2.558,2.5373,2.5021,2.4689,2.4642,2.4848,2.4817,2.4928,2.5103,2.5273,2.5538,2.5899,2.6546,2.6907,2.712,2.7446,2.76,2.76,2.76,2.7662,2.7847,2.8549,2.8946,2.9118,2.9847,3.0204,3.0204,3.0204,3.0204,3.0204,3.0204,2.9984,2.9544,2.9525,2.9525,2.9525,2.9372,2.928,2.9262,2.9097,2.8975,2.8975,2.8975,2.8975,2.8975,2.8975,2.8975,2.8975,2.8975,2.8975,2.8975,2.8975,2.8975,0.0,0.0,0.0,0.0,0.0,0.0,0.0,0.0,0.0,0.0,0.0,2.8975,2.8993,2.917,2.928,2.9262,2.9415,2.9556,2.9525,2.9707,3.0083,3.0812,3.0994,3.1362,3.2098,3.2198,3.2276,3.2452,3.2441,3.255,3.2695,3.2765,3.2578,3.2276,3.2198,3.2198,3.2198,3.232,3.238,3.2198,3.2198,3.212,3.1875,3.1797,3.1719,3.1534,3.1494,3.1465,3.1494,3.1465,3.1494,3.1465,3.1651,3.1816,3.1837,3.1919,3.1969,3.1978,3.1978,3.1978,2.5866,2.6168,2.6168,2.6168,2.6168,2.5532,2.5246,2.5246,2.5246,2.5277,2.5339,2.5709,2.6073,2.6413,2.6975,2.744,2.7758,2.806,2.8217,2.8249,2.828,2.8438,2.8783,2.9149,2.9511,2.9792,3.0158,3.0351,3.0351,3.0351,3.0351,3.0351,3.0351,3.0351,3.0351,3.0351,3.0296,3.0204,2.9837,2.9684,2.9654,2.9324,2.917,2.914,2.9085,2.9067,2.9048,2.9042,2.8975,2.8975,2.8975,2.8975,2.8975,2.8975,2.8975,0.0,2.8975,0.0,0.0,0.0,0.0,0.0,0.0,0.0,0.0,2.906,2.9115,2.917,2.9482,2.9684,2.9684,2.9984,3.0204,3.0204,3.0204,3.0482,3.1167,3.1278,3.1543,3.2294,3.2355,3.2511,3.2812,3.2871,3.3027,3.3269,3.334,3.3105,3.255,3.2413,3.2402,3.2355,3.2355,3.2452,3.2433,3.2394,3.2374,3.2316,3.2276,3.2257,3.2159,3.2159,3.2179,3.2179,3.214,3.2159,3.2198,3.2218,3.2276,3.2276,3.2346,3.2326,3.219,3.2181,3.2198,2.612,2.6168,2.6168,2.6168,2.62,2.6041,2.5977,2.5977,2.6009,2.6136,2.6437,2.7021,2.7355,2.7437,2.7832,2.804,2.8123,2.8154,2.8343,2.8626,2.8577,2.8783,2.9114,2.978,3.0113,3.0194,3.0865,3.1189,3.1157,3.1157,3.1189,3.1189,3.1157,3.1189,3.1157,0.0,0.0,0.0,3.013,3.0094,3.0075,3.0033,2.9965,2.9965,2.9635,0.0,2.9482,2.914,2.8975,2.8975,2.8975,0.0,0.0,0.0,0.0,0.0,0.0,0.0,0.0,0.0,0.0,0.0,2.9501,2.9354,2.906,2.9299,2.9629,2.9929,3.0039,3.0075,3.0075,3.0149,3.0204,3.0204,3.0204,3.0593,3.1545,3.1695,3.2059,3.305,3.3152,3.3203,3.323,3.3301,3.3289,3.3367,3.3386,3.3328,3.3172,3.3144,3.3164,3.3152,3.3105,3.3164,3.3184,3.3144,3.2988,3.2793,3.2676,3.2559,3.2316,3.2237,3.2218,3.2237,3.2198,3.2218,3.2218,3.2472,3.2676,3.2676,3.293,3.2969,3.2355,3.2198,3.2198,2.6534,2.6693,2.6693,2.6693,0.0,2.6856,2.6954,2.6922,2.6584,2.6632,2.695,2.749,2.7813,2.8013,2.8349,2.858,2.8734,2.8926,2.9087,2.9229,2.9439,2.9694,3.0062,3.0419,3.0669,3.0879,3.1222,3.141,3.141,3.141,3.141,3.141,3.141,3.141,3.141,3.141,3.1208,3.0791,3.0589,3.0497,3.0479,3.0296,3.0204,3.0204,3.0002,0.0,0.0,0.0,0.0,0.0,0.0,0.0,0.0,2.958,0.0,2.958,2.958,2.958,2.958,2.958,2.9672,2.9855,2.9904,2.98,2.9599,2.9764,2.9984,3.0185,3.0369,3.0479,3.0497,3.0662,3.0791,3.0822,3.0791,3.1149,3.1917,3.21,3.246,3.3202,3.3386,3.3386,3.3386,3.3386,3.3386,3.3386,3.3386,3.3516,3.3672,3.3555,3.3386,3.3386,3.3386,3.3386,3.3386,3.3386,3.3379,3.3113,3.3105,3.3008,3.2832,3.2793,3.2793,3.2773,3.2793,3.2793,3.2793,3.2969,3.3105,3.3125,3.325,3.3269,3.2851,3.2793,3.2793,2.6978,2.7296,2.7363,2.7428,2.7525,2.7844,2.8044,2.8046,2.7344,0.0,0.0,2.785,2.8162,2.8498,2.8838,2.9122,2.9397,2.9757,2.9952,3.0018,3.0328,3.0653,3.0976,3.1009,3.112,3.1377,3.1451,3.152,3.1488,3.1561,3.163,3.163,3.1598,3.163,3.163,3.1524,3.152,3.1501,3.1134,3.0882,3.0882,3.0571,3.0406,3.0406,3.0351,3.0296,3.0314,3.0241,3.0204,3.0204,3.0204,3.0204,3.0204,3.0204,3.0204,3.0204,3.0204,3.0204,3.0204,3.0204,3.0222,3.0296,3.0369,3.0369,3.0314,3.0314,3.0332,3.0406,3.0699,3.0932,3.0901,3.1208,3.141,3.141,3.1515,3.1874,3.2439,3.2675,3.3021,3.3493,3.3659,3.362,3.3659,3.3691,3.362,3.362,3.3679,3.3769,3.4043,3.3926,3.3699,3.373,3.3738,3.3659,3.3652,3.3562,3.3535,3.3555,3.3445,3.3386,3.3386,3.3386,3.3386,3.3308,3.3386,3.3347,3.3367,3.3347,3.3386,3.3386,3.3386,3.3386,3.3386,3.3386,3.3347,2.7343,2.7661,2.7984,2.833,2.8622,2.8998,2.9323,2.9512,2.8826,2.8525,2.859,2.8933,2.9114,2.9165,2.9524,2.9705,2.9757,3.0133,3.0458,3.075,3.0815,3.1009,3.1313,3.1345,3.1345,3.1428,3.1744,3.1909,3.1964,3.2258,3.2423,3.2423,3.2423,3.2423,3.2404,3.2093,3.1909,3.1909,3.1538,3.1318,3.1318,3.1263,3.1212,3.1226,3.0882,3.0699,3.073,3.0387,3.0204,3.0204,3.0204,3.0204,3.0204,3.0222,3.0204,3.0204,3.0204,3.0204,3.0204,3.0204,3.0351,3.0681,3.1043,3.1098,3.0736,3.0717,3.0846,3.1189,3.1281,3.1318,3.1336,3.1391,3.1465,3.1497,3.2051,3.2581,3.2971,3.353,3.4016,3.4388,3.4512,3.4492,3.4434,3.4453,3.4434,3.4492,3.4434,3.4531,3.457,3.457,3.4512,3.4512,3.4512,3.4531,3.4394,3.4199,3.4023,3.3984,3.3691,3.3484,3.3503,3.3503,3.3484,3.3425,3.3484,3.3496,3.3445,3.3386,3.3464,3.3484,3.3503,3.3464,3.3484,3.3484,3.3425,2.8277,2.8645,2.8815,2.8982,2.9146,2.9524,2.9866,3.014,2.9834,2.9647,2.9698,2.9848,3.0016,3.0249,3.0383,3.0549,3.08,3.1165,3.1396,3.1562,3.1727,3.1906,3.2038,3.2038,3.2038,3.2056,3.2221,3.2331,3.2331,3.2514,3.2606,3.2606,3.2606,3.2606,3.2588,3.2423,3.2331,3.2313,3.1708,3.141,3.141,3.141,3.141,3.141,3.1226,3.1134,3.1134,3.0969,3.0846,3.0827,3.0827,3.0846,3.0846,3.0827,3.0846,3.0846,3.0846,3.0877,3.0877,3.0827,3.0951,3.1134,3.1488,3.1653,3.1469,3.1231,3.1194,3.1391,3.1579,3.1726,3.1726,3.1909,3.2038,3.2038,3.2584,3.3058,3.3406,3.3882,3.4313,3.4641,3.4687,3.4687,3.4687,3.4687,3.4687,3.4726,3.4883,3.5059,3.5078,3.5273,3.5215,3.4805,3.4687,3.4687,3.4687,3.4551,3.4434,3.4414,3.4238,3.4141,3.4121,3.4101,3.4101,3.4121,3.4101,3.4121,3.4101,3.4121,3.4121,3.4121,3.4121,3.4121,3.4089,3.4121,3.3945,2.9161,2.9502,2.9605,2.9724,2.9929,3.0187,3.048,3.0789,3.0789,3.0857,3.0874,3.0651,3.0769,3.1108,3.1209,3.143,3.1717,3.207,3.2204,3.2238,3.2488,3.2606,3.2606,3.2606,3.2606,3.2606,3.268,3.2735,3.2735,3.2826,3.2863,3.2881,3.2863,3.2881,3.2863,3.2771,3.2735,3.268,3.2019,3.1653,3.1685,3.1685,3.1648,3.1524,3.1506,3.152,3.141,3.141,3.141,3.141,3.141,3.141,3.141,3.141,3.141,3.141,3.1501,3.1561,3.1685,3.1685,3.1653,3.1653,3.1964,3.2129,3.2111,3.1836,3.1653,3.1689,3.1964,3.2148,3.2166,3.2386,3.2621,3.2721,3.3181,3.3604,3.3937,3.4345,3.4702,3.4967,3.5,3.5019,3.5,3.5,3.5039,3.5098,3.5312,3.5527,3.5566,3.584,3.5684,3.5254,3.5,3.5039,3.5,3.4902,3.4883,3.4844,3.4746,3.4648,3.4629,3.4668,3.4687,3.4629,3.4648,3.4629,3.4668,3.4668,3.4629,3.4609,3.459,3.4648,3.4609,3.4629,3.4492,2.955,2.9884,3.0249,3.0799,3.1317,3.1404,3.1598,3.1878,3.1931,3.2158,3.2315,3.1423,3.1177,3.1549,3.187,3.2039,3.2106,3.2405,3.2558,3.2558,3.2573,3.2606,3.2643,3.2625,3.2606,3.2661,3.2957,3.3122,3.3175,3.3505,3.367,3.3707,3.3707,3.367,3.3651,3.3306,3.3122,3.3156,3.2716,3.2478,3.2478,3.2478,3.2313,3.1964,3.1946,3.1763,3.1483,3.141,3.141,3.141,3.1428,3.1428,3.1428,3.1428,3.1428,3.1446,3.1744,3.2093,3.2423,3.2478,3.2441,3.2478,3.2496,3.2551,3.2551,3.2514,3.2478,3.2496,3.2533,3.2551,3.2533,3.2606,3.2847,3.3185,3.3797,3.4336,3.4729,3.5428,3.5831,3.5864,3.5801,3.5845,3.5801,3.5801,3.584,3.5762,3.582,3.5898,3.5898,3.5957,3.6016,3.5879,3.5879,3.584,3.5781,3.5566,3.5371,3.5293,3.498,3.4863,3.4844,3.4824,3.4726,3.4961,3.4805,3.4824,3.4805,3.4707,3.4766,3.4883,3.4863,3.4746,3.4707,3.4766,3.4707,3.057,3.0915,3.1091,3.1317,3.163,3.1806,3.1965,3.2105,3.2333,3.2701,3.2998,3.2572,3.2429,3.2619,3.2757,3.2911,3.3116,3.3253,3.3321,3.3321,3.3303,3.3321,3.3321,3.3287,3.3321,3.3321,3.3486,3.3544,3.3596,3.3709,3.3817,3.3817,3.3817,3.3817,3.3798,3.3651,3.3578,3.3578,3.3395,3.3321,3.3266,3.2845,3.2514,3.2368,3.2349,3.2294,3.2129,3.2093,3.2093,3.2093,3.2126,3.2093,3.2093,3.2126,3.2093,3.2144,3.2258,3.2423,3.2588,3.2606,3.2606,3.2606,3.2826,3.2939,3.2991,3.3175,3.3321,3.3285,3.3101,3.2973,3.2991,3.3379,3.3731,3.3954,3.4562,3.5065,3.5254,3.5695,3.6035,3.6035,3.6035,3.6035,3.6035,3.6035,3.6035,3.6035,3.6001,3.6001,3.5982,3.6035,3.6035,3.6035,3.6035,3.6035,3.6016,3.5898,3.5781,3.5723,3.5625,3.5488,3.5449,3.5488,3.5488,3.5449,3.541,3.541,3.5527,3.5488,3.5488,3.5449,3.5469,3.5469,3.5488,3.5488,3.5469,3.1533,3.1903,3.201,3.2117,3.2259,3.2507,3.2632,3.2773,3.3074,3.3427,3.3726,3.3779,3.3779,3.3743,3.3561,3.3573,3.3782,3.3817,3.3817,3.3817,3.3817,3.3817,3.3817,3.3817,3.3817,3.3817,3.3798,3.3817,3.3817,3.3817,3.3817,3.3817,3.3817,3.3817,3.3817,3.3817,3.3817,3.3817,3.3817,3.3817,3.3725,3.3248,3.2881,3.2771,3.2771,3.2716,3.2606,3.2606,3.2606,3.2588,3.2606,3.2606,3.2606,3.2606,3.2643,3.2753,3.2771,3.2826,3.2918,3.2936,3.2918,3.2955,3.323,3.3395,3.3431,3.3721,3.3937,3.3953,3.3782,3.3668,3.3603,3.4134,3.4577,3.4715,3.5196,3.5523,3.5641,3.5899,3.6035,3.6035,3.6035,3.6035,3.6035,3.6035,3.6035,3.6035,3.5913,3.5899,3.5811,3.5777,3.5709,3.5845,3.5865,3.5913,3.6001,3.5996,3.6035,3.6035,3.5957,3.5937,3.6035,3.5982,3.5982,3.5762,3.5957,3.5996,3.5859,3.5937,3.5962,3.5982,3.5996,3.5942,3.5918,3.5996,3.5996,3.2277,3.2713,3.3058,3.3386,3.3783,3.3765,3.4018,3.4216,3.4378,3.4576,3.4809,3.4864,3.4918,3.4809,3.4113,3.38,3.3835,3.3817,3.3817,3.3817,3.3817,3.3817,3.3817,3.3817,3.3835,3.3927,3.3927,3.3908,3.3872,3.3853,3.3817,3.3835,3.389,3.3853,3.3872,3.3908,3.3835,3.3908,3.3908,3.3853,3.3835,3.3798,3.356,3.3232,3.3193,3.3028,3.2698,3.2625,3.2625,3.2625,3.2643,3.2643,3.2625,3.2643,3.2808,3.3138,3.3193,3.3358,3.3617,3.3688,3.3688,3.3725,3.3778,3.378,3.3849,3.4237,3.4482,3.4408,3.4721,3.4734,3.4492,3.4681,3.5024,3.5299,3.5436,3.5641,3.5933,3.5967,3.6001,3.6035,3.6035,3.6035,3.6035,3.6035,3.6035,3.5947,3.5743,3.5557,3.5504,3.523,3.523,3.547,3.5572,3.5641,3.5933,3.6035,3.6035,3.6035,3.6035,3.6035,3.6035,3.6035,3.6035,3.6035,3.6035,3.6035,3.6035,3.6016,3.6016,3.6035,3.6035,3.6016,3.5879,3.5947,3.5879,3.3097,3.3474,3.3637,3.3782,3.3927,3.418,3.436,3.4505,3.4739,3.4883,3.4991,3.4991,3.4991,3.4973,3.4698,3.444,3.4183,3.3892,3.3817,3.3817,3.3817,3.3945,3.4165,3.4202,3.4313,3.4568,3.457,3.4551,3.4551,3.457,3.4551,3.4551,3.457,3.4551,3.4551,3.4551,3.4551,3.4587,3.457,3.4551,3.4515,3.433,3.411,3.3963,3.3725,3.3523,3.3376,3.3376,3.3376,3.3376,3.3376,3.3376,3.3376,3.3376,3.3431,3.3544,3.3562,3.3635,3.3764,3.3817,3.3817,3.3835,3.4299,3.4568,3.4694,3.5161,3.5541,3.5592,3.5838,3.5962,3.5848,3.552,3.5352,3.547,3.5694,3.5884,3.5947,3.6035,3.6035,3.6035,3.6035,3.6035,3.6035,3.6035,3.6035,3.5967,3.5728,3.5538,3.5436,3.5162,3.5059,3.5367,3.5504,3.5606,3.5947,3.5982,3.6035,3.6035,3.6035,3.6035,3.6035,3.6035,3.6035,3.6035,3.6035,3.6035,3.6035,3.6035,3.6035,3.5982,3.5982,3.5845,3.5709,3.5709,3.5538,3.4062,3.441,3.4446,3.4501,3.4702,3.4957,3.5066,3.5066,3.5303,3.5376,3.5412,3.5412,3.5376,3.5339,3.5247,3.5046,3.477,3.4403,3.4167,3.4202,3.4167,3.4313,3.4568,3.4605,3.4716,3.4954,3.4991,3.4991,3.4991,3.4991,3.4991,3.4973,3.4991,3.4991,3.4991,3.4991,3.4991,3.4991,3.4991,3.4991,3.4954,3.4716,3.4605,3.4568,3.4295,3.4055,3.3835,3.3817,3.3817,3.3817,3.3817,3.3817,3.3817,3.3817,3.3817,3.3817,3.3892,3.407,3.4211,3.4285,3.4447,3.4587,3.5074,3.5384,3.5438,3.5982,3.6311,3.6437,3.6685,3.6897,3.68,3.6375,3.61,3.6081,3.6254,3.6426,3.6445,3.6411,3.6352,3.6289,3.6269,3.6191,3.6021,3.6035,3.6035,3.6001,3.5709,3.5504,3.5436,3.5196,3.5024,3.5401,3.547,3.5641,3.5879,3.6001,3.6035,3.6035,3.6035,3.6035,3.6035,3.6035,3.6035,3.6035,3.6035,3.6035,3.6035,3.6035,3.5982,3.5982,3.5845,3.5694,3.5538,3.5401,3.523,3.5196,3.5514,3.5587,3.5719,3.5979,3.6016,3.6127,3.6072,3.609,3.6072,3.6054,3.6127,3.6072,3.6072,3.576,3.5577,3.5467,3.5156,3.4936,3.4881,3.4899,3.4918,3.4991,3.4991,3.5028,3.5119,3.5046,3.5046,3.5101,3.5119,3.5119,3.5046,3.5119,3.5156,3.5046,3.5119,3.5064,3.5101,3.5119,3.5083,3.5009,3.5028,3.4991,3.4991,3.4936,3.457,3.3927,3.389,3.3927,3.3908,3.389,3.3853,3.3927,3.3927,3.3872,3.4016,3.4255,3.4596,3.4969,3.5319,3.5646,3.5897,3.6169,3.6188,3.6278,3.6584,3.6855,3.6945,3.7139,3.7347,3.7367,3.7308,3.7211,3.7266,3.7148,3.7148,3.7187,3.7246,3.7129,3.6758,3.666,3.6519,3.6172,3.6094,3.6113,3.5967,3.5709,3.5504,3.547,3.5162,3.5093,3.5367,3.5504,3.5641,3.5811,3.6035,3.6035,3.6035,3.6035,3.6035,3.6035,3.6035,3.6035,3.6035,3.6035,3.6035,3.6035,3.6001,3.5967,3.5879,3.5709,3.547,3.523,3.5024,3.4887,3.5903,3.6015,3.6015,3.6052,3.6201,3.6201,3.6201,3.6201,3.6201,3.6201,3.6201,3.6201,3.6201,3.6182,3.6072,3.6017,3.6017,3.587,3.5522,3.5083,3.5009,3.5156,3.5376,3.5394,3.5577,3.5797,3.5834,3.5797,3.5815,3.5797,3.5834,3.5834,3.5834,3.5797,3.576,3.5852,3.5852,3.5834,3.5834,3.5834,3.5779,3.5522,3.5394,3.5376,3.5138,3.4844,3.4643,3.4625,3.4606,3.4623,3.4625,3.4625,3.4606,3.4625,3.4748,3.5032,3.516,3.5395,3.5769,3.5934,3.6119,3.628,3.6704,3.7,3.7093,3.7593,3.7945,3.7964,3.8147,3.822,3.822,3.822,3.7965,3.7363,3.7305,3.7344,3.7383,3.7344,3.7246,3.7148,3.7109,3.6914,3.6601,3.6465,3.6367,3.6079,3.5767,3.5577,3.5489,3.5249,3.5059,3.5401,3.547,3.5641,3.5845,3.6035,3.6035,3.6035,3.6035,3.6035,3.6035,3.6035,3.6035,3.6035,3.6035,3.6035,3.6035,3.6001,3.5913,3.5743,3.5538,3.523,3.4853,3.4646,3.4508,3.6201,3.6201,3.6201,3.6201,3.6201,3.6201,3.6201,3.6201,3.6201,3.6201,3.6201,3.6201,3.6201,3.6201,3.6201,3.6201,3.6201,3.6201,3.5944,3.5486,3.5431,3.5614,3.5815,3.5834,3.5944,3.6164,3.6201,3.6201,3.6201,3.6201,3.6201,3.6201,3.6201,3.6182,3.6201,3.6201,3.6201,3.6201,3.6182,3.6201,3.6164,3.5962,3.5834,3.5797,3.5595,3.5485,3.5467,3.5431,3.5284,3.5064,3.4991,3.5063,3.5206,3.5224,3.5403,3.5743,3.5963,3.62,3.6577,3.6801,3.695,3.7132,3.754,3.7839,3.7914,3.8384,3.8574,3.8611,3.8591,3.8611,3.8611,3.8611,3.8301,3.7887,3.7812,3.7773,3.7773,3.7773,3.7676,3.7598,3.7519,3.7324,3.7031,3.6929,3.6851,3.6508,3.6195,3.5961,3.5853,3.56,3.5596,3.5626,3.5709,3.5845,3.5967,3.6035,3.6035,3.6035,3.6035,3.6035,3.6035,3.6035,3.6035,3.6035,3.6035,3.6035,3.6035,3.5982,3.5947,3.5675,3.5333,3.5024,3.4646,3.4301,3.4128,3.6201,3.6201,3.6201,3.6201,3.6201,3.6201,3.6201,3.6201,3.6201,3.6201,3.6201,3.6201,3.6201,3.6201,3.6201,3.6201,3.6201,3.6201,3.6182,3.6109,3.6109,3.6109,3.6127,3.6127,3.6164,3.6201,3.6201,3.6201,3.6201,3.6201,3.6201,3.6201,3.6201,3.6201,3.6201,3.6201,3.6201,3.6201,3.6201,3.6201,3.6201,3.6182,3.6182,3.6164,3.6146,3.6109,3.6165,3.622,3.5907,3.5265,3.53,3.5535,3.5658,3.5709,3.5946,3.6396,3.6679,3.7047,3.7434,3.7699,3.802,3.8348,3.8384,3.8611,3.8535,3.8535,3.8611,3.8611,3.8611,3.8611,3.8611,3.8611,3.8535,3.8591,3.8454,3.8474,3.8571,3.8532,3.8301,3.8047,3.7894,3.7757,3.7402,3.7324,3.7285,3.7168,3.686,3.6703,3.6591,3.6312,3.6123,3.6064,3.6089,3.6006,3.6094,3.6035,3.6035,3.6035,3.6035,3.6035,3.6035,3.6035,3.6035,3.6035,3.6001,3.6001,3.5933,3.5879,3.5641,3.5299,3.499,3.4749,3.4439,3.4094,3.3921,3.6201,3.6201,3.6201,3.6201,3.6201,3.6201,3.6201,3.6201,3.6201,3.6201,3.6201,3.6201,3.6201,3.6201,3.6201,3.6201,3.6201,3.6201,3.6201,3.6201,3.6201,3.6201,3.6201,3.6201,3.6201,3.6201,3.6201,3.6201,3.6201,3.6201,3.6201,3.6201,3.6201,3.6201,3.6201,3.6201,3.6201,3.6201,3.6201,3.6201,3.6201,3.6201,3.6201,3.6201,3.6201,3.6349,3.6608,3.6923,3.6867,3.6422,3.6605,3.6788,3.6878,3.6878,3.7041,3.7406,3.7575,3.7853,3.82,3.835,3.8501,3.8574,3.8611,3.8611,3.8611,3.8611,3.8611,3.8611,3.8611,3.8611,3.8611,3.8611,3.8611,3.8611,3.8611,3.8611,3.8611,3.8611,3.8516,3.8418,3.8379,3.8164,3.7891,3.7754,3.7656,3.7422,3.7246,3.7129,3.709,3.6973,3.6719,3.6562,3.6504,3.6289,3.6152,3.6074,3.6035,3.6035,3.6035,3.6035,3.6035,3.6035,3.6035,3.6035,3.5913,3.5879,3.5728,3.5626,3.5249,3.4921,3.4715,3.4474,3.4163,3.3851,3.3851,3.6201,3.6201,3.6201,3.6201,3.6201,3.6201,3.6201,3.6201,3.6201,3.6201,3.6201,3.6201,3.6201,3.6201,3.6201,3.6201,3.6201,3.6201,3.6201,3.6201,3.6201,3.6201,3.6201,3.6201,3.6201,3.6201,3.6201,3.6201,3.6201,3.6201,3.6201,3.6201,3.6201,3.6201,3.6201,3.6201,3.6201,3.6201,3.6201,3.6201,3.6201,3.6201,3.6201,3.6238,3.6349,3.6664,3.7034,3.7439,3.7458,3.7181,3.7292,3.7476,3.7642,3.7642,3.7826,3.8228,3.8265,3.8355,3.8538,3.8611,3.8611,3.8611,3.8611,3.8611,3.8611,3.8611,3.8611,3.8611,3.8611,3.8611,3.8611,3.8611,3.8611,3.8611,3.8611,3.8611,3.8611,3.8611,3.8611,3.8611,3.8591,3.8532,3.8203,3.8184,3.8066,3.7891,3.7695,3.7617,3.7539,3.7422,3.7301,3.7051,3.6894,3.6719,3.6504,3.6387,3.6191,3.6152,3.6035,3.6035,3.6035,3.6035,3.6035,3.6001,3.5879,3.5743,3.5538,3.5318,3.499,3.4715,3.4474,3.4267,3.3955,3.3817,3.3817,3.6201,3.6201,3.6201,3.6201,3.6201,3.6201,3.6201,3.6201,3.6201,3.6201,3.6201,3.6201,3.6201,3.6201,3.6201,3.6201,3.6201,3.6201,3.6201,3.6201,3.6201,3.6201,3.6201,3.6201,3.6201,3.6201,3.6201,3.6201,3.6201,3.6201,3.6201,3.6201,3.6201,3.6201,3.6201,3.6201,3.6201,3.6201,3.6201,3.6201,3.6238,3.6275,3.6367,3.6405,3.6812,3.7107,3.7476,3.7826,3.7899,3.7568,3.7513,3.7733,3.8045,3.8045,3.8228,3.8465,3.8538,3.8574,3.8611,3.8611,3.8611,3.8611,3.8611,3.8611,3.8611,3.8611,3.8611,3.8611,3.8611,3.8611,3.8611,3.8611,3.8611,3.8611,3.8611,3.8611,3.8611,3.8611,3.8611,3.8611,3.8611,3.8611,3.8611,3.8611,3.8591,3.8298,3.8105,3.8027,3.7969,3.7871,3.7656,3.7422,3.7285,3.7187,3.6973,3.6792,3.6484,3.6309,3.6094,3.6035,3.6035,3.6035,3.6035,3.5947,3.5811,3.5606,3.5367,3.5093,3.4749,3.4474,3.4198,3.4059,3.3886,3.3851,3.3817,3.6201,3.6201,3.6201,3.6201,3.6201,3.6201,3.6201,3.6201,3.6201,3.6201,3.6201,3.6201,3.6201,3.6201,3.6201,3.6201,3.6201,3.6201,3.6201,3.6201,3.6201,3.6201,3.6201,3.6201,3.6201,3.6201,3.6201,3.6201,3.6201,3.6201,3.6201,3.6201,3.6201,3.6201,3.6201,3.6201,3.6201,3.6201,3.6201,3.6201,3.6312,3.6497,3.6664,3.6775,3.7329,3.7715,3.7899,3.8246,3.8428,3.8355,3.8319,3.8319,3.8392,3.8448,3.8501,3.8538,3.8611,3.8611,3.8611,3.8611,3.8611,3.8611,3.8611,3.8611,3.8611,3.8611,3.8611,3.8611,3.8611,3.8611,3.8611,3.8611,3.8611,3.8611,3.8611,3.8611,3.8611,3.8611,3.8611,3.8611,3.8611,3.8611,3.8611,3.8611,3.8611,3.8591,3.8516,3.8437,3.834,3.8242,3.8066,3.7812,3.7754,3.7637,3.7305,3.7125,3.6871,3.6562,3.6328,3.6152,3.6152,3.5982,3.5982,3.5879,3.5709,3.547,3.5127,3.4749,3.437,3.4163,3.399,3.3921,3.3851,3.3817,3.3817,3.6201,3.6201,3.6201,3.6201,3.6201,3.6201,3.6201,3.6201,3.6201,3.6201,3.6201,3.6201,3.6201,3.6201,3.6201,3.6201,3.6201,3.6201,3.6201,3.6201,3.6201,3.6201,3.6201,3.6201,3.6201,3.6201,3.6201,3.6201,3.6201,3.6201,3.6201,3.6201,3.6201,3.6201,3.6201,3.6201,3.6201,3.6201,3.6201,3.6275,3.6516,3.6664,3.7071,3.7311,3.7789,3.8045,3.8302,3.8465,3.8574,3.8611,3.8611,3.8611,3.8611,3.8611,3.8611,3.8611,3.8611,3.8611,3.8611,3.8611,3.8611,3.8611,3.8611,3.8611,3.8611,3.8611,3.8611,3.8611,3.8611,3.8611,3.8611,3.8611,3.8611,3.8611,3.8611,3.8611,3.8611,3.8611,3.8611,3.8611,3.8611,3.8611,3.8611,3.8611,3.8611,3.8611,3.8611,3.8532,3.8552,3.8418,3.8418,3.8262,3.8242,3.8066,3.7695,3.7402,3.7168,3.6914,3.666,3.6504,3.646,3.6196,3.5913,3.5743,3.5538,3.5093,3.4749,3.437,3.4128,3.399,3.3886,3.3817,3.3817,3.3817,3.3817,3.6201,3.6201,3.6201,3.6201,3.6201,3.6201,3.6201,3.6201,3.6201,3.6201,3.6201,3.6201,3.6201,3.6201,3.6201,3.6201,3.6201,3.6201,3.6201,3.6201,3.6201,3.6201,3.6201,3.6201,3.6201,3.6201,3.6201,3.6201,3.6201,3.6201,3.6201,3.6201,3.6201,3.6201,3.6201,3.6201,3.6238,3.6367,3.6349,3.6534,3.6886,3.6997,3.7421,3.7936,3.8082,3.8246,3.8465,3.8574,3.8611,3.8611,3.8611,3.8611,3.8611,3.8611,3.8611,3.8611,3.8611,3.8611,3.8611,3.8611,3.8611,3.8611,3.8611,3.8611,3.8611,3.8611,3.8611,3.8611,3.8611,3.8611,3.8611,3.8611,3.8611,3.8611,3.8611,3.8611,3.8611,3.8611,3.8611,3.8611,3.8611,3.8611,3.8611,3.8611,3.8611,3.8611,3.8611,3.8611,3.8611,3.8611,3.8535,3.8516,3.8437,3.8418,3.8086,3.7734,3.75,3.7324,3.7051,3.691,3.6758,3.6487,3.6135,3.5596,3.5264,3.4853,3.4474,3.4198,3.399,3.3851,3.3817,3.3817,3.3817,3.3817,3.3817,3.6201,3.6201,3.6201,3.6201,3.6201,3.6201,3.6201,3.6201,3.6201,3.6201,3.6201,3.6201,3.6201,3.6201,3.6201,3.6201,3.6201,3.6201,3.6201,3.6201,3.6201,3.6201,3.6201,3.6201,3.6201,3.6201,3.6201,3.6201,3.6201,3.6201,3.6201,3.6201,3.6201,3.6201,3.6201,3.6201,3.6405,3.6627,3.6701,3.6923,3.7255,3.7586,3.7916,3.8392,3.8448,3.8501,3.8538,3.8611,3.8611,3.8611,3.8611,3.8611,3.8611,3.8611,3.8611,3.8611,3.8611,3.8611,3.8611,3.8611,3.8611,3.8611,3.8611,3.8611,3.8611,3.8611,3.8611,3.8611,3.8611,3.8611,3.8611,3.8611,3.8611,3.8611,3.8611,3.8611,3.8611,3.8611,3.8611,3.8611,3.8611,3.8611,3.8611,3.8611,3.8611,3.8611,3.8611,3.8611,3.8611,3.8611,3.8611,3.8591,3.8591,3.8591,3.8513,3.8125,3.7796,3.7754,3.7519,3.7266,3.7082,3.6816,3.6428,3.5831,3.5264,3.4806,3.4408,3.4043,3.3921,3.3817,3.3817,3.3817,3.3817,3.3817,3.3817,3.6201,3.6201,3.6201,3.6201,3.6201,3.6201,3.6201,3.6201,3.6201,3.6201,3.6201,3.6201,3.6201,3.6201,3.6201,3.6201,3.6201,3.6201,3.6201,3.6201,3.6201,3.6201,3.6201,3.6201,3.6201,3.6201,3.6201,3.6201,3.6201,3.6201,3.6201,3.6201,3.6201,3.6201,3.6238,3.6423,3.659,3.6812,3.7034,3.7292,3.7715,3.8119,3.8428,3.8538,3.8611,3.8611,3.8611,3.8611,3.8611,3.8611,3.8611,3.8611,3.8611,3.8611,3.8611,3.8611,3.8611,3.8611,3.8611,3.8611,3.8611,3.8611,3.8611,3.8611,3.8611,3.8611,3.8611,3.8611,3.8611,3.8611,3.8611,3.8611,3.8611,3.8611,3.8611,3.8611,3.8611,3.8611,3.8611,3.8611,3.8611,3.8611,3.8611,3.8611,3.8611,3.8611,3.8611,3.8611,3.8611,3.8611,3.8611,3.8611,3.8611,3.8611,3.8611,3.8379,3.8144,3.8086,3.7933,3.7679,3.7381,3.7093,3.6614,3.6039,3.5473,3.4883,3.4306,3.387,3.3835,3.3835,3.3817,3.3817,3.3817,3.3817,3.3817,3.6201,3.6201,3.6201,3.6201,3.6201,3.6201,3.6201,3.6201,3.6201,3.6201,3.6201,3.6201,3.6201,3.6201,3.6201,3.6201,3.6201,3.6201,3.6201,3.6201,3.6201,3.6201,3.6201,3.6201,3.6201,3.6201,3.6201,3.6201,3.6201,3.6201,3.6201,3.6238,3.6238,3.6312,3.6386,3.6738,3.6886,3.7144,3.7329,3.7715,3.8119,3.8392,3.8611,3.8611,3.8611,3.8611,3.8611,3.8611,3.8611,3.8611,3.8611,3.8611,3.8611,3.8611,3.8611,3.8611,3.8611,3.8611,3.8611,3.8611,3.8611,3.8611,3.8611,3.8611,3.8611,3.8611,3.8611,3.8611,3.8611,3.8611,3.8611,3.8611,3.8611,3.8611,3.8611,3.8611,3.8611,3.8611,3.8611,3.8611,3.8611,3.8611,3.8611,3.8611,3.8611,3.8611,3.8611,3.8611,3.8611,3.8611,3.8611,3.8611,3.8611,3.8611,3.8611,3.8611,3.8437,3.8379,3.8245,3.8069,3.7662,3.7314,3.6813,3.6247,3.5669,3.5071,3.4399,3.3963,3.4037,3.4037,3.3908,3.3835,3.3817,3.3817,3.3817,3.6201,3.6201,3.6201,3.6201,3.6201,3.6201,3.6201,3.6201,3.6201,3.6201,3.6201,3.6201,3.6201,3.6201,3.6201,3.6201,3.6201,3.6201,3.6201,3.6201,3.6201,3.6201,3.6201,3.6201,3.6201,3.6201,3.6201,3.6201,3.6238,3.6238,3.6238,3.6275,3.6553,3.6738,3.6775,3.7144,3.7476,3.7789,3.7899,3.8119,3.8428,3.8538,3.8574,3.8611,3.8611,3.8611,3.8611,3.8611,3.8611,3.8611,3.8611,3.8611,3.8611,3.8611,3.8611,3.8611,3.8611,3.8611,3.8611,3.8611,3.8611,3.8611,3.8611,3.8611,3.8611,3.8611,3.8611,3.8611,3.8611,3.8611,3.8611,3.8611,3.8611,3.8611,3.8611,3.8611,3.8611,3.8611,3.8611,3.8611,3.8611,3.8611,3.8611,3.8611,3.8611,3.8611,3.8611,3.8611,3.8611,3.8611,3.8611,3.8611,3.8611,3.8611,3.8611,3.8611,3.8611,3.8611,3.8496,3.8326,3.7902,3.7477,3.6986,3.6434,3.5867,3.5447,3.5044,3.4715,3.4458,3.4257,3.4165,3.3982,3.3817,3.3817,3.3835,3.6201,3.6201,3.6201,3.6201,3.6201,3.6201,3.6201,3.6201,3.6201,3.6201,3.6201,3.6201,3.6201,3.6201,3.6201,3.6201,3.6201,3.6201,3.6201,3.6201,3.6201,3.6201,3.6201,3.6201,3.6201,3.6201,3.6238,3.6386,3.6386,3.6349,3.6275,3.6553,3.6738,3.6923,3.7144,3.7568,3.7789,3.8009,3.8228,3.8428,3.8574,3.8611,3.8611,3.8611,3.8611,3.8611,3.8611,3.8611,3.8611,3.8611,3.8611,3.8611,3.8611,3.8611,3.8611,3.8611,3.8611,3.8611,3.8611,3.8611,3.8611,3.8611,3.8611,3.8611,3.8611,3.8611,3.8611,3.8611,3.8611,3.8611,3.8611,3.8611,3.8611,3.8611,3.8611,3.8611,3.8611,3.8611,3.8611,3.8611,3.8611,3.8611,3.8611,3.8611,3.8611,3.8611,3.8611,3.8611,3.8611,3.8611,3.8611,3.8611,3.8611,3.8611,3.8611,3.8611,3.8611,3.8611,3.8611,3.837,3.8044,3.762,3.7085,3.6662,3.622,3.587,3.5614,3.5247,3.4825,3.4605,3.4422,3.4275,3.4128,3.3853,3.3853,3.6201,3.6201,3.6201,3.6201,3.6201,3.6201,3.6201,3.6201,3.6201,3.6201,3.6201,3.6201,3.6201,3.6201,3.6201,3.6201,3.6201,3.6201,3.6201,3.6201,3.6201,3.6201,3.6201,3.6201,3.6201,3.6201,3.6349,3.6497,3.6608,3.6645,3.6738,3.696,3.7144,3.7292,3.7568,3.7936,3.8192,3.8228,3.8428,3.8574,3.8611,3.8611,3.8611,3.8611,3.8611,3.8611,3.8611,3.8611,3.8611,3.8611,3.8611,3.8611,3.8611,3.8611,3.8611,3.8611,3.8611,3.8611,3.8611,3.8611,3.8611,3.8611,3.8611,3.8611,3.8611,3.8611,3.8611,3.8611,3.8611,3.8611,3.8611,3.8611,3.8611,3.8611,3.8611,3.8611,3.8611,3.8611,3.8611,3.8611,3.8611,3.8611,3.8611,3.8611,3.8611,3.8611,3.8611,3.8611,3.8611,3.8611,3.8611,3.8611,3.8611,3.8611,3.8611,3.8611,3.8611,3.8574,3.8574,3.8319,3.7899,3.7568,3.7125,3.6775,3.6386,3.6183,3.5907,3.5522,3.5174,3.5027,3.488,3.4678,3.4458,3.4165,3.4,3.6201,3.6201,3.6201,3.6201,3.6201,3.6201,3.6201,3.6201,3.6201,3.6201,3.6201,3.6201,3.6201,3.6201,3.6201,3.6201,3.6201,3.6201,3.6201,3.6201,3.6201,3.6238,3.6238,3.6275,3.6275,3.6367,3.659,3.6775,3.6886,3.7218,3.7255,3.7402,3.7605,3.7826,3.8045,3.8282,3.8484,3.8484,3.8574,3.8611,3.8611,3.8611,3.8611,3.8611,3.8611,3.8611,3.8611,3.8611,3.8611,3.8611,3.8611,3.8611,3.8611,3.8611,3.8611,3.8611,3.8611,3.8611,3.8611,3.8611,3.8611,3.8611,3.8611,3.8611,3.8611,3.8611,3.8611,3.8611,3.8611,3.8611,3.8611,3.8611,3.8611,3.8611,3.8611,3.8611,3.8611,3.8611,3.8611,3.8611,3.8611,3.8611,3.8611,3.8611,3.8611,3.8611,3.8611,3.8611,3.8611,3.8611,3.8611,3.8611,3.8611,3.8611,3.8611,3.8611,3.8611,3.8538,3.8501,3.8099,3.7642,3.7329,3.7034,3.6645,3.6275,3.6201,3.6164,3.5834,3.5541,3.5449,3.5284,3.5009,3.4807,3.455,3.4422,3.6201,3.6201,3.6479,3.6442,3.6201,3.6201,3.6201,3.6201,3.6201,3.6201,3.6201,3.6201,3.6201,3.6201,3.6201,3.6201,3.6201,3.6201,3.6238,3.6201,3.6201,3.6367,3.6423,3.6608,3.6682,3.6886,3.7107,3.7329,3.7568,3.7715,3.7916,3.8082,3.8082,3.8192,3.8355,3.8501,3.8574,3.8611,3.8611,3.8611,3.8611,3.8611,3.8611,3.8611,3.8611,3.8611,3.8611,3.8611,3.8611,3.8611,3.8611,3.8611,3.8611,3.8611,3.8611,3.8611,3.8611,3.8611,3.8611,3.8611,3.8611,3.8611,3.8611,3.8611,3.8611,3.8611,3.8611,3.8611,3.8611,3.8611,3.8611,3.8611,3.8611,3.8611,3.8611,3.8611,3.8611,3.8611,3.8611,3.8611,3.8611,3.8611,3.8611,3.8611,3.8611,3.8611,3.8611,3.8611,3.8611,3.8611,3.8611,3.8611,3.8611,3.8611,3.8611,3.8611,3.8611,3.8501,3.8411,3.7972,3.7495,3.7107,3.6812,3.6423,3.6201,3.6201,3.6164,3.6072,3.5925,3.5834,3.5577,3.5284,3.5083,3.4935,3.4844,3.659,3.659,3.6849,3.6738,3.6405,3.6516,3.6534,3.6534,3.6571,3.6553,3.6553,3.6553,3.6553,3.6553,3.6571,3.6571,3.6608,3.6627,3.659,3.6627,3.6645,3.6738,3.6886,3.6997,3.7107,3.7384,3.7568,3.7752,3.7899,3.8082,3.8302,3.8355,3.8355,3.8392,3.8501,3.8611,3.8611,3.8611,3.8611,3.8611,3.8611,3.8611,3.8611,3.8611,3.8611,3.8611,3.8611,3.8611,3.8611,3.8611,3.8611,3.8611,3.8611,3.8611,3.8611,3.8611,3.8611,3.8611,3.8611,3.8611,3.8611,3.8611,3.8611,3.8611,3.8611,3.8611,3.8611,3.8611,3.8611,3.8611,3.8611,3.8611,3.8611,3.8611,3.8611,3.8611,3.8611,3.8611,3.8611,3.8611,3.8611,3.8611,3.8611,3.8611,3.8611,3.8611,3.8611,3.8611,3.8611,3.8611,3.8611,3.8611,3.8611,3.8611,3.8611,3.8611,3.8574,3.8501,3.8319,3.7936,3.7495,3.7034,3.6664,3.6349,3.6201,3.6201,3.6164,3.6127,3.6146,3.6164,3.5907,3.5614,3.5577,3.543,3.5284,3.7329,3.7365,3.7365,3.7144,3.6886,3.7181,3.7292,3.7218,3.7255,3.7255,3.7237,3.7255,3.7255,3.7274,3.7181,3.7144,3.7181,3.7218,3.7218,3.7181,3.7107,3.7311,3.7384,3.7402,3.7476,3.7513,3.7789,3.8009,3.8045,3.8338,3.8538,3.8574,3.8538,3.8538,3.8611,3.8611,3.8611,3.8611,3.8611,3.8611,3.8611,3.8611,3.8611,3.8611,3.8611,3.8611,3.8611,3.8611,3.8611,3.8611,3.8611,3.8611,3.8611,3.8611,3.8611,3.8611,3.8611,3.8611,3.8611,3.8611,3.8611,3.8611,3.8611,3.8611,3.8611,3.8611,3.8611,3.8611,3.8611,3.8611,3.8611,3.8611,3.8611,3.8611,3.8611,3.8611,3.8611,3.8611,3.8611,3.8611,3.8611,3.8611,3.8611,3.8611,3.8611,3.8611,3.8611,3.8611,3.8611,3.8611,3.8611,3.8611,3.8611,3.8611,3.8611,3.8611,3.8574,3.8501,3.8209,3.7789,3.7384,3.696,3.659,3.6275,3.6201,3.6201,3.6201,3.6201,3.6201,3.6201,3.6201,3.6036,3.5999,3.5907,3.5705,3.7365,3.7421,3.7679,3.7715,3.7605,3.7439,3.7365,3.7365,3.7365,3.7365,3.7365,3.7365,3.7365,3.7365,3.7402,3.7439,3.7439,3.7365,3.7365,3.7421,3.7439,3.7605,3.7715,3.7826,3.7916,3.8173,3.8355,3.8355,3.8392,3.8538,3.8574,3.8611,3.8611,3.8611,3.8611,3.8611,3.8611,3.8611,3.8611,3.8611,3.8611,3.8611,3.8611,3.8611,3.8611,3.8611,3.8611,3.8611,3.8611,3.8611,3.8611,3.8611,3.8611,3.8611,3.8611,3.8611,3.8611,3.8611,3.8611,3.8611,3.8611,3.8611,3.8611,3.8611,3.8611,3.8611,3.8611,3.8611,3.8611,3.8611,3.8611,3.8611,3.8611,3.8611,3.8611,3.8611,3.8611,3.8611,3.8611,3.8611,3.8611,3.8611,3.8611,3.8611,3.8611,3.8611,3.8611,3.8611,3.8611,3.8611,3.8611,3.8611,3.8611,3.8611,3.8611,3.8611,3.8611,3.8538,3.8136,3.7605,3.72,3.6849,3.6553,3.6201,3.6201,3.6201,3.6201,3.6201,3.6201,3.6201,3.6201,3.6201,3.6127,3.6091,3.6054,3.7806,3.7843,3.8119,3.8192,3.8192,3.7916,3.7806,3.7806,3.7806,3.7806,3.7806,3.7806,3.7862,3.7806,3.7806,3.7806,3.7806,3.7806,3.7806,3.7806,3.7806,3.799,3.8136,3.8228,3.8319,3.8574,3.8611,3.8574,3.8574,3.8574,3.8611,3.8611,3.8611,3.8611,3.8611,3.8611,3.8611,3.8611,3.8611,3.8611,3.8611,3.8611,3.8611,3.8611,3.8611,3.8611,3.8611,3.8611,3.8611,3.8611,3.8611,3.8611,3.8611,3.8611,3.8611,3.8611,3.8611,3.8611,3.8611,3.8611,3.8611,3.8611,3.8611,3.8611,3.8611,3.8611,3.8611,3.8611,3.8611,3.8611,3.8611,3.8611,3.865,3.865,3.8689,3.8689,3.8689,3.8689,3.865,3.865,3.8611,3.8611,3.8611,3.8611,3.8611,3.8611,3.8611,3.8611,3.8611,3.8611,3.8611,3.8611,3.8611,3.8611,3.8611,3.8611,3.8611,3.8611,3.8063,3.7458,3.7144,3.6849,3.6497,3.6201,3.6201,3.6201,3.6201,3.6201,3.6201,3.6201,3.6201,3.6201,3.6201,3.6201,3.6201,3.8574,3.8611,3.8611,3.8574,3.8574,3.8501,3.8538,3.8538,3.8538,3.8538,3.8574,3.8501,3.8465,3.8538,3.8538,3.8501,3.8465,3.8465,3.8465,3.8501,3.8392,3.8501,3.8501,3.8538,3.8538,3.8574,3.8611,3.8611,3.8611,3.8611,3.8611,3.8611,3.8611,3.8611,3.8611,3.8611,3.8611,3.8611,3.8611,3.8611,3.8611,3.8611,3.8611,3.8611,3.8611,3.8611,3.8611,3.8611,3.8611,3.8611,3.8611,3.8611,3.8611,3.8611,3.8611,3.8611,3.8611,3.8611,3.8611,3.8611,3.8611,3.8611,3.8611,3.8611,3.8611,3.8611,3.8611,3.8611,3.8611,3.8611,3.8611,3.8669,3.8728,3.8747,3.8769,3.8806,3.8806,3.8787,3.8728,3.8708,3.8613,3.863,3.8611,3.8611,3.865,3.8611,3.8611,3.8611,3.8611,3.8611,3.8611,3.8611,3.8611,3.8611,3.8611,3.8611,3.8611,3.8611,3.7953,3.7384,3.7107,3.6812,3.6423,3.6201,3.6201,3.6201,3.6201,3.6201,3.6201,3.6201,3.6201,3.6201,3.6201,3.6201,3.6201,3.8611,3.8611,3.8611,3.8611,3.8611,3.8611,3.8611,3.8611,3.8611,3.8611,3.8611,3.8611,3.8611,3.8611,3.8611,3.8611,3.8611,3.8611,3.8574,3.8611,3.8611,3.8611,3.8611,3.8611,3.8611,3.8611,3.8611,3.8611,3.8611,3.8611,3.8611,3.8611,3.8611,3.8611,3.8611,3.8611,3.8611,3.8611,3.8611,3.8611,3.8611,3.8611,3.8611,3.8611,3.8611,3.8611,3.8611,3.8611,3.8611,3.8611,3.8611,3.8611,3.8611,3.8611,3.8611,3.8611,3.8611,3.8611,3.8611,3.863,3.8669,3.8708,3.8689,3.8611,3.8611,3.8669,3.8689,3.8689,3.8787,3.8845,3.8923,3.8962,3.8984,3.9062,3.9141,3.9258,3.9238,3.9121,3.9082,3.9004,3.8926,3.875,3.8767,3.8689,3.8728,3.865,3.8611,3.8611,3.8611,3.8611,3.8611,3.8611,3.8611,3.8611,3.8611,3.8611,3.8611,3.8501,3.788,3.7365,3.7181,3.6886,3.6386,3.6201,3.6201,3.6201,3.6201,3.6201,3.6201,3.6201,3.6201,3.6201,3.6201,3.6201,3.6201,3.8611,3.8611,3.8611,3.8611,3.8611,3.8611,3.8611,3.8611,3.8611,3.8611,3.8611,3.8611,3.8611,3.8611,3.8611,3.8611,3.8611,3.8611,3.8611,3.8611,3.8611,3.8611,3.8611,3.8611,3.8611,3.8611,3.8611,3.8611,3.8611,3.8611,3.8611,3.8611,3.8611,3.8611,3.8611,3.8611,3.8611,3.8611,3.8611,3.8611,3.8611,3.8611,3.8611,3.8611,3.8611,3.8611,3.8611,3.8611,3.8611,3.8611,3.8611,3.8611,3.8611,3.8611,3.8611,3.8611,3.8611,3.8728,3.8809,3.8848,3.8926,3.9023,3.9062,3.9121,3.9043,3.9043,3.8945,3.8906,3.9043,3.9197,3.9219,3.9297,3.9394,3.9473,3.9648,3.9844,3.9746,3.9609,3.9531,3.9453,3.9297,3.9082,3.8965,3.8867,3.8767,3.8669,3.8611,3.8611,3.8611,3.8611,3.8611,3.8611,3.8611,3.8611,3.8611,3.8611,3.8611,3.8428,3.7843,3.7439,3.7292,3.6886,3.6349,3.6201,3.6201,3.6201,3.6201,3.6201,3.6201,3.6201,3.6201,3.6201,3.6201,3.6201,3.6201,3.8611,3.8611,3.8611,3.8611,3.8611,3.8611,3.8611,3.8611,3.8611,3.8611,3.8611,3.8611,3.8611,3.8611,3.8611,3.8611,3.8611,3.8611,3.8611,3.8611,3.8611,3.8611,3.8611,3.8611,3.8611,3.8611,3.8611,3.8611,3.8611,3.8611,3.8611,3.8611,3.8611,3.8611,3.8611,3.8611,3.8611,3.8611,3.8611,3.8611,3.8611,3.8611,3.8611,3.8611,3.8611,3.8611,3.8611,3.8611,3.8611,3.8611,3.8611,3.8611,3.8611,3.8708,3.8708,3.8787,3.8865,3.9023,3.9199,3.9258,3.9453,3.9648,3.9883,3.9726,3.9551,3.9414,3.9297,3.9297,3.9434,3.9512,3.959,3.9766,3.9902,4.0,4.0137,4.0293,4.0293,4.0098,3.9883,3.9785,3.9629,3.9434,3.9355,3.9277,3.9238,3.8906,3.8865,3.8884,3.8865,3.8865,3.8728,3.8728,3.863,3.863,3.8611,3.8611,3.8611,3.8319,3.7843,3.7513,3.7365,3.6849,3.6238,3.6201,3.6201,3.6201,3.6201,3.6201,3.6201,3.6201,3.6201,3.6201,3.6201,3.6201,3.6201,3.8611,3.8611,3.8611,3.8611,3.8611,3.8611,3.8611,3.8611,3.8611,3.8611,3.8611,3.8611,3.8611,3.8611,3.8611,3.8611,3.8611,3.8611,3.8611,3.8611,3.8611,3.8611,3.8611,3.8611,3.8611,3.8611,3.8611,3.8611,3.8611,3.8611,3.8611,3.8611,3.8611,3.8611,3.8611,3.8611,3.8611,3.8611,3.8611,3.8611,3.8611,3.8611,3.8611,3.8611,3.8611,3.8611,3.8611,3.8611,3.8611,3.8611,3.8611,3.8611,3.8611,3.8904,3.9023,3.9101,3.9316,3.9531,3.9668,3.9726,3.9844,3.9883,3.9961,3.9922,3.9844,3.9766,3.9746,3.9785,3.9844,3.9922,4.0019,4.0234,4.0391,4.0508,4.0605,4.0703,4.0839,4.0547,4.0254,4.0117,3.998,3.9863,3.9785,3.9707,3.9687,3.9648,3.9609,3.9609,3.9531,3.9453,3.9062,3.8965,3.8689,3.863,3.863,3.8611,3.8611,3.8465,3.8082,3.7789,3.7439,3.6812,3.6201,3.6201,3.6201,3.6201,3.6201,3.6201,3.6201,3.6201,3.6201,3.6201,3.6201,3.6201,3.6201,3.8611,3.8611,3.8611,3.8611,3.8611,3.8611,3.8611,3.8611,3.8611,3.8611,3.8611,3.8611,3.8611,3.8611,3.8611,3.8611,3.8611,3.8611,3.8611,3.8611,3.8611,3.8611,3.8611,3.8611,3.8611,3.8611,3.8611,3.8611,3.8611,3.8611,3.8611,3.8611,3.8611,3.8611,3.8611,3.8611,3.8611,3.8611,3.8611,3.8611,3.8611,3.8611,3.8611,3.8611,3.8611,3.8611,3.8611,3.8611,3.8611,3.8611,3.8611,3.875,3.8848,3.9062,3.9297,3.9492,3.9726,3.998,4.0117,4.0195,4.0254,4.0312,4.043,4.0547,4.0566,4.0508,4.0332,4.0371,4.0527,4.0605,4.0663,4.0781,4.082,4.0879,4.0918,4.1015,4.1054,4.0898,4.0742,4.0684,4.0566,4.0449,4.0332,4.0156,4.0078,3.9805,3.9883,3.9941,3.9941,4.0039,3.9648,3.9316,3.9082,3.8767,3.863,3.8611,3.8611,3.8448,3.8284,3.7752,3.7255,3.6645,3.6201,3.6201,3.6201,3.6201,3.6201,3.6201,3.6201,3.6201,3.6201,3.6201,3.6201,3.6201,3.6201,3.8611,3.8611,3.8611,3.8611,3.8611,3.8611,3.8611,3.8611,3.8611,3.8611,3.8611,3.8611,3.8611,3.8611,3.8611,3.8611,3.8611,3.8611,3.8611,3.8611,3.8611,3.8611,3.8611,3.8611,3.8611,3.8611,3.8611,3.8611,3.8611,3.8611,3.8611,3.8611,3.8611,3.8611,3.8611,3.8611,3.8611,3.8611,3.8611,3.8611,3.8611,3.8611,3.8611,3.8611,3.8611,3.8611,3.8611,3.8611,3.8611,3.8669,3.8708,3.8867,3.916,3.9394,3.9687,3.9922,4.0156,4.0371,4.0527,4.0605,4.0801,4.0996,4.1172,4.1191,4.1172,4.1035,4.0859,4.0879,4.1074,4.1132,4.1152,4.1152,4.1172,4.1133,4.1191,4.1211,4.1191,4.1191,4.1172,4.1113,4.1016,4.0879,4.0781,4.0625,4.043,4.0137,4.0039,4.0059,4.0137,4.0293,4.0215,3.9941,3.9707,3.9297,3.8943,3.8767,3.8826,3.8674,3.8493,3.7773,3.7107,3.6738,3.6386,3.6201,3.6201,3.6201,3.6201,3.6201,3.6201,3.6201,3.6201,3.6201,3.6201,3.6201,3.6201,3.8611,3.8611,3.8611,3.8611,3.8611,3.8611,3.8611,3.8611,3.8611,3.8611,3.8611,3.8611,3.8611,3.8611,3.8611,3.8611,3.8611,3.8611,3.8611,3.8611,3.8611,3.8611,3.8611,3.8611,3.8611,3.8611,3.8611,3.8611,3.8611,3.8611,3.8611,3.8611,3.8611,3.8611,3.8611,3.8611,3.8611,3.8611,3.8611,3.8611,3.8611,3.8611,3.8611,3.8611,3.8611,3.8611,3.8611,3.8611,3.8611,3.8708,3.8923,3.9119,3.9394,3.9785,4.0156,4.0391,4.0605,4.0781,4.0918,4.0937,4.1152,4.1152,4.1211,4.1211,4.1191,4.1191,4.1035,4.1035,4.1191,4.1191,4.1191,4.1191,4.1191,4.1191,4.1211,4.1211,4.1211,4.1211,4.1191,4.1191,4.1152,4.1113,4.1093,4.0957,4.0937,4.0781,4.0761,4.0781,4.0722,4.0761,4.0761,4.0508,4.0235,4.0059,3.9726,3.9219,3.9121,3.8967,3.8664,3.8033,3.7459,3.6997,3.6701,3.6423,3.6238,3.6201,3.6201,3.6201,3.6201,3.6201,3.6201,3.6201,3.6201,3.6201,3.6201]},{"header":{"parameterUnit":"m.s-1","parameterCategory":1,"la1":31.0,"la2":29.5877,"lo1":-88.7671,"lo2":-86.6584,"dy":0.0162,"dx":0.0185,"nx":115,"ny":88,"refTime":"2023-05-29T00:00:00:Z","depth":0,"parameterNumber":3,"parameterNumberName":"V-component_of_WINDS"},"data":[0.0,0.0,0.0,0.0,0.0,0.0,0.0,0.0,0.0,0.0,0.0,0.0,0.0,0.0,0.0,0.0,0.0,0.0,0.0,0.0,0.0,0.0,0.0,0.0,0.0,0.0,0.0,0.0,0.0,0.0,0.0,0.0,0.0,0.0,0.0,0.0,0.0,0.0,0.0,0.0,0.0,0.0,0.0,0.0,0.0,0.0,0.0,0.0,0.0,0.0,0.0,0.0,0.0,0.0,0.0,0.0,0.0,0.0,0.0,0.0,0.0,0.0,0.0,0.0,0.0,0.0,0.0,0.0,0.0,0.0,0.0,0.0,0.0,0.0,0.0,0.0,0.0,0.0,0.0,0.0,0.0,0.0,0.0,0.0,0.0,0.0,0.0,0.0,0.0,0.0,0.0,0.0,0.0,0.0,0.0,0.0,0.0,0.0,0.0,0.0,0.0,0.0,0.0,0.0,0.0,0.0,0.0,0.0,0.0,0.0,0.0,0.0,0.0,0.0,0.0,0.0,0.0,0.0,0.0,0.0,0.0,0.0,0.0,0.0,0.0,0.0,0.0,0.0,0.0,0.0,0.0,0.0,0.0,0.0,0.0,0.0,0.0,0.0,0.0,0.0,0.0,0.0,0.0,0.0,0.0,0.0,0.0,0.0,0.0,0.0,0.0,0.0,0.0,0.0,0.0,0.0,0.0,0.0,0.0,0.0,0.0,0.0,0.0,0.0,0.0,0.0,0.0,0.0,0.0,0.0,0.0,0.0,0.0,0.0,0.0,0.0,0.0,0.0,0.0,0.0,0.0,0.0,0.0,0.0,0.0,0.0,0.0,0.0,0.0,0.0,0.0,0.0,0.0,0.0,0.0,0.0,0.0,0.0,0.0,0.0,0.0,0.0,0.0,0.0,0.0,0.0,0.0,0.0,0.0,0.0,0.0,0.0,0.0,0.0,0.0,0.0,0.0,0.0,0.0,0.0,0.0,0.0,0.0,0.0,0.0,0.0,0.0,0.0,0.0,0.0,0.0,0.0,0.0,0.0,0.0,0.0,0.0,0.0,0.0,0.0,0.0,0.0,0.0,0.0,0.0,0.0,0.0,0.0,0.0,0.0,0.0,0.0,0.0,0.0,0.0,0.0,0.0,0.0,0.0,0.0,0.0,0.0,0.0,0.0,0.0,0.0,0.0,0.0,0.0,0.0,0.0,0.0,0.0,0.0,0.0,0.0,0.0,0.0,0.0,0.0,0.0,0.0,0.0,0.0,0.0,0.0,0.0,0.0,0.0,0.0,0.0,0.0,0.0,0.0,0.0,0.0,0.0,0.0,0.0,0.0,0.0,0.0,0.0,0.0,0.0,0.0,0.0,0.0,0.0,0.0,0.0,0.0,0.0,0.0,0.0,0.0,0.0,0.0,0.0,0.0,0.0,0.0,0.0,0.0,0.0,0.0,0.0,0.0,0.0,0.0,0.0,0.0,0.0,0.0,0.0,0.0,0.0,0.0,0.0,0.0,0.0,0.0,0.0,0.0,0.0,0.0,0.0,0.0,0.0,0.0,0.0,0.0,0.0,0.0,0.0,0.0,0.0,0.0,0.0,0.0,0.0,0.0,0.0,0.0,0.0,0.0,0.0,0.0,0.0,0.0,0.0,0.0,0.0,0.0,0.0,0.0,0.0,0.0,0.0,0.0,0.0,0.0,0.0,0.0,0.0,0.0,0.0,0.0,0.0,0.0,0.0,0.0,0.0,0.0,0.0,0.0,0.0,0.0,0.0,0.0,0.0,0.0,0.0,0.0,0.0,0.0,0.0,0.0,0.0,0.0,0.0,0.0,0.0,0.0,0.0,0.0,0.0,0.0,0.0,0.0,0.0,0.0,0.0,0.0,0.0,0.0,0.0,0.0,0.0,0.0,0.0,0.0,0.0,0.0,0.0,0.0,0.0,0.0,0.0,0.0,0.0,0.0,0.0,0.0,0.0,0.0,0.0,0.0,0.0,0.0,0.0,0.0,0.0,0.0,0.0,0.0,0.0,0.0,0.0,0.0,0.0,0.0,0.0,0.0,0.0,0.0,0.0,0.0,0.0,0.0,0.0,0.0,0.0,0.0,0.0,0.0,0.0,0.0,0.0,0.0,0.0,0.0,0.0,0.0,0.0,0.0,0.0,0.0,0.0,0.0,0.0,0.0,0.0,0.0,0.0,0.0,0.0,0.0,0.0,0.0,0.0,0.0,0.0,0.0,0.0,0.0,0.0,0.0,0.0,0.0,0.0,0.0,0.0,0.0,0.0,0.0,0.0,0.0,0.0,0.0,0.0,0.0,0.0,0.0,0.0,0.0,0.0,0.0,0.0,0.0,0.0,0.0,0.0,0.0,0.0,0.0,0.0,0.0,0.0,0.0,0.0,0.0,0.0,0.0,0.0,0.0,0.0,0.0,0.0,0.0,0.0,0.0,0.0,0.0,0.0,0.0,0.0,0.0,0.0,0.0,0.0,0.0,0.0,0.0,0.0,0.0,0.0,0.0,0.0,0.0,0.0,0.0,0.0,0.0,0.0,0.0,0.0,0.0,0.0,0.0,0.0,0.0,0.0,0.0,0.0,0.0,0.0,0.0,0.0,0.0,0.0,0.0,0.0,0.0,0.0,0.0,0.0,0.0,0.0,0.0,0.0,0.0,0.0,0.0,0.0,0.0,0.0,0.0,0.0,0.0,0.0,0.0,0.0,0.0,0.0,0.0,0.0,0.0,0.0,0.0,0.0,0.0,0.0,0.0,0.0,0.0,0.0,0.0,0.0,0.0,0.0,0.0,0.0,0.0,0.0,0.0,0.0,0.0,0.0,0.0,0.0,0.0,0.0,0.0,0.0,0.0,0.0,0.0,0.0,0.0,0.0,0.0,0.0,0.0,0.0,0.0,0.0,0.0,0.0,0.0,0.0,0.0,0.0,0.0,0.0,0.0,0.0,0.0,0.0,0.0,0.0,0.0,0.0,0.0,0.0,0.0,0.0,0.0,0.0,0.0,0.0,0.0,0.0,0.0,0.0,0.0,0.0,0.0,0.0,0.0,0.0,0.0,0.0,0.0,0.0,0.0,0.0,0.0,0.0,0.0,0.0,0.0,0.0,0.0,0.0,0.0,0.0,0.0,0.0,0.0,0.0,0.0,0.0,0.0,0.0,0.0,0.0,0.0,0.0,0.0,0.0,0.0,0.0,0.0,0.0,0.0,0.0,0.0,0.0,0.0,0.0,0.0,0.0,0.0,0.0,0.0,0.0,0.0,0.0,0.0,0.0,0.0,0.0,0.0,0.0,0.0,0.0,0.0,0.0,0.0,0.0,0.0,0.0,0.0,0.0,0.0,0.0,0.0,0.0,0.0,0.0,0.0,0.0,0.0,0.0,0.0,0.0,0.0,0.0,0.0,0.0,0.0,0.0,0.0,0.0,0.0,0.0,0.0,0.0,0.0,0.0,0.0,0.0,0.0,0.0,0.0,0.0,0.0,0.0,0.0,0.0,0.0,0.0,0.0,0.0,0.0,0.0,0.0,0.0,0.0,0.0,0.0,0.0,0.0,0.0,0.0,0.0,0.0,0.0,0.0,0.0,0.0,0.0,0.0,0.0,0.0,0.0,0.0,0.0,0.0,0.0,0.0,0.0,0.0,0.0,0.0,0.0,0.0,0.0,0.0,0.0,0.0,0.0,0.0,0.0,0.0,0.0,0.0,0.0,0.0,0.0,0.0,0.0,0.0,0.0,0.0,0.0,0.0,0.0,0.0,0.0,0.0,0.0,0.0,0.0,0.0,0.0,0.0,0.0,0.0,0.0,0.0,0.0,0.0,0.0,0.0,0.0,0.0,0.0,0.0,0.0,0.0,0.0,0.0,0.0,0.0,0.0,0.0,0.0,0.0,0.0,0.0,0.0,0.0,0.0,0.0,0.0,0.0,0.0,0.0,0.0,0.0,0.0,0.0,0.0,0.0,0.0,0.0,0.0,0.0,0.0,0.0,0.0,0.0,0.0,0.0,0.0,0.0,0.0,0.0,0.0,0.0,0.0,0.0,0.0,0.0,0.0,0.0,0.0,0.0,0.0,0.0,0.0,0.0,0.0,0.0,0.0,0.0,0.0,0.0,0.0,0.0,0.0,0.0,0.0,0.0,0.0,0.0,0.0,0.0,0.0,0.0,0.0,0.0,0.0,0.0,0.0,0.0,0.0,0.0,0.0,0.0,0.0,0.0,0.0,0.0,0.0,0.0,0.0,0.0,0.0,0.0,0.0,0.0,0.0,0.0,4.4169,0.0,0.0,0.0,0.0,0.0,0.0,0.0,0.0,0.0,0.0,0.0,0.0,0.0,0.0,0.0,0.0,0.0,0.0,0.0,0.0,0.0,0.0,0.0,0.0,0.0,0.0,0.0,0.0,0.0,0.0,0.0,0.0,0.0,0.0,0.0,0.0,0.0,0.0,0.0,0.0,0.0,0.0,0.0,0.0,0.0,0.0,0.0,0.0,0.0,0.0,0.0,0.0,0.0,0.0,0.0,0.0,0.0,0.0,0.0,0.0,0.0,0.0,0.0,0.0,0.0,0.0,0.0,0.0,0.0,0.0,0.0,0.0,0.0,0.0,0.0,0.0,0.0,0.0,0.0,0.0,0.0,0.0,0.0,0.0,0.0,0.0,0.0,0.0,0.0,0.0,0.0,0.0,0.0,0.0,0.0,0.0,0.0,0.0,0.0,0.0,0.0,0.0,0.0,0.0,0.0,0.0,0.0,0.0,0.0,0.0,4.2923,4.2621,4.3571,4.4097,4.4097,0.0,0.0,0.0,0.0,0.0,0.0,0.0,0.0,0.0,0.0,0.0,0.0,0.0,0.0,0.0,0.0,0.0,0.0,0.0,0.0,0.0,0.0,0.0,0.0,0.0,0.0,0.0,0.0,0.0,0.0,0.0,0.0,0.0,0.0,0.0,0.0,0.0,0.0,0.0,0.0,0.0,0.0,0.0,0.0,0.0,0.0,0.0,0.0,0.0,0.0,0.0,0.0,0.0,0.0,0.0,0.0,0.0,0.0,0.0,0.0,0.0,0.0,0.0,0.0,0.0,0.0,0.0,0.0,0.0,0.0,0.0,0.0,0.0,0.0,0.0,0.0,0.0,0.0,0.0,0.0,0.0,0.0,0.0,0.0,0.0,0.0,0.0,0.0,0.0,0.0,0.0,0.0,0.0,0.0,0.0,0.0,0.0,0.0,0.0,0.0,0.0,0.0,0.0,0.0,0.0,0.0,0.0,0.0,0.0,0.0,0.0,0.0,4.358,4.3937,4.3937,0.0,0.0,0.0,0.0,0.0,0.0,0.0,0.0,0.0,0.0,0.0,0.0,0.0,0.0,0.0,0.0,0.0,0.0,0.0,0.0,0.0,0.0,0.0,0.0,0.0,0.0,0.0,0.0,0.0,0.0,0.0,0.0,0.0,0.0,0.0,0.0,0.0,0.0,0.0,0.0,0.0,0.0,0.0,0.0,0.0,0.0,0.0,0.0,0.0,0.0,0.0,0.0,0.0,0.0,0.0,0.0,0.0,0.0,0.0,0.0,0.0,0.0,0.0,0.0,0.0,0.0,0.0,0.0,0.0,0.0,0.0,0.0,0.0,0.0,0.0,0.0,0.0,0.0,0.0,0.0,0.0,0.0,0.0,0.0,0.0,0.0,0.0,0.0,0.0,0.0,0.0,0.0,0.0,0.0,0.0,0.0,0.0,0.0,0.0,0.0,0.0,0.0,0.0,0.0,0.0,0.0,0.0,0.0,0.0,0.0,4.3479,4.2779,4.3216,0.0,4.3479,0.0,0.0,0.0,0.0,0.0,0.0,0.0,0.0,0.0,0.0,0.0,0.0,0.0,0.0,0.0,0.0,0.0,0.0,0.0,0.0,0.0,0.0,0.0,0.0,0.0,0.0,0.0,0.0,0.0,0.0,0.0,0.0,0.0,0.0,0.0,0.0,0.0,0.0,0.0,0.0,0.0,0.0,0.0,0.0,0.0,0.0,0.0,0.0,0.0,0.0,0.0,0.0,0.0,0.0,0.0,0.0,0.0,0.0,0.0,0.0,0.0,0.0,0.0,0.0,0.0,0.0,0.0,0.0,0.0,0.0,0.0,0.0,0.0,0.0,0.0,0.0,0.0,0.0,0.0,0.0,0.0,0.0,0.0,0.0,0.0,0.0,0.0,0.0,0.0,0.0,0.0,0.0,0.0,0.0,0.0,0.0,0.0,0.0,0.0,0.0,0.0,0.0,0.0,0.0,0.0,0.0,0.0,0.0,0.0,0.0,4.3466,4.312,4.3176,4.3265,0.0,0.0,0.0,0.0,0.0,0.0,0.0,0.0,0.0,0.0,0.0,0.0,0.0,0.0,0.0,0.0,0.0,0.0,0.0,0.0,0.0,0.0,0.0,0.0,0.0,0.0,0.0,0.0,0.0,0.0,0.0,0.0,0.0,0.0,0.0,0.0,0.0,0.0,0.0,0.0,0.0,0.0,0.0,0.0,0.0,0.0,0.0,0.0,0.0,0.0,0.0,0.0,0.0,0.0,0.0,0.0,0.0,0.0,0.0,0.0,0.0,0.0,0.0,0.0,0.0,0.0,0.0,0.0,0.0,0.0,0.0,0.0,0.0,0.0,0.0,0.0,0.0,0.0,0.0,0.0,0.0,0.0,0.0,0.0,0.0,0.0,0.0,0.0,0.0,0.0,0.0,0.0,0.0,0.0,0.0,0.0,0.0,0.0,0.0,0.0,0.0,0.0,0.0,0.0,0.0,0.0,0.0,0.0,0.0,0.0,4.3598,4.3325,4.3283,4.3159,4.3159,4.3267,0.0,0.0,0.0,0.0,0.0,0.0,0.0,0.0,0.0,0.0,0.0,0.0,0.0,0.0,0.0,0.0,0.0,0.0,0.0,0.0,0.0,0.0,0.0,0.0,0.0,0.0,0.0,0.0,0.0,0.0,0.0,0.0,0.0,0.0,0.0,0.0,0.0,0.0,0.0,0.0,0.0,0.0,0.0,0.0,0.0,0.0,0.0,0.0,0.0,0.0,0.0,0.0,0.0,0.0,0.0,0.0,0.0,0.0,0.0,0.0,0.0,0.0,0.0,0.0,0.0,0.0,0.0,0.0,0.0,0.0,0.0,0.0,0.0,0.0,0.0,0.0,0.0,0.0,0.0,0.0,0.0,0.0,0.0,0.0,0.0,0.0,0.0,0.0,0.0,0.0,0.0,0.0,0.0,0.0,0.0,0.0,0.0,0.0,0.0,0.0,0.0,0.0,0.0,0.0,0.0,0.0,0.0,0.0,4.3643,4.3494,4.3252,4.2946,4.3036,4.3036,0.0,0.0,0.0,0.0,0.0,0.0,0.0,0.0,0.0,0.0,0.0,0.0,0.0,0.0,0.0,0.0,0.0,0.0,0.0,0.0,0.0,0.0,0.0,0.0,0.0,0.0,0.0,0.0,0.0,0.0,0.0,0.0,0.0,0.0,0.0,0.0,0.0,0.0,0.0,0.0,0.0,0.0,0.0,0.0,0.0,0.0,0.0,0.0,0.0,0.0,0.0,0.0,0.0,0.0,0.0,0.0,0.0,0.0,0.0,0.0,0.0,0.0,0.0,0.0,0.0,0.0,0.0,0.0,0.0,0.0,0.0,0.0,0.0,0.0,0.0,0.0,0.0,0.0,0.0,0.0,0.0,0.0,0.0,0.0,0.0,0.0,0.0,0.0,0.0,0.0,0.0,0.0,0.0,0.0,0.0,0.0,0.0,0.0,0.0,0.0,0.0,0.0,0.0,0.0,0.0,0.0,0.0,0.0,0.0,4.3795,4.3419,4.3036,4.2744,4.2899,4.2975,0.0,0.0,0.0,0.0,0.0,0.0,0.0,0.0,0.0,0.0,0.0,0.0,0.0,0.0,0.0,0.0,0.0,0.0,0.0,0.0,0.0,0.0,0.0,0.0,0.0,0.0,0.0,0.0,0.0,0.0,0.0,0.0,0.0,0.0,0.0,0.0,0.0,0.0,0.0,0.0,0.0,0.0,0.0,0.0,0.0,0.0,0.0,0.0,0.0,0.0,0.0,0.0,0.0,0.0,0.0,0.0,0.0,0.0,0.0,0.0,0.0,0.0,0.0,0.0,0.0,0.0,0.0,0.0,0.0,0.0,0.0,0.0,0.0,0.0,0.0,0.0,0.0,0.0,0.0,0.0,0.0,0.0,0.0,0.0,0.0,0.0,0.0,0.0,0.0,0.0,0.0,0.0,0.0,0.0,0.0,0.0,0.0,0.0,0.0,0.0,0.0,0.0,0.0,0.0,0.0,0.0,0.0,0.0,0.0,4.375,0.0,4.3006,4.2774,4.2882,4.299,0.0,0.0,0.0,0.0,0.0,0.0,0.0,0.0,0.0,0.0,0.0,0.0,0.0,0.0,0.0,0.0,0.0,0.0,0.0,0.0,0.0,0.0,0.0,0.0,0.0,0.0,0.0,0.0,0.0,0.0,0.0,0.0,0.0,0.0,0.0,0.0,0.0,0.0,0.0,0.0,0.0,0.0,0.0,0.0,0.0,0.0,0.0,0.0,0.0,0.0,0.0,0.0,0.0,0.0,0.0,0.0,0.0,0.0,0.0,0.0,0.0,0.0,0.0,0.0,0.0,0.0,0.0,0.0,0.0,0.0,0.0,0.0,0.0,0.0,0.0,0.0,0.0,0.0,0.0,0.0,0.0,0.0,0.0,0.0,0.0,0.0,0.0,0.0,0.0,0.0,0.0,0.0,0.0,0.0,0.0,0.0,0.0,0.0,0.0,0.0,0.0,0.0,0.0,0.0,0.0,0.0,0.0,0.0,4.375,4.3434,4.3219,4.3113,4.3098,4.3098,4.3113,0.0,0.0,0.0,0.0,0.0,0.0,0.0,0.0,0.0,0.0,0.0,0.0,0.0,0.0,0.0,0.0,0.0,0.0,0.0,0.0,0.0,0.0,0.0,0.0,0.0,0.0,0.0,0.0,0.0,0.0,0.0,0.0,0.0,0.0,0.0,0.0,0.0,0.0,0.0,0.0,0.0,0.0,0.0,0.0,0.0,0.0,0.0,0.0,0.0,0.0,0.0,0.0,0.0,0.0,0.0,0.0,0.0,0.0,0.0,0.0,0.0,0.0,0.0,0.0,0.0,0.0,0.0,0.0,0.0,0.0,0.0,0.0,0.0,0.0,0.0,0.0,0.0,0.0,0.0,0.0,0.0,0.0,0.0,0.0,0.0,0.0,0.0,0.0,0.0,0.0,0.0,0.0,0.0,0.0,0.0,0.0,0.0,0.0,0.0,0.0,0.0,0.0,0.0,0.0,0.0,0.0,0.0,0.0,0.0,4.3419,4.3325,4.3235,4.3113,4.3235,4.3295,0.0,0.0,0.0,0.0,0.0,0.0,0.0,0.0,0.0,0.0,0.0,0.0,0.0,0.0,0.0,0.0,0.0,0.0,0.0,0.0,0.0,0.0,0.0,0.0,0.0,0.0,0.0,0.0,0.0,0.0,0.0,0.0,0.0,0.0,0.0,0.0,0.0,0.0,0.0,0.0,0.0,0.0,0.0,0.0,0.0,0.0,0.0,0.0,0.0,0.0,0.0,0.0,0.0,0.0,0.0,0.0,0.0,0.0,0.0,0.0,0.0,0.0,0.0,0.0,0.0,0.0,0.0,0.0,0.0,0.0,0.0,0.0,0.0,0.0,0.0,0.0,0.0,0.0,0.0,0.0,0.0,0.0,0.0,0.0,0.0,0.0,0.0,0.0,0.0,0.0,0.0,0.0,0.0,0.0,0.0,0.0,0.0,0.0,0.0,0.0,0.0,0.0,0.0,0.0,0.0,0.0,0.0,0.0,0.0,4.3728,4.3702,4.3613,4.3476,4.3553,4.3583,4.3583,0.0,0.0,0.0,0.0,0.0,0.0,0.0,0.0,0.0,0.0,0.0,0.0,0.0,0.0,0.0,0.0,0.0,0.0,0.0,0.0,0.0,0.0,0.0,0.0,0.0,0.0,0.0,0.0,0.0,0.0,0.0,0.0,0.0,0.0,0.0,0.0,0.0,0.0,0.0,0.0,0.0,0.0,0.0,0.0,0.0,0.0,0.0,0.0,0.0,0.0,0.0,0.0,0.0,0.0,0.0,0.0,0.0,0.0,0.0,0.0,0.0,0.0,0.0,0.0,0.0,0.0,0.0,0.0,0.0,0.0,0.0,0.0,0.0,0.0,0.0,0.0,0.0,0.0,0.0,0.0,0.0,0.0,0.0,0.0,0.0,0.0,0.0,0.0,0.0,0.0,0.0,0.0,0.0,0.0,0.0,0.0,0.0,0.0,0.0,0.0,0.0,0.0,0.0,0.0,0.0,0.0,0.0,0.0,4.4307,4.4212,4.4126,4.4112,4.4,4.3912,0.0,0.0,0.0,0.0,0.0,0.0,0.0,0.0,0.0,0.0,0.0,0.0,0.0,0.0,0.0,0.0,0.0,0.0,0.0,0.0,0.0,0.0,0.0,0.0,0.0,0.0,0.0,0.0,0.0,0.0,0.0,0.0,0.0,0.0,0.0,0.0,0.0,0.0,0.0,0.0,0.0,0.0,0.0,0.0,0.0,0.0,0.0,0.0,0.0,0.0,0.0,0.0,0.0,0.0,0.0,0.0,0.0,0.0,0.0,0.0,0.0,0.0,0.0,0.0,0.0,0.0,0.0,0.0,0.0,0.0,0.0,0.0,0.0,0.0,0.0,0.0,0.0,0.0,0.0,0.0,0.0,0.0,0.0,0.0,0.0,0.0,0.0,0.0,0.0,0.0,0.0,0.0,0.0,0.0,0.0,0.0,0.0,0.0,0.0,0.0,0.0,0.0,0.0,0.0,0.0,0.0,0.0,0.0,0.0,4.4463,4.4645,4.4575,4.425,4.4193,4.4155,0.0,0.0,0.0,0.0,0.0,0.0,0.0,0.0,0.0,0.0,0.0,0.0,0.0,0.0,0.0,0.0,0.0,0.0,0.0,0.0,0.0,0.0,0.0,0.0,0.0,0.0,0.0,0.0,0.0,0.0,0.0,0.0,0.0,0.0,0.0,0.0,0.0,0.0,0.0,0.0,0.0,0.0,0.0,0.0,0.0,0.0,0.0,0.0,0.0,0.0,0.0,0.0,0.0,0.0,0.0,0.0,0.0,0.0,0.0,0.0,0.0,0.0,0.0,0.0,0.0,0.0,0.0,0.0,0.0,0.0,0.0,0.0,0.0,0.0,0.0,0.0,0.0,0.0,0.0,0.0,0.0,0.0,0.0,0.0,0.0,0.0,0.0,0.0,0.0,0.0,0.0,0.0,0.0,0.0,0.0,0.0,0.0,0.0,0.0,0.0,0.0,0.0,0.0,0.0,0.0,0.0,0.0,0.0,4.4742,4.481,4.4988,4.4947,4.4686,4.4491,4.4279,0.0,0.0,0.0,0.0,0.0,0.0,0.0,0.0,0.0,0.0,0.0,0.0,0.0,0.0,0.0,0.0,0.0,0.0,0.0,0.0,0.0,0.0,0.0,0.0,0.0,0.0,0.0,0.0,0.0,0.0,0.0,0.0,0.0,0.0,0.0,0.0,0.0,0.0,0.0,0.0,0.0,0.0,0.0,0.0,0.0,0.0,0.0,0.0,0.0,0.0,0.0,0.0,0.0,0.0,0.0,0.0,0.0,0.0,0.0,0.0,0.0,0.0,0.0,0.0,0.0,0.0,0.0,0.0,0.0,0.0,0.0,0.0,0.0,0.0,0.0,0.0,0.0,0.0,0.0,0.0,0.0,0.0,0.0,0.0,0.0,0.0,0.0,0.0,0.0,0.0,0.0,0.0,0.0,0.0,0.0,0.0,0.0,0.0,0.0,0.0,0.0,0.0,0.0,0.0,0.0,0.0,0.0,0.0,4.5069,4.519,4.5203,4.5203,4.5177,4.4783,4.4421,0.0,0.0,0.0,0.0,0.0,0.0,0.0,0.0,0.0,0.0,0.0,0.0,0.0,0.0,0.0,0.0,0.0,0.0,0.0,0.0,0.0,0.0,0.0,0.0,0.0,0.0,0.0,0.0,0.0,0.0,0.0,0.0,0.0,0.0,0.0,0.0,0.0,0.0,0.0,0.0,0.0,0.0,0.0,0.0,0.0,0.0,0.0,0.0,0.0,0.0,0.0,0.0,0.0,0.0,0.0,0.0,0.0,0.0,0.0,0.0,0.0,0.0,0.0,0.0,0.0,0.0,0.0,0.0,0.0,0.0,0.0,0.0,0.0,0.0,0.0,0.0,0.0,0.0,0.0,0.0,0.0,0.0,0.0,0.0,0.0,0.0,0.0,0.0,0.0,0.0,0.0,0.0,0.0,0.0,0.0,0.0,0.0,0.0,0.0,0.0,0.0,0.0,0.0,0.0,0.0,0.0,0.0,0.0,4.5163,4.519,4.5318,4.5318,4.519,4.4988,4.4742,0.0,0.0,0.0,0.0,0.0,0.0,0.0,0.0,0.0,0.0,0.0,0.0,0.0,0.0,0.0,0.0,0.0,0.0,0.0,0.0,0.0,0.0,0.0,0.0,0.0,0.0,0.0,0.0,0.0,0.0,0.0,0.0,0.0,0.0,0.0,0.0,0.0,0.0,0.0,0.0,0.0,0.0,0.0,0.0,0.0,0.0,0.0,0.0,4.4667,0.0,0.0,0.0,0.0,0.0,0.0,0.0,0.0,0.0,0.0,0.0,0.0,0.0,0.0,0.0,0.0,0.0,0.0,0.0,0.0,0.0,0.0,0.0,0.0,0.0,0.0,0.0,0.0,0.0,0.0,0.0,0.0,0.0,0.0,0.0,0.0,0.0,0.0,0.0,0.0,0.0,0.0,0.0,0.0,0.0,0.0,0.0,0.0,0.0,0.0,0.0,0.0,0.0,0.0,0.0,0.0,0.0,0.0,0.0,4.527,4.5318,4.5715,4.5922,4.5868,4.596,4.5512,0.0,0.0,0.0,0.0,0.0,0.0,0.0,0.0,0.0,0.0,0.0,0.0,0.0,0.0,0.0,0.0,0.0,0.0,0.0,0.0,0.0,0.0,0.0,0.0,0.0,0.0,0.0,0.0,0.0,0.0,0.0,0.0,0.0,0.0,0.0,0.0,0.0,0.0,0.0,0.0,0.0,0.0,0.0,0.0,0.0,0.0,0.0,0.0,0.0,0.0,0.0,0.0,0.0,0.0,0.0,0.0,0.0,0.0,0.0,0.0,0.0,0.0,0.0,0.0,0.0,0.0,0.0,0.0,0.0,0.0,0.0,0.0,0.0,0.0,0.0,0.0,0.0,0.0,0.0,0.0,0.0,0.0,0.0,0.0,0.0,0.0,0.0,0.0,0.0,0.0,0.0,0.0,0.0,0.0,0.0,0.0,0.0,0.0,0.0,0.0,0.0,0.0,0.0,0.0,0.0,0.0,0.0,4.5583,4.5638,4.5776,4.641,4.6755,4.6789,4.7049,4.6422,4.4754,0.0,0.0,0.0,0.0,0.0,0.0,0.0,0.0,0.0,0.0,0.0,0.0,0.0,0.0,0.0,0.0,0.0,0.0,0.0,0.0,0.0,0.0,0.0,0.0,0.0,0.0,0.0,0.0,0.0,0.0,0.0,0.0,0.0,0.0,0.0,0.0,0.0,0.0,4.4937,4.5391,0.0,0.0,0.0,0.0,0.0,0.0,0.0,0.0,4.6603,0.0,0.0,0.0,0.0,0.0,0.0,0.0,0.0,0.0,0.0,0.0,0.0,0.0,0.0,0.0,0.0,0.0,0.0,0.0,0.0,0.0,0.0,0.0,0.0,0.0,0.0,0.0,0.0,0.0,0.0,0.0,0.0,0.0,0.0,0.0,0.0,0.0,0.0,0.0,0.0,0.0,0.0,0.0,0.0,0.0,0.0,0.0,0.0,0.0,0.0,0.0,0.0,0.0,0.0,0.0,0.0,4.6376,4.641,4.6686,4.7307,4.7445,4.7514,4.75,4.7323,4.6956,4.6384,0.0,0.0,0.0,0.0,0.0,0.0,0.0,0.0,0.0,0.0,0.0,0.0,0.0,0.0,0.0,0.0,0.0,0.0,0.0,0.0,0.0,0.0,0.0,0.0,0.0,0.0,0.0,0.0,0.0,0.0,0.0,0.0,0.0,0.0,0.0,0.0,0.0,0.0,0.0,4.6377,4.6449,0.0,0.0,0.0,0.0,0.0,0.0,0.0,0.0,4.6511,0.0,0.0,0.0,0.0,0.0,0.0,0.0,0.0,0.0,0.0,0.0,0.0,0.0,0.0,0.0,0.0,0.0,0.0,0.0,0.0,0.0,0.0,0.0,0.0,0.0,0.0,0.0,0.0,0.0,0.0,0.0,0.0,0.0,0.0,0.0,0.0,0.0,0.0,0.0,0.0,0.0,0.0,0.0,0.0,0.0,0.0,0.0,0.0,0.0,0.0,0.0,0.0,0.0,0.0,0.0,4.7134,4.7169,4.7341,4.7686,4.8065,4.8272,4.8258,4.8366,4.806,0.0,0.0,0.0,0.0,0.0,0.0,0.0,0.0,0.0,0.0,0.0,0.0,0.0,0.0,0.0,0.0,0.0,0.0,0.0,0.0,0.0,0.0,0.0,0.0,0.0,0.0,0.0,0.0,0.0,0.0,0.0,0.0,0.0,0.0,0.0,0.0,0.0,0.0,0.0,0.0,4.7096,4.725,4.7588,0.0,0.0,0.0,0.0,0.0,0.0,4.765,4.765,0.0,0.0,0.0,0.0,0.0,0.0,0.0,0.0,0.0,0.0,0.0,0.0,0.0,0.0,0.0,0.0,0.0,0.0,0.0,0.0,0.0,0.0,0.0,0.0,0.0,0.0,0.0,0.0,0.0,0.0,0.0,0.0,0.0,0.0,0.0,0.0,0.0,0.0,0.0,0.0,0.0,0.0,0.0,0.0,0.0,0.0,0.0,0.0,0.0,0.0,0.0,0.0,0.0,0.0,0.0,4.7893,4.7927,4.8031,4.8169,4.8755,4.9031,4.9051,4.9326,4.9063,0.0,0.0,0.0,0.0,0.0,0.0,0.0,0.0,0.0,0.0,0.0,0.0,0.0,0.0,0.0,0.0,0.0,0.0,0.0,0.0,0.0,0.0,0.0,0.0,0.0,0.0,0.0,0.0,0.0,0.0,0.0,0.0,0.0,0.0,0.0,0.0,0.0,0.0,0.0,0.0,0.0,4.7968,4.8522,4.8583,0.0,0.0,0.0,0.0,4.8583,4.8583,0.0,0.0,0.0,0.0,0.0,0.0,0.0,0.0,0.0,0.0,0.0,0.0,0.0,0.0,0.0,0.0,0.0,0.0,0.0,0.0,0.0,0.0,0.0,0.0,0.0,0.0,0.0,0.0,0.0,0.0,0.0,0.0,0.0,0.0,0.0,0.0,0.0,0.0,0.0,0.0,0.0,0.0,0.0,0.0,0.0,0.0,0.0,0.0,0.0,0.0,0.0,0.0,0.0,0.0,0.0,0.0,4.8651,4.8686,4.8996,4.97,4.9789,4.9858,4.9858,4.9615,4.9301,0.0,0.0,0.0,0.0,0.0,0.0,0.0,0.0,0.0,0.0,0.0,0.0,0.0,0.0,0.0,0.0,0.0,0.0,0.0,0.0,0.0,0.0,0.0,0.0,0.0,0.0,0.0,0.0,0.0,0.0,0.0,0.0,0.0,0.0,0.0,0.0,0.0,0.0,0.0,0.0,0.0,4.8522,4.8583,4.8583,4.8583,0.0,0.0,4.8583,4.8583,4.8583,0.0,0.0,0.0,0.0,0.0,0.0,0.0,0.0,0.0,0.0,0.0,0.0,0.0,0.0,0.0,0.0,0.0,0.0,0.0,0.0,0.0,0.0,0.0,0.0,0.0,0.0,0.0,0.0,0.0,0.0,0.0,0.0,0.0,0.0,0.0,0.0,0.0,0.0,0.0,0.0,0.0,0.0,0.0,0.0,0.0,0.0,0.0,0.0,0.0,0.0,0.0,0.0,0.0,0.0,0.0,4.8686,4.9444,4.9479,4.9651,4.9962,4.9996,4.9996,4.9996,4.9683,4.9335,0.0,0.0,0.0,0.0,0.0,0.0,0.0,0.0,0.0,0.0,0.0,0.0,0.0,0.0,0.0,0.0,0.0,0.0,0.0,0.0,0.0,0.0,0.0,0.0,0.0,0.0,0.0,0.0,0.0,0.0,0.0,0.0,0.0,0.0,0.0,0.0,0.0,0.0,0.0,0.0,0.0,0.0,4.8583,4.8583,0.0,0.0,0.0,4.8583,4.8583,0.0,0.0,0.0,0.0,0.0,0.0,0.0,0.0,0.0,0.0,0.0,0.0,0.0,0.0,0.0,0.0,0.0,0.0,0.0,0.0,0.0,0.0,0.0,0.0,0.0,0.0,0.0,0.0,0.0,0.0,0.0,0.0,0.0,0.0,0.0,0.0,0.0,0.0,0.0,0.0,0.0,0.0,0.0,0.0,0.0,0.0,0.0,0.0,0.0,0.0,0.0,0.0,0.0,0.0,0.0,0.0,0.0,4.9976,4.9996,4.9996,4.9996,4.9996,4.9996,4.9996,4.9668,0.0,0.0,0.0,0.0,0.0,0.0,0.0,0.0,0.0,0.0,0.0,0.0,0.0,0.0,0.0,0.0,0.0,0.0,0.0,0.0,0.0,0.0,0.0,0.0,0.0,0.0,0.0,5.0371,0.0,0.0,0.0,0.0,0.0,0.0,0.0,0.0,0.0,0.0,0.0,0.0,0.0,0.0,4.8583,4.8583,4.8583,4.8583,0.0,0.0,4.8583,4.8583,4.8583,4.8583,0.0,0.0,0.0,0.0,0.0,0.0,0.0,0.0,0.0,0.0,0.0,0.0,0.0,0.0,0.0,0.0,0.0,0.0,0.0,0.0,0.0,0.0,0.0,0.0,0.0,0.0,0.0,0.0,0.0,0.0,0.0,0.0,0.0,0.0,0.0,0.0,0.0,0.0,0.0,0.0,0.0,0.0,0.0,0.0,0.0,0.0,0.0,0.0,0.0,0.0,0.0,0.0,0.0,0.0,4.9942,4.9996,4.9996,4.9996,4.9996,4.9996,4.9996,4.9996,4.9683,4.9335,0.0,0.0,0.0,0.0,0.0,0.0,0.0,0.0,0.0,0.0,0.0,0.0,0.0,0.0,0.0,0.0,0.0,0.0,0.0,0.0,0.0,0.0,0.0,0.0,0.0,0.0,0.0,0.0,0.0,0.0,0.0,0.0,0.0,0.0,0.0,0.0,0.0,0.0,0.0,0.0,0.0,4.8583,4.8583,4.8583,4.8583,0.0,4.8583,4.8583,4.8583,4.8583,4.8583,4.8583,0.0,0.0,0.0,0.0,0.0,0.0,0.0,0.0,0.0,0.0,0.0,0.0,0.0,0.0,0.0,0.0,0.0,0.0,0.0,0.0,0.0,0.0,0.0,0.0,0.0,0.0,0.0,0.0,0.0,0.0,0.0,0.0,0.0,0.0,0.0,0.0,0.0,0.0,0.0,0.0,0.0,0.0,0.0,0.0,0.0,0.0,0.0,0.0,0.0,0.0,0.0,0.0,0.0,4.9996,4.9996,4.9996,4.9996,4.9996,4.9996,4.9996,4.9996,4.9772,4.9456,0.0,0.0,0.0,0.0,0.0,0.0,0.0,0.0,0.0,0.0,0.0,0.0,0.0,0.0,0.0,0.0,0.0,0.0,0.0,0.0,0.0,0.0,0.0,0.0,0.0,0.0,0.0,0.0,5.1984,5.1734,5.119,0.0,0.0,0.0,0.0,0.0,0.0,0.0,0.0,0.0,0.0,4.9015,4.9047,4.9047,0.0,0.0,4.8924,4.8883,4.9026,4.8924,4.8883,4.9026,4.9047,0.0,0.0,0.0,0.0,0.0,0.0,0.0,0.0,0.0,0.0,0.0,0.0,0.0,0.0,0.0,0.0,0.0,0.0,0.0,0.0,0.0,0.0,0.0,0.0,0.0,0.0,0.0,0.0,0.0,0.0,0.0,0.0,0.0,0.0,0.0,0.0,0.0,0.0,0.0,0.0,0.0,0.0,0.0,0.0,0.0,0.0,0.0,0.0,0.0,0.0,0.0,0.0,5.0114,5.0306,5.0341,5.0424,5.0651,5.0651,5.0666,5.0651,5.0469,5.0245,0.0,0.0,0.0,0.0,0.0,0.0,0.0,0.0,0.0,0.0,0.0,0.0,0.0,0.0,0.0,0.0,0.0,0.0,0.0,0.0,0.0,0.0,0.0,0.0,0.0,0.0,0.0,0.0,5.2977,5.2518,5.1526,0.0,0.0,0.0,0.0,0.0,0.0,0.0,0.0,0.0,0.0,4.9461,4.9493,4.9421,4.9361,4.9412,4.921,4.9128,4.9291,4.9169,4.918,4.9372,0.0,0.0,0.0,0.0,0.0,0.0,0.0,0.0,0.0,0.0,0.0,0.0,0.0,0.0,0.0,0.0,0.0,0.0,0.0,0.0,0.0,0.0,0.0,0.0,0.0,0.0,0.0,5.0873,0.0,0.0,5.0895,0.0,0.0,0.0,0.0,0.0,0.0,0.0,0.0,0.0,0.0,0.0,0.0,0.0,0.0,0.0,0.0,0.0,0.0,0.0,0.0,0.0,0.0,5.0375,5.1065,5.1065,5.141,5.2099,5.2168,5.2099,5.2084,5.1997,5.18,5.1437,0.0,0.0,0.0,0.0,0.0,0.0,0.0,0.0,0.0,0.0,0.0,0.0,0.0,0.0,0.0,0.0,0.0,0.0,0.0,0.0,0.0,0.0,0.0,0.0,0.0,0.0,5.4106,5.3399,5.2643,0.0,0.0,0.0,0.0,0.0,0.0,0.0,0.0,0.0,4.9892,4.9912,4.988,4.9892,4.9733,4.9633,4.9633,4.9452,4.928,4.932,4.93,4.934,0.0,0.0,0.0,0.0,0.0,0.0,0.0,0.0,0.0,0.0,0.0,0.0,0.0,0.0,0.0,0.0,0.0,0.0,0.0,0.0,0.0,0.0,0.0,0.0,0.0,0.0,0.0,5.0908,5.0908,0.0,0.0,0.0,0.0,0.0,0.0,0.0,0.0,0.0,0.0,0.0,5.0881,5.1297,0.0,0.0,0.0,0.0,0.0,0.0,0.0,0.0,0.0,0.0,0.0,0.0,5.1582,5.1824,5.1824,5.1961,5.2168,5.2203,5.2203,5.2203,5.2157,5.1989,5.1644,0.0,0.0,0.0,0.0,0.0,0.0,0.0,0.0,0.0,0.0,0.0,0.0,0.0,0.0,0.0,0.0,0.0,0.0,0.0,0.0,0.0,0.0,0.0,0.0,0.0,5.4255,0.0,0.0,0.0,0.0,0.0,0.0,0.0,0.0,0.0,0.0,5.0395,5.0512,5.057,5.064,5.066,5.0557,5.0512,5.0434,0.0,0.0,0.0,0.0,0.0,0.0,0.0,0.0,0.0,0.0,0.0,0.0,0.0,0.0,5.0319,4.9781,4.9713,4.9641,4.9553,0.0,0.0,0.0,0.0,0.0,0.0,0.0,0.0,0.0,0.0,0.0,0.0,0.0,0.0,5.1034,5.1034,5.1034,0.0,0.0,0.0,0.0,0.0,0.0,0.0,0.0,5.1714,5.1798,5.1731,5.2146,5.2263,5.2203,5.2203,5.1686,0.0,0.0,0.0,0.0,0.0,0.0,0.0,0.0,5.2341,5.2582,5.2617,5.2754,5.2996,5.2996,5.2996,5.2996,5.2934,5.281,5.2572,5.2253,5.1778,0.0,0.0,0.0,0.0,0.0,0.0,0.0,0.0,0.0,0.0,0.0,0.0,0.0,0.0,0.0,0.0,0.0,0.0,0.0,0.0,0.0,0.0,0.0,5.4335,0.0,0.0,0.0,0.0,0.0,0.0,0.0,0.0,0.0,5.0972,5.1029,5.1124,5.1199,5.1298,5.1317,5.1237,0.0,0.0,0.0,0.0,0.0,0.0,0.0,5.0602,5.0877,5.0915,5.0991,5.1181,5.128,5.1341,5.1341,0.0,0.0,5.0448,5.0285,5.0207,5.0089,5.001,4.9892,4.9661,4.9622,4.9681,0.0,0.0,0.0,0.0,5.1311,0.0,0.0,0.0,5.1334,5.1369,0.0,5.1405,0.0,0.0,0.0,0.0,5.3372,5.3205,0.0,0.0,5.2912,5.2802,5.2572,5.2577,5.2487,5.2287,5.2306,5.2306,5.2272,5.2272,0.0,0.0,0.0,0.0,0.0,0.0,5.2651,5.3425,5.3425,5.3804,5.446,5.4494,5.4478,5.4478,5.4285,5.4189,5.4173,5.3847,5.3311,5.2484,5.2235,0.0,0.0,0.0,0.0,0.0,0.0,0.0,0.0,0.0,0.0,0.0,0.0,0.0,0.0,0.0,0.0,0.0,0.0,0.0,0.0,5.4494,0.0,0.0,0.0,0.0,0.0,0.0,0.0,0.0,0.0,5.211,5.1629,5.1536,5.161,5.178,0.0,0.0,0.0,0.0,5.1536,5.1536,5.1266,5.1153,5.114,5.1121,5.121,5.148,0.0,0.0,5.178,5.1849,5.1835,5.1817,5.1835,5.1688,5.1234,5.1035,5.0915,5.0896,5.0743,5.0538,5.0292,5.0221,5.0253,5.2682,0.0,0.0,0.0,0.0,5.1441,5.1708,5.2174,5.2139,5.2445,5.2962,5.2927,0.0,0.0,0.0,0.0,0.0,0.0,5.3155,5.3134,5.3544,5.3707,5.3654,5.3986,5.4106,5.406,5.3936,5.3823,5.3858,5.3858,5.3582,5.3065,0.0,0.0,0.0,0.0,5.3961,5.4184,5.4184,5.4287,5.4494,5.4494,5.4494,5.4494,5.4431,5.4399,5.4399,5.4191,5.3894,5.3577,5.3378,0.0,0.0,0.0,0.0,0.0,0.0,0.0,0.0,0.0,0.0,0.0,0.0,0.0,0.0,0.0,0.0,0.0,0.0,0.0,5.4494,5.4494,5.4415,0.0,0.0,0.0,0.0,0.0,0.0,0.0,0.0,0.0,5.2518,5.2376,5.2289,0.0,0.0,5.2536,5.2378,5.2325,5.2218,5.2074,5.1893,0.0,5.1948,5.1838,5.182,5.202,5.2164,5.2289,5.2394,5.25,5.2589,5.2571,5.2589,5.2536,5.2378,5.1926,5.1536,5.1368,5.1275,5.1148,5.0908,5.0838,5.0927,5.3444,5.2636,5.2623,5.2585,5.2494,5.2494,5.274,5.3078,5.3078,5.3349,5.3762,5.3762,5.3762,5.3748,5.3959,0.0,0.0,0.0,5.4103,5.4138,5.4493,5.4629,5.4555,5.4768,5.4857,5.478,5.4608,5.4494,5.4494,5.4494,5.4287,5.3873,0.0,5.4494,5.4494,5.4494,5.4494,5.4494,5.4494,5.4494,5.4494,5.4494,5.4494,5.4494,5.4494,5.4494,5.4494,5.4383,5.4255,5.4094,5.3964,5.3833,0.0,0.0,0.0,0.0,0.0,0.0,0.0,0.0,0.0,0.0,0.0,5.4367,5.4478,0.0,0.0,0.0,5.4494,5.4494,5.4494,5.4494,0.0,0.0,0.0,0.0,0.0,0.0,0.0,5.3178,5.3161,5.3262,5.3513,5.3478,5.3255,5.2797,5.2834,5.2868,5.2731,0.0,5.2661,5.2538,5.2414,5.2412,5.2502,5.2465,5.2378,5.2502,5.2659,5.2696,5.2713,5.2834,5.2886,5.2886,5.2886,5.2886,5.2886,5.2536,5.2179,5.198,5.1871,5.1762,5.1586,5.16,5.1637,5.418,5.4193,5.418,5.4108,5.4001,5.4001,5.405,5.4073,5.4121,5.4144,5.4193,5.418,5.418,5.4224,5.4652,0.0,5.5858,5.5625,5.5493,5.5493,5.5493,5.5398,5.5214,5.5153,5.5019,5.488,5.4746,5.4701,5.4701,5.4701,5.4685,5.4701,5.4685,5.4616,5.4494,5.4494,5.4494,5.4494,5.4494,5.4494,5.4494,5.4494,5.4494,5.4494,5.4494,5.4494,5.4494,5.4494,5.4399,5.4239,5.4239,5.4175,5.4045,0.0,0.0,0.0,0.0,0.0,0.0,0.0,0.0,0.0,0.0,0.0,0.0,0.0,0.0,5.4494,5.4494,0.0,5.4494,5.4494,0.0,0.0,0.0,5.4177,5.4081,5.3901,5.3736,5.367,0.0,0.0,5.4617,5.4685,5.4311,5.3258,5.3139,5.3105,5.3105,5.3172,5.3105,5.3206,5.3121,5.3121,5.3273,5.3239,5.3188,5.3105,5.3056,5.3056,5.2989,5.2955,5.2955,5.2972,5.2938,5.2955,5.2938,5.3005,5.2986,5.2829,5.2518,5.2343,5.2325,5.2307,5.2307,5.5847,5.5847,5.5812,5.512,5.4001,5.4001,5.4371,5.4906,5.4906,5.5227,5.5812,5.5847,5.5779,5.5656,5.554,5.5573,5.5735,5.5581,5.5493,5.5493,5.5493,5.5478,5.5468,5.5706,5.5831,5.5819,5.6088,5.6253,5.6253,5.6253,5.6253,5.6253,5.6253,5.5651,5.4563,5.4494,5.4494,5.4494,5.4494,5.4494,5.4494,5.4494,5.4494,5.4494,5.4494,5.4494,5.4494,5.4494,5.4463,5.4431,5.4415,5.4415,5.4367,5.4367,0.0,0.0,0.0,0.0,0.0,0.0,0.0,0.0,0.0,5.4494,5.4494,0.0,5.4494,0.0,5.4494,5.4494,5.4494,5.4494,0.0,0.0,5.4319,5.4383,5.4766,5.4668,5.4703,5.5125,5.5192,5.5225,5.5428,5.5446,5.5326,5.5087,5.5036,5.5018,5.5018,5.5036,5.5036,5.4984,5.4863,5.4844,5.4916,5.5036,5.4782,5.4277,5.4158,5.4007,5.345,5.3348,5.3348,5.3348,5.3348,5.3348,5.3382,5.3804,5.4158,5.4073,5.3409,5.2764,5.2731,5.2764,5.2764,5.7132,5.7404,5.7453,5.6904,5.6034,5.537,5.5348,5.5727,5.574,5.599,5.6383,5.635,5.6445,5.6667,5.6366,5.6411,5.6699,5.6586,5.6511,5.6511,5.6511,5.648,5.639,5.6563,5.658,5.6536,5.6729,5.6805,5.6805,5.6805,5.6805,5.6805,5.6805,5.6391,5.5563,5.5529,5.5529,5.5529,5.5168,5.4996,5.4961,5.4651,5.4494,5.4494,5.4494,5.4494,5.4494,5.4494,5.4494,5.4494,5.4494,5.4494,5.4494,5.4494,5.4494,0.0,0.0,0.0,0.0,0.0,0.0,0.0,0.0,0.0,0.0,0.0,5.4494,5.4529,5.4789,5.4996,5.4961,5.5322,5.5513,5.5529,5.5432,5.5407,5.5586,5.5485,5.5502,5.5666,5.5699,5.5834,5.6139,5.619,5.6308,5.663,5.668,5.6427,5.5834,5.5699,5.5699,5.5699,5.5628,5.5593,5.5699,5.5699,5.5564,5.5209,5.5074,5.4938,5.4549,5.4481,5.4499,5.4481,5.4499,5.4481,5.4499,5.4752,5.5108,5.5005,5.4596,5.4204,5.4153,5.4153,5.4153,5.8096,5.8688,5.8688,5.8688,5.8602,5.7261,5.6704,5.6704,5.6704,5.669,5.6663,5.6495,5.6802,5.7376,5.7114,5.7369,5.7953,5.7851,5.7774,5.7759,5.7743,5.7666,5.7494,5.7441,5.73,5.7154,5.7095,5.7081,5.7081,5.7081,5.7081,5.7081,5.7081,5.7081,5.7081,5.7081,5.6978,5.6805,5.6115,5.5754,5.577,5.515,5.4789,5.4805,5.4701,5.4667,5.4632,5.4547,5.4494,5.4494,5.4494,5.4494,5.4494,5.4494,5.4494,0.0,5.4494,0.0,0.0,0.0,0.0,0.0,0.0,0.0,0.0,5.4582,5.4685,5.4789,5.5375,5.5754,5.5754,5.6391,5.6805,5.6805,5.6805,5.6656,5.6372,5.6355,5.6252,5.6005,5.5969,5.624,5.6833,5.6934,5.7205,5.7697,5.7746,5.734,5.6308,5.6071,5.6122,5.5969,5.5969,5.6139,5.6105,5.6037,5.6003,5.5902,5.5834,5.58,5.5631,5.5631,5.5665,5.5665,5.5597,5.5631,5.5699,5.5733,5.5834,5.5834,5.5884,5.585,5.5614,5.5529,5.5699,5.8581,5.8688,5.8688,5.8688,5.8674,5.8403,5.826,5.826,5.8246,5.8189,5.8095,5.7783,5.7756,5.7846,5.7701,5.773,5.782,5.7805,5.7712,5.7573,5.7553,5.7494,5.7371,5.7821,5.8,5.8002,5.8356,5.8582,5.8599,5.8599,5.8582,5.8582,5.8599,5.8582,5.8599,0.0,0.0,0.0,5.6667,5.6598,5.6564,5.6409,5.6357,5.6357,5.5736,0.0,5.5375,5.4805,5.4494,5.4494,5.4494,0.0,0.0,0.0,0.0,0.0,0.0,0.0,0.0,0.0,0.0,0.0,5.5409,5.5134,5.4582,5.503,5.5651,5.6288,5.6495,5.6564,5.6564,5.6702,5.6805,5.6805,5.6805,5.6863,5.7055,5.7106,5.7172,5.7462,5.7494,5.7509,5.7629,5.7679,5.773,5.7866,5.79,5.7798,5.7527,5.7408,5.7442,5.7494,5.734,5.7442,5.7476,5.7408,5.7137,5.6799,5.6596,5.6393,5.5902,5.5767,5.5733,5.5767,5.5699,5.5733,5.5733,5.6172,5.6596,5.6596,5.7036,5.7103,5.5969,5.5699,5.5699,5.9509,5.9865,5.9865,5.9865,0.0,5.9792,5.9748,5.9677,5.8929,5.8522,5.8376,5.8124,5.823,5.8567,5.8448,5.8597,5.8913,5.8819,5.874,5.8625,5.8564,5.8435,5.829,5.859,5.868,5.8613,5.8874,5.8995,5.8995,5.8995,5.8995,5.8995,5.8995,5.8995,5.8995,5.8995,5.8616,5.7909,5.7529,5.7357,5.7322,5.6978,5.6805,5.6805,5.6426,0.0,0.0,0.0,0.0,0.0,0.0,0.0,0.0,5.5632,0.0,5.5632,5.5632,5.5632,5.5632,5.5632,5.5805,5.615,5.6168,5.6046,5.5667,5.5977,5.6391,5.6771,5.7116,5.7322,5.7357,5.7667,5.7909,5.7892,5.7909,5.7895,5.7877,5.7909,5.7887,5.7871,5.79,5.79,5.79,5.79,5.79,5.79,5.79,5.8051,5.8321,5.8118,5.79,5.79,5.79,5.79,5.79,5.79,5.7814,5.7426,5.734,5.7171,5.6867,5.6799,5.6799,5.6765,5.6799,5.6799,5.6799,5.7103,5.734,5.7374,5.7663,5.7697,5.69,5.6799,5.6799,6.0594,6.1307,6.1278,6.1334,6.1462,6.1275,6.1183,6.1011,5.9485,0.0,0.0,5.8472,5.8712,5.9331,5.921,5.9462,6.0024,5.9846,5.9748,5.9716,5.9602,5.9436,5.9268,5.9251,5.9149,5.9012,5.915,5.9202,5.9219,5.9357,5.9409,5.9409,5.9426,5.9409,5.9409,5.9288,5.9202,5.9168,5.8478,5.8081,5.8081,5.7495,5.7185,5.7185,5.7081,5.6978,5.7012,5.6874,5.6805,5.6805,5.6805,5.6805,5.6805,5.6805,5.6805,5.6805,5.6805,5.6805,5.6805,5.6805,5.684,5.6978,5.7116,5.7116,5.7012,5.7012,5.7047,5.7185,5.7736,5.8099,5.8116,5.8616,5.8995,5.8995,5.9116,5.9012,5.8748,5.8796,5.8737,5.8379,5.8373,5.8306,5.8373,5.8355,5.8306,5.8306,5.8407,5.849,5.8964,5.8761,5.8441,5.8423,5.8509,5.8373,5.8287,5.8204,5.8084,5.8118,5.8001,5.79,5.79,5.79,5.79,5.7764,5.79,5.7832,5.7866,5.7832,5.79,5.79,5.79,5.79,5.79,5.79,5.7832,6.1414,6.2128,6.1941,6.2255,6.2895,6.2722,6.2528,6.231,6.0776,6.0141,6.0109,5.9902,5.9858,5.9963,5.9787,5.9741,5.9846,5.9701,5.9536,5.9386,5.9352,5.9251,5.9047,5.903,5.903,5.903,5.9702,6.0013,6.0116,6.0668,6.0978,6.0978,6.0978,6.0978,6.0944,6.0358,6.0013,6.0013,5.9237,5.8823,5.8823,5.872,5.8702,5.8651,5.8081,5.7736,5.772,5.715,5.6805,5.6805,5.6805,5.6805,5.6805,5.684,5.6805,5.6805,5.6805,5.6805,5.6805,5.6805,5.7081,5.7702,5.8306,5.8409,5.7805,5.7771,5.8012,5.8582,5.8754,5.8823,5.8857,5.8961,5.9099,5.9082,5.9494,5.9695,5.9481,5.9795,5.997,5.9712,5.9776,5.9742,5.9641,5.9674,5.9641,5.9742,5.9641,5.981,5.9877,5.9877,5.9776,5.9776,5.9776,5.981,5.9573,5.9235,5.893,5.8863,5.8355,5.8069,5.8103,5.8103,5.8069,5.7967,5.8069,5.8017,5.8001,5.79,5.8035,5.8069,5.8103,5.8035,5.8069,5.8069,5.7967,6.2408,6.2584,6.2506,6.2687,6.3041,6.2865,6.2704,6.2486,6.1766,6.1465,6.1484,6.1368,6.1286,6.1171,6.1105,6.1022,6.094,6.0754,6.0635,6.0549,6.0463,6.0324,6.0254,6.0254,6.0254,6.0289,6.0599,6.0806,6.0806,6.1151,6.1323,6.1323,6.1323,6.1323,6.1289,6.0978,6.0806,6.0771,5.9633,5.8995,5.8995,5.8995,5.8995,5.8995,5.8651,5.8478,5.8478,5.8168,5.8012,5.7978,5.7978,5.8012,5.8012,5.7978,5.8012,5.8012,5.8012,5.7995,5.7995,5.7978,5.8133,5.8478,5.9219,5.953,5.9185,5.8737,5.8668,5.8961,5.9392,5.9668,5.9668,6.0013,6.0254,6.0254,6.0405,6.0414,6.0267,6.0269,6.034,6.0152,6.008,6.008,6.008,6.008,6.008,6.0148,6.0419,6.0723,6.0757,6.1095,6.0994,6.0283,6.008,6.008,6.008,5.9844,5.9641,5.9607,5.9302,5.9133,5.9099,5.9066,5.9066,5.9099,5.9066,5.9099,5.9066,5.9099,5.9099,5.9099,5.9099,5.9099,5.9118,5.9099,5.8795,6.3164,6.3177,6.3129,6.3203,6.3279,6.32,6.3016,6.2865,6.2865,6.2832,6.278,6.2498,6.2222,6.2053,6.2002,6.1935,6.1832,6.1606,6.1535,6.1518,6.1342,6.1323,6.1323,6.1323,6.1323,6.1323,6.1461,6.1565,6.1565,6.1737,6.1806,6.1841,6.1806,6.1841,6.1806,6.1634,6.1565,6.1461,6.022,5.953,5.9513,5.9513,5.9444,5.9288,5.9254,5.9202,5.8995,5.8995,5.8995,5.8995,5.8995,5.8995,5.8995,5.8995,5.8995,5.8995,5.9168,5.9357,5.9513,5.9513,5.953,5.953,6.0116,6.0427,6.0392,5.9875,5.953,5.9599,6.0116,6.0461,6.0496,6.0909,6.1271,6.1218,6.1192,6.1094,6.091,6.086,6.0793,6.0641,6.0622,6.0655,6.0622,6.0622,6.0689,6.0791,6.1163,6.1535,6.1603,6.2076,6.1806,6.1061,6.0622,6.0689,6.0622,6.0452,6.0419,6.0351,6.0182,6.0013,5.9979,6.0047,6.008,5.9979,6.0013,5.9979,6.0047,6.0047,5.9979,5.9945,5.9911,6.0013,5.9945,5.9979,5.9742,6.3371,6.3904,6.3776,6.4032,6.4476,6.4477,6.4339,6.4201,6.4218,6.4148,6.3851,6.2682,6.2106,6.1918,6.1797,6.171,6.1675,6.143,6.1393,6.1393,6.1341,6.1323,6.1392,6.1358,6.1323,6.1427,6.2066,6.2376,6.2393,6.3013,6.3324,6.3393,6.3393,6.3324,6.3289,6.2721,6.2376,6.2358,6.153,6.1082,6.1082,6.1082,6.0771,6.0116,6.0082,5.9737,5.9133,5.8995,5.8995,5.8995,5.903,5.903,5.903,5.903,5.903,5.9064,5.9702,6.0358,6.0978,6.1082,6.1013,6.1082,6.1116,6.122,6.122,6.1151,6.1082,6.1116,6.1185,6.122,6.1185,6.1323,6.1372,6.1279,6.1524,6.1627,6.1541,6.1908,6.2217,6.2197,6.2009,6.2164,6.2009,6.2009,6.2076,6.1941,6.2042,6.2178,6.2178,6.2279,6.2381,6.2144,6.2144,6.2076,6.1975,6.1603,6.1264,6.1129,6.0588,6.0385,6.0351,6.0317,6.0148,6.0554,6.0283,6.0317,6.0283,6.0114,6.0216,6.0419,6.0385,6.0182,6.0114,6.0216,6.0114,6.4272,6.4453,6.4369,6.4476,6.4672,6.4585,6.4463,6.4393,6.4323,6.418,6.3984,6.3413,6.3135,6.3081,6.3009,6.2885,6.2777,6.2705,6.2668,6.2668,6.2634,6.2668,6.2668,6.2687,6.2668,6.2668,6.2979,6.317,6.3186,6.348,6.36,6.36,6.36,6.36,6.3565,6.3289,6.3151,6.3151,6.2806,6.2668,6.2565,6.1772,6.1151,6.0875,6.084,6.0737,6.0427,6.0358,6.0358,6.0358,6.034,6.0358,6.0358,6.034,6.0358,6.0375,6.0668,6.0978,6.1289,6.1323,6.1323,6.1323,6.1737,6.2031,6.2048,6.2393,6.2668,6.2599,6.2255,6.2013,6.2048,6.2284,6.2449,6.2373,6.2351,6.2293,6.2231,6.2295,6.2415,6.2415,6.2415,6.2415,6.2415,6.2415,6.2415,6.2415,6.2434,6.2434,6.24,6.2415,6.2415,6.2415,6.2415,6.2415,6.2381,6.2178,6.1975,6.1873,6.1704,6.1467,6.14,6.1467,6.1467,6.14,6.1332,6.1332,6.1535,6.1467,6.1467,6.14,6.1434,6.1434,6.1467,6.1467,6.1434,6.5283,6.5321,6.5268,6.5216,6.5146,6.5022,6.4916,6.4845,6.4736,6.4642,6.4443,6.4459,6.4459,6.439,6.4044,6.3728,6.3618,6.36,6.36,6.36,6.36,6.36,6.36,6.36,6.36,6.36,6.3565,6.36,6.36,6.36,6.36,6.36,6.36,6.36,6.36,6.36,6.36,6.36,6.36,6.36,6.3427,6.253,6.1841,6.1634,6.1634,6.153,6.1323,6.1323,6.1323,6.1289,6.1323,6.1323,6.1323,6.1323,6.1392,6.1599,6.1634,6.1737,6.191,6.1944,6.191,6.1979,6.2496,6.2806,6.2875,6.3253,6.3491,6.3438,6.2954,6.266,6.2784,6.303,6.3189,6.3114,6.2847,6.2707,6.2596,6.2493,6.2415,6.2415,6.2415,6.2415,6.2415,6.2415,6.2415,6.2415,6.244,6.2493,6.2498,6.2518,6.2557,6.2479,6.2513,6.244,6.2434,6.2347,6.2415,6.2415,6.2279,6.2245,6.2415,6.24,6.24,6.1941,6.2279,6.2347,6.211,6.2245,6.2367,6.24,6.2347,6.2333,6.2212,6.2347,6.2347,6.6268,6.6794,6.6668,6.6417,6.6303,6.6268,6.6139,6.5905,6.5953,6.5893,6.5726,6.5742,6.5757,6.5638,6.4327,6.3653,6.3634,6.36,6.36,6.36,6.36,6.36,6.36,6.36,6.3634,6.3807,6.3807,6.3772,6.3703,6.3669,6.36,6.3634,6.3738,6.3669,6.3703,6.3772,6.3634,6.3772,6.3772,6.3669,6.3634,6.3565,6.3117,6.2583,6.2427,6.2117,6.1496,6.1358,6.1358,6.1358,6.1392,6.1392,6.1358,6.1392,6.1703,6.2324,6.2427,6.2737,6.3308,6.3358,6.3358,6.3427,6.3443,6.3531,6.3494,6.3552,6.3508,6.3371,6.3289,6.3148,6.328,6.3133,6.2943,6.2789,6.2712,6.2596,6.2473,6.2454,6.2434,6.2415,6.2415,6.2415,6.2415,6.2415,6.2415,6.242,6.2537,6.2688,6.2673,6.2828,6.2828,6.2693,6.2635,6.2596,6.2473,6.2415,6.2415,6.2415,6.2415,6.2415,6.2415,6.2415,6.2415,6.2415,6.2415,6.2415,6.2415,6.2381,6.2381,6.2415,6.2415,6.2381,6.2459,6.242,6.2459,6.6474,6.6591,6.6553,6.6479,6.6406,6.6276,6.6182,6.6107,6.6028,6.5952,6.5895,6.5895,6.5895,6.5861,6.5343,6.4772,6.4289,6.3825,6.36,6.36,6.36,6.3841,6.4255,6.4324,6.4619,6.5014,6.5102,6.5067,6.5067,6.5102,6.5067,6.5067,6.5102,6.5067,6.5067,6.5067,6.5067,6.5048,6.5102,6.5067,6.4998,6.4565,6.4152,6.3876,6.3427,6.3048,6.2772,6.2772,6.2772,6.2772,6.2772,6.2772,6.2772,6.2772,6.2875,6.317,6.3204,6.3342,6.3584,6.36,6.36,6.3634,6.3918,6.4083,6.4149,6.4339,6.4532,6.4459,6.4323,6.4298,6.4093,6.3426,6.2804,6.2693,6.261,6.2546,6.242,6.2415,6.2415,6.2415,6.2415,6.2415,6.2415,6.2415,6.2415,6.2454,6.2591,6.2654,6.2712,6.2866,6.2923,6.2751,6.2673,6.2615,6.242,6.24,6.2415,6.2415,6.2415,6.2415,6.2415,6.2415,6.2415,6.2415,6.2415,6.2415,6.2415,6.2415,6.2415,6.24,6.24,6.2479,6.2557,6.2557,6.2654,6.7213,6.708,6.7061,6.6989,6.6929,6.6796,6.6739,6.6739,6.6658,6.662,6.66,6.66,6.662,6.6551,6.6378,6.5999,6.5393,6.4703,6.4343,6.4324,6.4343,6.4619,6.5014,6.5083,6.5378,6.5826,6.5895,6.5895,6.5895,6.5895,6.5895,6.5861,6.5895,6.5895,6.5895,6.5895,6.5895,6.5895,6.5895,6.5895,6.5826,6.5378,6.5083,6.5014,6.4584,6.4048,6.3634,6.36,6.36,6.36,6.36,6.36,6.36,6.36,6.36,6.36,6.3825,6.3907,6.392,6.4058,6.4193,6.4118,6.4431,6.4663,6.4678,6.4913,6.5088,6.5062,6.4923,6.4802,6.4632,6.3886,6.3323,6.3289,6.319,6.3091,6.3125,6.3145,6.3043,6.2854,6.2821,6.2685,6.2468,6.2415,6.2415,6.2434,6.2557,6.2673,6.2712,6.2847,6.2943,6.2731,6.2693,6.2596,6.2459,6.2434,6.2415,6.2415,6.2415,6.2415,6.2415,6.2415,6.2415,6.2415,6.2415,6.2415,6.2415,6.2415,6.24,6.24,6.2479,6.261,6.2654,6.2731,6.2828,6.852,6.8312,6.8362,6.8161,6.7935,6.7916,6.8034,6.7931,6.7965,6.7842,6.7807,6.7945,6.7842,6.7842,6.7256,6.6999,6.6792,6.6206,6.5792,6.5688,6.5723,6.5757,6.5895,6.5895,6.5964,6.6137,6.5999,6.5999,6.6102,6.6137,6.6137,6.5999,6.6137,6.6206,6.5999,6.6137,6.6033,6.6102,6.6137,6.6068,6.593,6.5964,6.5895,6.5895,6.5792,6.5102,6.3807,6.3738,6.3807,6.3772,6.3738,6.3669,6.3807,6.3807,6.3703,6.3892,6.434,6.4556,6.4488,6.4965,6.5143,6.5094,6.5167,6.5201,6.5195,6.5159,6.5141,6.5134,6.4979,6.4769,6.4803,6.4701,6.4532,6.4546,6.4343,6.4343,6.441,6.4512,6.4309,6.3666,6.3497,6.3173,6.2651,6.2516,6.255,6.2454,6.2557,6.2673,6.2693,6.2866,6.2904,6.2751,6.2673,6.2596,6.2498,6.2415,6.2415,6.2415,6.2415,6.2415,6.2415,6.2415,6.2415,6.2415,6.2415,6.2415,6.2415,6.2434,6.2454,6.2459,6.2557,6.2693,6.2828,6.2943,6.3019,6.8241,6.8182,6.8182,6.8162,6.8083,6.8083,6.8083,6.8083,6.8083,6.8083,6.8083,6.8083,6.8083,6.8049,6.7842,6.7738,6.7738,6.7463,6.6896,6.6068,6.593,6.6206,6.662,6.6654,6.6911,6.7325,6.7394,6.7413,6.7359,6.7413,6.7394,6.7394,6.7394,6.7413,6.7344,6.7428,6.7428,6.7394,6.7394,6.7394,6.7379,6.6896,6.6654,6.662,6.6171,6.5619,6.524,6.5205,6.5171,6.5117,6.5205,6.5205,6.5171,6.5205,6.5095,6.4943,6.5095,6.519,6.503,6.5162,6.5328,6.5283,6.5539,6.5731,6.5813,6.6024,6.6138,6.6172,6.6157,6.6115,6.6115,6.6115,6.5675,6.4715,6.4613,6.4681,6.4749,6.4681,6.4512,6.4343,6.4275,6.3937,6.3396,6.3159,6.299,6.257,6.2659,6.2722,6.2727,6.2862,6.2923,6.2731,6.2693,6.2596,6.2479,6.2415,6.2415,6.2415,6.2415,6.2415,6.2415,6.2415,6.2415,6.2415,6.2415,6.2415,6.2415,6.2434,6.244,6.2537,6.2654,6.2828,6.3038,6.3152,6.3227,6.8083,6.8083,6.8083,6.8083,6.8083,6.8083,6.8083,6.8083,6.8083,6.8083,6.8083,6.8083,6.8083,6.8083,6.8083,6.8083,6.8083,6.8083,6.7601,6.6827,6.6723,6.698,6.7359,6.7394,6.7601,6.8014,6.8083,6.8083,6.8083,6.8083,6.8083,6.8083,6.8083,6.8049,6.8083,6.8083,6.8083,6.8083,6.8049,6.8083,6.8014,6.7635,6.7394,6.7325,6.6945,6.6738,6.6704,6.6723,6.6447,6.6033,6.5895,6.5857,6.578,6.5727,6.563,6.549,6.5637,6.5729,6.5565,6.5798,6.5894,6.5881,6.6099,6.6288,6.6336,6.6651,6.6812,6.6791,6.6757,6.6791,6.6791,6.6791,6.6339,6.554,6.5493,6.5425,6.5425,6.5425,6.5256,6.5121,6.4986,6.4647,6.414,6.3883,6.3748,6.3314,6.3089,6.2998,6.2969,6.2843,6.2756,6.2649,6.2557,6.2479,6.2454,6.2415,6.2415,6.2415,6.2415,6.2415,6.2415,6.2415,6.2415,6.2415,6.2415,6.2415,6.2415,6.24,6.242,6.2576,6.277,6.2943,6.3152,6.334,6.3433,6.8083,6.8083,6.8083,6.8083,6.8083,6.8083,6.8083,6.8083,6.8083,6.8083,6.8083,6.8083,6.8083,6.8083,6.8083,6.8083,6.8083,6.8083,6.8049,6.7911,6.7911,6.7911,6.7945,6.7945,6.8014,6.8083,6.8083,6.8083,6.8083,6.8083,6.8083,6.8083,6.8083,6.8083,6.8083,6.8083,6.8083,6.8083,6.8083,6.8083,6.8083,6.8049,6.8049,6.8014,6.798,6.7911,6.7837,6.7763,6.7266,6.6236,6.6129,6.6047,6.5759,6.5598,6.5691,6.5576,6.6,6.6153,6.6249,6.6548,6.686,6.6672,6.6651,6.6791,6.6745,6.6745,6.6791,6.6791,6.6791,6.6791,6.6791,6.6791,6.6745,6.6757,6.6521,6.6555,6.6724,6.6656,6.6339,6.5899,6.5717,6.548,6.4783,6.4647,6.458,6.4377,6.3923,6.3652,6.3537,6.3292,6.2725,6.2623,6.2744,6.2522,6.2516,6.2415,6.2415,6.2415,6.2415,6.2415,6.2415,6.2415,6.2415,6.2415,6.2434,6.2434,6.2473,6.2459,6.2596,6.2789,6.2962,6.3095,6.3265,6.3452,6.3544,6.8083,6.8083,6.8083,6.8083,6.8083,6.8083,6.8083,6.8083,6.8083,6.8083,6.8083,6.8083,6.8083,6.8083,6.8083,6.8083,6.8083,6.8083,6.8083,6.8083,6.8083,6.8083,6.8083,6.8083,6.8083,6.8083,6.8083,6.8083,6.8083,6.8083,6.8083,6.8083,6.8083,6.8083,6.8083,6.8083,6.8083,6.8083,6.8083,6.8083,6.8083,6.8083,6.8083,6.8083,6.8083,6.8004,6.7865,6.7739,6.7636,6.7344,6.7156,6.7056,6.6873,6.6873,6.6738,6.6623,6.6753,6.682,6.6667,6.6761,6.6854,6.6812,6.6791,6.6791,6.6791,6.6791,6.6791,6.6791,6.6791,6.6791,6.6791,6.6791,6.6791,6.6791,6.6791,6.6791,6.6791,6.6791,6.6711,6.6542,6.6474,6.6102,6.5628,6.5392,6.5222,6.4816,6.4512,6.4309,6.4241,6.4038,6.3599,6.3328,6.3226,6.2854,6.2618,6.2482,6.2415,6.2415,6.2415,6.2415,6.2415,6.2415,6.2415,6.2415,6.244,6.2459,6.2591,6.2649,6.2862,6.3,6.3114,6.3246,6.3414,6.3581,6.3581,6.8083,6.8083,6.8083,6.8083,6.8083,6.8083,6.8083,6.8083,6.8083,6.8083,6.8083,6.8083,6.8083,6.8083,6.8083,6.8083,6.8083,6.8083,6.8083,6.8083,6.8083,6.8083,6.8083,6.8083,6.8083,6.8083,6.8083,6.8083,6.8083,6.8083,6.8083,6.8083,6.8083,6.8083,6.8083,6.8083,6.8083,6.8083,6.8083,6.8083,6.8083,6.8083,6.8083,6.8064,6.8004,6.7879,6.7678,6.7455,6.7489,6.7597,6.7536,6.7435,6.7387,6.7387,6.7284,6.7056,6.7035,6.6938,6.6833,6.6791,6.6791,6.6791,6.6791,6.6791,6.6791,6.6791,6.6791,6.6791,6.6791,6.6791,6.6791,6.6791,6.6791,6.6791,6.6791,6.6791,6.6791,6.6791,6.6791,6.6791,6.6757,6.6656,6.617,6.6136,6.5933,6.5628,6.529,6.5155,6.5019,6.4816,6.4525,6.4174,6.3903,6.3599,6.3226,6.3024,6.2685,6.2618,6.2415,6.2415,6.2415,6.2415,6.2415,6.2434,6.2459,6.2537,6.2654,6.2823,6.2962,6.3114,6.3246,6.3358,6.3526,6.36,6.36,6.8083,6.8083,6.8083,6.8083,6.8083,6.8083,6.8083,6.8083,6.8083,6.8083,6.8083,6.8083,6.8083,6.8083,6.8083,6.8083,6.8083,6.8083,6.8083,6.8083,6.8083,6.8083,6.8083,6.8083,6.8083,6.8083,6.8083,6.8083,6.8083,6.8083,6.8083,6.8083,6.8083,6.8083,6.8083,6.8083,6.8083,6.8083,6.8083,6.8083,6.8064,6.8044,6.8039,6.8019,6.7799,6.7638,6.7435,6.7284,6.7243,6.7428,6.7414,6.7291,6.716,6.716,6.7056,6.6875,6.6833,6.6812,6.6791,6.6791,6.6791,6.6791,6.6791,6.6791,6.6791,6.6791,6.6791,6.6791,6.6791,6.6791,6.6791,6.6791,6.6791,6.6791,6.6791,6.6791,6.6791,6.6791,6.6791,6.6791,6.6791,6.6791,6.6791,6.6791,6.6757,6.625,6.6,6.5865,6.5764,6.5595,6.5222,6.4816,6.458,6.441,6.4038,6.3646,6.3193,6.2888,6.2516,6.2415,6.2415,6.2415,6.2415,6.242,6.2498,6.2615,6.2751,6.2904,6.3095,6.3246,6.3396,6.347,6.3563,6.3581,6.36,6.8083,6.8083,6.8083,6.8083,6.8083,6.8083,6.8083,6.8083,6.8083,6.8083,6.8083,6.8083,6.8083,6.8083,6.8083,6.8083,6.8083,6.8083,6.8083,6.8083,6.8083,6.8083,6.8083,6.8083,6.8083,6.8083,6.8083,6.8083,6.8083,6.8083,6.8083,6.8083,6.8083,6.8083,6.8083,6.8083,6.8083,6.8083,6.8083,6.8083,6.8024,6.7925,6.7879,6.7819,6.7516,6.7346,6.7243,6.7001,6.6896,6.6938,6.6959,6.6959,6.6917,6.693,6.6854,6.6833,6.6791,6.6791,6.6791,6.6791,6.6791,6.6791,6.6791,6.6791,6.6791,6.6791,6.6791,6.6791,6.6791,6.6791,6.6791,6.6791,6.6791,6.6791,6.6791,6.6791,6.6791,6.6791,6.6791,6.6791,6.6791,6.6791,6.6791,6.6791,6.6791,6.6757,6.6711,6.6576,6.6406,6.6237,6.5933,6.5493,6.5392,6.5189,6.4613,6.4221,6.3781,6.3328,6.2922,6.2618,6.2618,6.24,6.24,6.2459,6.2557,6.2693,6.2885,6.3095,6.3302,6.3414,6.3507,6.3544,6.3581,6.36,6.36,6.8083,6.8083,6.8083,6.8083,6.8083,6.8083,6.8083,6.8083,6.8083,6.8083,6.8083,6.8083,6.8083,6.8083,6.8083,6.8083,6.8083,6.8083,6.8083,6.8083,6.8083,6.8083,6.8083,6.8083,6.8083,6.8083,6.8083,6.8083,6.8083,6.8083,6.8083,6.8083,6.8083,6.8083,6.8083,6.8083,6.8083,6.8083,6.8083,6.8044,6.7959,6.7879,6.7658,6.7571,6.7304,6.716,6.7014,6.6875,6.6812,6.6791,6.6791,6.6791,6.6791,6.6791,6.6791,6.6791,6.6791,6.6791,6.6791,6.6791,6.6791,6.6791,6.6791,6.6791,6.6791,6.6791,6.6791,6.6791,6.6791,6.6791,6.6791,6.6791,6.6791,6.6791,6.6791,6.6791,6.6791,6.6791,6.6791,6.6791,6.6791,6.6791,6.6791,6.6791,6.6791,6.6791,6.6791,6.6656,6.669,6.6542,6.6542,6.6271,6.6237,6.5933,6.529,6.4783,6.4377,6.3937,6.3497,6.3226,6.3071,6.2773,6.244,6.2537,6.2654,6.2904,6.3095,6.3302,6.3433,6.3507,6.3563,6.36,6.36,6.36,6.36,6.8083,6.8083,6.8083,6.8083,6.8083,6.8083,6.8083,6.8083,6.8083,6.8083,6.8083,6.8083,6.8083,6.8083,6.8083,6.8083,6.8083,6.8083,6.8083,6.8083,6.8083,6.8083,6.8083,6.8083,6.8083,6.8083,6.8083,6.8083,6.8083,6.8083,6.8083,6.8083,6.8083,6.8083,6.8083,6.8083,6.8064,6.8039,6.8004,6.7905,6.7759,6.7699,6.751,6.7222,6.7139,6.7001,6.6875,6.6812,6.6791,6.6791,6.6791,6.6791,6.6791,6.6791,6.6791,6.6791,6.6791,6.6791,6.6791,6.6791,6.6791,6.6791,6.6791,6.6791,6.6791,6.6791,6.6791,6.6791,6.6791,6.6791,6.6791,6.6791,6.6791,6.6791,6.6791,6.6791,6.6791,6.6791,6.6791,6.6791,6.6791,6.6791,6.6791,6.6791,6.6791,6.6791,6.6791,6.6791,6.6791,6.6791,6.6745,6.6711,6.6576,6.6542,6.5967,6.5358,6.4952,6.4647,6.4174,6.3849,6.3666,6.3597,6.3303,6.2756,6.2808,6.3038,6.3246,6.3396,6.3507,6.3581,6.36,6.36,6.36,6.36,6.36,6.8083,6.8083,6.8083,6.8083,6.8083,6.8083,6.8083,6.8083,6.8083,6.8083,6.8083,6.8083,6.8083,6.8083,6.8083,6.8083,6.8083,6.8083,6.8083,6.8083,6.8083,6.8083,6.8083,6.8083,6.8083,6.8083,6.8083,6.8083,6.8083,6.8083,6.8083,6.8083,6.8083,6.8083,6.8083,6.8083,6.8019,6.7899,6.7859,6.7739,6.7557,6.7373,6.7188,6.6917,6.693,6.6854,6.6833,6.6791,6.6791,6.6791,6.6791,6.6791,6.6791,6.6791,6.6791,6.6791,6.6791,6.6791,6.6791,6.6791,6.6791,6.6791,6.6791,6.6791,6.6791,6.6791,6.6791,6.6791,6.6791,6.6791,6.6791,6.6791,6.6791,6.6791,6.6791,6.6791,6.6791,6.6791,6.6791,6.6791,6.6791,6.6791,6.6791,6.6791,6.6791,6.6791,6.6791,6.6791,6.6791,6.6791,6.6791,6.6757,6.6757,6.6757,6.6622,6.6034,6.5547,6.5392,6.4986,6.4546,6.4471,6.4578,6.4305,6.3655,6.3211,6.3197,6.3371,6.3523,6.3544,6.36,6.36,6.36,6.36,6.36,6.36,6.8083,6.8083,6.8083,6.8083,6.8083,6.8083,6.8083,6.8083,6.8083,6.8083,6.8083,6.8083,6.8083,6.8083,6.8083,6.8083,6.8083,6.8083,6.8083,6.8083,6.8083,6.8083,6.8083,6.8083,6.8083,6.8083,6.8083,6.8083,6.8083,6.8083,6.8083,6.8083,6.8083,6.8083,6.8064,6.7965,6.7919,6.7799,6.7678,6.7536,6.7346,6.7118,6.6896,6.6833,6.6791,6.6791,6.6791,6.6791,6.6791,6.6791,6.6791,6.6791,6.6791,6.6791,6.6791,6.6791,6.6791,6.6791,6.6791,6.6791,6.6791,6.6791,6.6791,6.6791,6.6791,6.6791,6.6791,6.6791,6.6791,6.6791,6.6791,6.6791,6.6791,6.6791,6.6791,6.6791,6.6791,6.6791,6.6791,6.6791,6.6791,6.6791,6.6791,6.6791,6.6791,6.6791,6.6791,6.6791,6.6791,6.6791,6.6791,6.6791,6.6791,6.6791,6.6791,6.6474,6.6068,6.5967,6.5784,6.5344,6.5155,6.523,6.4963,6.4434,6.4078,6.3913,6.3514,6.3616,6.3634,6.3634,6.36,6.36,6.36,6.36,6.36,6.8083,6.8083,6.8083,6.8083,6.8083,6.8083,6.8083,6.8083,6.8083,6.8083,6.8083,6.8083,6.8083,6.8083,6.8083,6.8083,6.8083,6.8083,6.8083,6.8083,6.8083,6.8083,6.8083,6.8083,6.8083,6.8083,6.8083,6.8083,6.8083,6.8083,6.8083,6.8064,6.8064,6.8024,6.7984,6.7839,6.7759,6.7618,6.7516,6.7346,6.7118,6.6917,6.6791,6.6791,6.6791,6.6791,6.6791,6.6791,6.6791,6.6791,6.6791,6.6791,6.6791,6.6791,6.6791,6.6791,6.6791,6.6791,6.6791,6.6791,6.6791,6.6791,6.6791,6.6791,6.6791,6.6791,6.6791,6.6791,6.6791,6.6791,6.6791,6.6791,6.6791,6.6791,6.6791,6.6791,6.6791,6.6791,6.6791,6.6791,6.6791,6.6791,6.6791,6.6791,6.6791,6.6791,6.6791,6.6791,6.6791,6.6791,6.6791,6.6791,6.6791,6.6791,6.6791,6.6791,6.6576,6.6474,6.6326,6.6021,6.5895,6.5868,6.5567,6.5391,6.5353,6.5099,6.444,6.3876,6.4014,6.4014,6.3772,6.3634,6.36,6.36,6.36,6.8083,6.8083,6.8083,6.8083,6.8083,6.8083,6.8083,6.8083,6.8083,6.8083,6.8083,6.8083,6.8083,6.8083,6.8083,6.8083,6.8083,6.8083,6.8083,6.8083,6.8083,6.8083,6.8083,6.8083,6.8083,6.8083,6.8083,6.8083,6.8064,6.8064,6.8064,6.8044,6.7939,6.7839,6.7819,6.7618,6.7435,6.7304,6.7243,6.7118,6.6896,6.6833,6.6812,6.6791,6.6791,6.6791,6.6791,6.6791,6.6791,6.6791,6.6791,6.6791,6.6791,6.6791,6.6791,6.6791,6.6791,6.6791,6.6791,6.6791,6.6791,6.6791,6.6791,6.6791,6.6791,6.6791,6.6791,6.6791,6.6791,6.6791,6.6791,6.6791,6.6791,6.6791,6.6791,6.6791,6.6791,6.6791,6.6791,6.6791,6.6791,6.6791,6.6791,6.6791,6.6791,6.6791,6.6791,6.6791,6.6791,6.6791,6.6791,6.6791,6.6791,6.6791,6.6791,6.6791,6.6791,6.6791,6.6677,6.655,6.6567,6.6494,6.6724,6.6582,6.649,6.6316,6.5822,6.529,6.4807,6.4427,6.4255,6.391,6.36,6.36,6.3634,6.8083,6.8083,6.8083,6.8083,6.8083,6.8083,6.8083,6.8083,6.8083,6.8083,6.8083,6.8083,6.8083,6.8083,6.8083,6.8083,6.8083,6.8083,6.8083,6.8083,6.8083,6.8083,6.8083,6.8083,6.8083,6.8083,6.8064,6.7984,6.7984,6.8004,6.8044,6.7939,6.7839,6.7739,6.7618,6.7428,6.7304,6.718,6.7056,6.6896,6.6812,6.6791,6.6791,6.6791,6.6791,6.6791,6.6791,6.6791,6.6791,6.6791,6.6791,6.6791,6.6791,6.6791,6.6791,6.6791,6.6791,6.6791,6.6791,6.6791,6.6791,6.6791,6.6791,6.6791,6.6791,6.6791,6.6791,6.6791,6.6791,6.6791,6.6791,6.6791,6.6791,6.6791,6.6791,6.6791,6.6791,6.6791,6.6791,6.6791,6.6791,6.6791,6.6791,6.6791,6.6791,6.6791,6.6791,6.6791,6.6791,6.6791,6.6791,6.6791,6.6791,6.6791,6.6791,6.6791,6.6791,6.6791,6.6791,6.6795,6.7071,6.7175,6.7249,6.7436,6.7409,6.7197,6.698,6.629,6.5497,6.5083,6.4738,6.4462,6.4186,6.3669,6.3669,6.8083,6.8083,6.8083,6.8083,6.8083,6.8083,6.8083,6.8083,6.8083,6.8083,6.8083,6.8083,6.8083,6.8083,6.8083,6.8083,6.8083,6.8083,6.8083,6.8083,6.8083,6.8083,6.8083,6.8083,6.8083,6.8083,6.8004,6.7925,6.7865,6.7845,6.7839,6.7719,6.7618,6.7536,6.7428,6.7222,6.7077,6.7056,6.6896,6.6812,6.6791,6.6791,6.6791,6.6791,6.6791,6.6791,6.6791,6.6791,6.6791,6.6791,6.6791,6.6791,6.6791,6.6791,6.6791,6.6791,6.6791,6.6791,6.6791,6.6791,6.6791,6.6791,6.6791,6.6791,6.6791,6.6791,6.6791,6.6791,6.6791,6.6791,6.6791,6.6791,6.6791,6.6791,6.6791,6.6791,6.6791,6.6791,6.6791,6.6791,6.6791,6.6791,6.6791,6.6791,6.6791,6.6791,6.6791,6.6791,6.6791,6.6791,6.6791,6.6791,6.6791,6.6791,6.6791,6.6791,6.6791,6.6812,6.6812,6.6959,6.7243,6.7428,6.7495,6.7731,6.7984,6.7871,6.7532,6.6807,6.6152,6.5876,6.56,6.5221,6.4807,6.4255,6.3945,6.8083,6.8083,6.8083,6.8083,6.8083,6.8083,6.8083,6.8083,6.8083,6.8083,6.8083,6.8083,6.8083,6.8083,6.8083,6.8083,6.8083,6.8083,6.8083,6.8083,6.8083,6.8064,6.8064,6.8044,6.8044,6.8039,6.7919,6.7819,6.7759,6.7577,6.7557,6.7475,6.7407,6.7284,6.716,6.698,6.6909,6.6909,6.6812,6.6791,6.6791,6.6791,6.6791,6.6791,6.6791,6.6791,6.6791,6.6791,6.6791,6.6791,6.6791,6.6791,6.6791,6.6791,6.6791,6.6791,6.6791,6.6791,6.6791,6.6791,6.6791,6.6791,6.6791,6.6791,6.6791,6.6791,6.6791,6.6791,6.6791,6.6791,6.6791,6.6791,6.6791,6.6791,6.6791,6.6791,6.6791,6.6791,6.6791,6.6791,6.6791,6.6791,6.6791,6.6791,6.6791,6.6791,6.6791,6.6791,6.6791,6.6791,6.6791,6.6791,6.6791,6.6791,6.6791,6.6791,6.6791,6.6833,6.6854,6.7084,6.7387,6.7516,6.7678,6.7845,6.8044,6.8083,6.8014,6.7394,6.693,6.6758,6.6447,6.593,6.5462,6.4979,6.4738,6.8083,6.8083,6.7979,6.7999,6.8083,6.8083,6.8083,6.8083,6.8083,6.8083,6.8083,6.8083,6.8083,6.8083,6.8083,6.8083,6.8083,6.8083,6.8064,6.8083,6.8083,6.8039,6.7965,6.7865,6.7825,6.7759,6.7638,6.7516,6.7428,6.7346,6.7188,6.7139,6.7139,6.7077,6.6938,6.6854,6.6812,6.6791,6.6791,6.6791,6.6791,6.6791,6.6791,6.6791,6.6791,6.6791,6.6791,6.6791,6.6791,6.6791,6.6791,6.6791,6.6791,6.6791,6.6791,6.6791,6.6791,6.6791,6.6791,6.6791,6.6791,6.6791,6.6791,6.6791,6.6791,6.6791,6.6791,6.6791,6.6791,6.6791,6.6791,6.6791,6.6791,6.6791,6.6791,6.6791,6.6791,6.6791,6.6791,6.6791,6.6791,6.6791,6.6791,6.6791,6.6791,6.6791,6.6791,6.6791,6.6791,6.6791,6.6791,6.6791,6.6791,6.6791,6.6791,6.6791,6.6791,6.6854,6.6951,6.7201,6.7469,6.7638,6.7799,6.7965,6.8083,6.8083,6.8014,6.7842,6.7655,6.7394,6.6999,6.6447,6.6068,6.5704,6.5531,6.7919,6.7919,6.7779,6.7839,6.8019,6.7959,6.7905,6.7905,6.7885,6.7939,6.7939,6.7939,6.7939,6.7939,6.7885,6.7885,6.7865,6.7899,6.7919,6.7899,6.7845,6.7839,6.7759,6.7699,6.7638,6.753,6.7428,6.7325,6.7243,6.7139,6.7014,6.6938,6.6938,6.6917,6.6854,6.6791,6.6791,6.6791,6.6791,6.6791,6.6791,6.6791,6.6791,6.6791,6.6791,6.6791,6.6791,6.6791,6.6791,6.6791,6.6791,6.6791,6.6791,6.6791,6.6791,6.6791,6.6791,6.6791,6.6791,6.6791,6.6791,6.6791,6.6791,6.6791,6.6791,6.6791,6.6791,6.6791,6.6791,6.6791,6.6791,6.6791,6.6791,6.6791,6.6791,6.6791,6.6791,6.6791,6.6791,6.6791,6.6791,6.6791,6.6791,6.6791,6.6791,6.6791,6.6791,6.6791,6.6791,6.6791,6.6791,6.6791,6.6791,6.6791,6.6791,6.6791,6.6812,6.6854,6.6959,6.7222,6.7469,6.7678,6.7879,6.8004,6.8083,6.8083,6.8014,6.7945,6.798,6.8014,6.7532,6.7068,6.6911,6.6635,6.6359,6.7516,6.7496,6.7496,6.7618,6.7759,6.7597,6.7536,6.7577,6.7557,6.7557,6.7611,6.7557,6.7557,6.7591,6.7597,6.7618,6.7597,6.7577,6.7577,6.7597,6.7638,6.7571,6.753,6.7475,6.7435,6.7414,6.7304,6.718,6.716,6.6993,6.6833,6.6812,6.6833,6.6833,6.6791,6.6791,6.6791,6.6791,6.6791,6.6791,6.6791,6.6791,6.6791,6.6791,6.6791,6.6791,6.6791,6.6791,6.6791,6.6791,6.6791,6.6791,6.6791,6.6791,6.6791,6.6791,6.6791,6.6791,6.6791,6.6791,6.6791,6.6791,6.6791,6.6791,6.6791,6.6791,6.6791,6.6791,6.6791,6.6791,6.6791,6.6791,6.6791,6.6791,6.6791,6.6791,6.6791,6.6791,6.6791,6.6791,6.6791,6.6791,6.6791,6.6791,6.6791,6.6791,6.6791,6.6791,6.6791,6.6791,6.6791,6.6791,6.6791,6.6791,6.6791,6.6791,6.6812,6.6854,6.7022,6.7304,6.753,6.7719,6.7919,6.8044,6.8083,6.8083,6.8083,6.8083,6.8083,6.8083,6.8083,6.7773,6.7704,6.7532,6.7152,6.7496,6.751,6.7366,6.7346,6.7407,6.7455,6.7496,6.7496,6.7496,6.7496,6.7496,6.7496,6.7496,6.7496,6.7475,6.7455,6.7455,6.7496,6.7496,6.751,6.7455,6.7407,6.7346,6.7284,6.7188,6.7043,6.6938,6.6938,6.6917,6.6833,6.6812,6.6791,6.6791,6.6791,6.6791,6.6791,6.6791,6.6791,6.6791,6.6791,6.6791,6.6791,6.6791,6.6791,6.6791,6.6791,6.6791,6.6791,6.6791,6.6791,6.6791,6.6791,6.6791,6.6791,6.6791,6.6791,6.6791,6.6791,6.6791,6.6791,6.6791,6.6791,6.6791,6.6791,6.6791,6.6791,6.6791,6.6791,6.6791,6.6791,6.6791,6.6791,6.6791,6.6791,6.6791,6.6791,6.6791,6.6791,6.6791,6.6791,6.6791,6.6791,6.6791,6.6791,6.6791,6.6791,6.6791,6.6791,6.6791,6.6791,6.6791,6.6791,6.6791,6.6791,6.6791,6.6791,6.6791,6.6833,6.7063,6.7407,6.7632,6.7779,6.7939,6.8083,6.8083,6.8083,6.8083,6.8083,6.8083,6.8083,6.8083,6.8083,6.7945,6.7876,6.7807,6.725,6.7229,6.7118,6.7077,6.7077,6.7188,6.725,6.725,6.725,6.725,6.725,6.725,6.7263,6.725,6.725,6.725,6.725,6.725,6.725,6.725,6.725,6.7146,6.7063,6.7056,6.6959,6.6812,6.6791,6.6812,6.6812,6.6812,6.6791,6.6791,6.6791,6.6791,6.6791,6.6791,6.6791,6.6791,6.6791,6.6791,6.6791,6.6791,6.6791,6.6791,6.6791,6.6791,6.6791,6.6791,6.6791,6.6791,6.6791,6.6791,6.6791,6.6791,6.6791,6.6791,6.6791,6.6791,6.6791,6.6791,6.6791,6.6791,6.6791,6.6791,6.6791,6.6791,6.6791,6.6791,6.6791,6.6791,6.6791,6.6791,6.6859,6.6859,6.6927,6.6927,6.6927,6.6927,6.6859,6.6859,6.6791,6.6791,6.6791,6.6791,6.6791,6.6791,6.6791,6.6791,6.6791,6.6791,6.6791,6.6791,6.6791,6.6791,6.6791,6.6791,6.6791,6.6791,6.7105,6.7489,6.7618,6.7779,6.7925,6.8083,6.8083,6.8083,6.8083,6.8083,6.8083,6.8083,6.8083,6.8083,6.8083,6.8083,6.8083,6.6812,6.6791,6.6791,6.6812,6.6812,6.6854,6.6833,6.6833,6.6833,6.6833,6.6812,6.6854,6.6875,6.6833,6.6833,6.6854,6.6875,6.6875,6.6875,6.6854,6.6917,6.6854,6.6854,6.6833,6.6833,6.6812,6.6791,6.6791,6.6791,6.6791,6.6791,6.6791,6.6791,6.6791,6.6791,6.6791,6.6791,6.6791,6.6791,6.6791,6.6791,6.6791,6.6791,6.6791,6.6791,6.6791,6.6791,6.6791,6.6791,6.6791,6.6791,6.6791,6.6791,6.6791,6.6791,6.6791,6.6791,6.6791,6.6791,6.6791,6.6791,6.6791,6.6791,6.6791,6.6791,6.6791,6.6791,6.6791,6.6791,6.6791,6.6791,6.6893,6.6994,6.7028,6.7151,6.7129,6.7129,6.7096,6.6994,6.696,6.688,6.6825,6.6791,6.6791,6.6859,6.6791,6.6791,6.6791,6.6791,6.6791,6.6791,6.6791,6.6791,6.6791,6.6791,6.6791,6.6791,6.6791,6.7167,6.753,6.7638,6.7799,6.7965,6.8083,6.8083,6.8083,6.8083,6.8083,6.8083,6.8083,6.8083,6.8083,6.8083,6.8083,6.8083,6.6791,6.6791,6.6791,6.6791,6.6791,6.6791,6.6791,6.6791,6.6791,6.6791,6.6791,6.6791,6.6791,6.6791,6.6791,6.6791,6.6791,6.6791,6.6812,6.6791,6.6791,6.6791,6.6791,6.6791,6.6791,6.6791,6.6791,6.6791,6.6791,6.6791,6.6791,6.6791,6.6791,6.6791,6.6791,6.6791,6.6791,6.6791,6.6791,6.6791,6.6791,6.6791,6.6791,6.6791,6.6791,6.6791,6.6791,6.6791,6.6791,6.6791,6.6791,6.6791,6.6791,6.6791,6.6791,6.6791,6.6791,6.6791,6.6791,6.6825,6.6893,6.696,6.6927,6.6791,6.6791,6.6893,6.6927,6.6927,6.7096,6.7197,6.7332,6.74,6.7523,6.7658,6.7793,6.7996,6.7963,6.776,6.7692,6.7557,6.7421,6.7117,6.7062,6.6927,6.6994,6.6859,6.6791,6.6791,6.6791,6.6791,6.6791,6.6791,6.6791,6.6791,6.6791,6.6791,6.6791,6.6854,6.7208,6.7496,6.7597,6.7759,6.7984,6.8083,6.8083,6.8083,6.8083,6.8083,6.8083,6.8083,6.8083,6.8083,6.8083,6.8083,6.8083,6.6791,6.6791,6.6791,6.6791,6.6791,6.6791,6.6791,6.6791,6.6791,6.6791,6.6791,6.6791,6.6791,6.6791,6.6791,6.6791,6.6791,6.6791,6.6791,6.6791,6.6791,6.6791,6.6791,6.6791,6.6791,6.6791,6.6791,6.6791,6.6791,6.6791,6.6791,6.6791,6.6791,6.6791,6.6791,6.6791,6.6791,6.6791,6.6791,6.6791,6.6791,6.6791,6.6791,6.6791,6.6791,6.6791,6.6791,6.6791,6.6791,6.6791,6.6791,6.6791,6.6791,6.6791,6.6791,6.6791,6.6791,6.6994,6.7218,6.7286,6.7421,6.759,6.7658,6.776,6.7624,6.7624,6.7455,6.7387,6.7624,6.7806,6.7929,6.8064,6.8233,6.8368,6.8673,6.9011,6.8842,6.8605,6.847,6.8335,6.8064,6.7692,6.7489,6.732,6.7062,6.6893,6.6791,6.6791,6.6791,6.6791,6.6791,6.6791,6.6791,6.6791,6.6791,6.6791,6.6791,6.6896,6.7229,6.7455,6.7536,6.7759,6.8004,6.8083,6.8083,6.8083,6.8083,6.8083,6.8083,6.8083,6.8083,6.8083,6.8083,6.8083,6.8083,6.6791,6.6791,6.6791,6.6791,6.6791,6.6791,6.6791,6.6791,6.6791,6.6791,6.6791,6.6791,6.6791,6.6791,6.6791,6.6791,6.6791,6.6791,6.6791,6.6791,6.6791,6.6791,6.6791,6.6791,6.6791,6.6791,6.6791,6.6791,6.6791,6.6791,6.6791,6.6791,6.6791,6.6791,6.6791,6.6791,6.6791,6.6791,6.6791,6.6791,6.6791,6.6791,6.6791,6.6791,6.6791,6.6791,6.6791,6.6791,6.6791,6.6791,6.6791,6.6791,6.6791,6.696,6.696,6.7096,6.7231,6.759,6.7895,6.7996,6.8335,6.8673,6.9079,6.8808,6.8504,6.8267,6.8064,6.8064,6.8301,6.8436,6.8571,6.8876,6.9113,6.9282,6.9519,6.9789,6.9789,6.9451,6.9079,6.891,6.8639,6.8301,6.8166,6.803,6.7963,6.7387,6.7231,6.7265,6.7231,6.7231,6.6994,6.6994,6.6825,6.6825,6.6791,6.6791,6.6791,6.6959,6.7229,6.7414,6.7496,6.7779,6.8064,6.8083,6.8083,6.8083,6.8083,6.8083,6.8083,6.8083,6.8083,6.8083,6.8083,6.8083,6.8083,6.6791,6.6791,6.6791,6.6791,6.6791,6.6791,6.6791,6.6791,6.6791,6.6791,6.6791,6.6791,6.6791,6.6791,6.6791,6.6791,6.6791,6.6791,6.6791,6.6791,6.6791,6.6791,6.6791,6.6791,6.6791,6.6791,6.6791,6.6791,6.6791,6.6791,6.6791,6.6791,6.6791,6.6791,6.6791,6.6791,6.6791,6.6791,6.6791,6.6791,6.6791,6.6791,6.6791,6.6791,6.6791,6.6791,6.6791,6.6791,6.6791,6.6791,6.6791,6.6791,6.6791,6.7299,6.759,6.7726,6.8098,6.847,6.8707,6.8808,6.9011,6.9079,6.9214,6.9147,6.9011,6.8876,6.8842,6.891,6.9011,6.9147,6.9316,6.9688,6.9958,7.0161,7.0331,7.05,7.0647,7.0229,6.9722,6.9485,6.9248,6.9045,6.891,6.8774,6.8741,6.8673,6.8605,6.8605,6.847,6.8335,6.7658,6.7489,6.6927,6.6825,6.6825,6.6791,6.6791,6.6875,6.7139,6.7304,6.7455,6.7799,6.8083,6.8083,6.8083,6.8083,6.8083,6.8083,6.8083,6.8083,6.8083,6.8083,6.8083,6.8083,6.8083,6.6791,6.6791,6.6791,6.6791,6.6791,6.6791,6.6791,6.6791,6.6791,6.6791,6.6791,6.6791,6.6791,6.6791,6.6791,6.6791,6.6791,6.6791,6.6791,6.6791,6.6791,6.6791,6.6791,6.6791,6.6791,6.6791,6.6791,6.6791,6.6791,6.6791,6.6791,6.6791,6.6791,6.6791,6.6791,6.6791,6.6791,6.6791,6.6791,6.6791,6.6791,6.6791,6.6791,6.6791,6.6791,6.6791,6.6791,6.6791,6.6791,6.6791,6.6791,6.7117,6.7286,6.7658,6.8064,6.8402,6.8808,6.9248,6.9485,6.962,6.9722,6.9823,7.0026,7.0229,7.0263,7.0161,6.9857,6.9925,7.0195,7.0331,7.0342,7.0635,7.0703,7.0804,7.0872,7.0951,7.1019,7.0838,7.0567,7.0466,7.0263,7.006,6.9857,6.9553,6.9417,6.8944,6.9079,6.918,6.918,6.935,6.8673,6.8098,6.7692,6.7062,6.6825,6.6791,6.6791,6.693,6.7069,6.7325,6.7557,6.7845,6.8083,6.8083,6.8083,6.8083,6.8083,6.8083,6.8083,6.8083,6.8083,6.8083,6.8083,6.8083,6.8083,6.6791,6.6791,6.6791,6.6791,6.6791,6.6791,6.6791,6.6791,6.6791,6.6791,6.6791,6.6791,6.6791,6.6791,6.6791,6.6791,6.6791,6.6791,6.6791,6.6791,6.6791,6.6791,6.6791,6.6791,6.6791,6.6791,6.6791,6.6791,6.6791,6.6791,6.6791,6.6791,6.6791,6.6791,6.6791,6.6791,6.6791,6.6791,6.6791,6.6791,6.6791,6.6791,6.6791,6.6791,6.6791,6.6791,6.6791,6.6791,6.6791,6.6893,6.696,6.732,6.7827,6.8233,6.8741,6.9147,6.9553,6.9925,7.0195,7.0331,7.0669,7.1007,7.1222,7.1255,7.1222,7.1075,7.077,7.0804,7.1052,7.1154,7.1188,7.1188,7.1222,7.1244,7.1255,7.1289,7.1255,7.1255,7.1222,7.121,7.1041,7.0804,7.0635,7.0364,7.0026,6.9519,6.935,6.9383,6.9519,6.9789,6.9654,6.918,6.8774,6.8064,6.7366,6.7062,6.7163,6.707,6.7264,6.7448,6.7638,6.7839,6.7984,6.8083,6.8083,6.8083,6.8083,6.8083,6.8083,6.8083,6.8083,6.8083,6.8083,6.8083,6.8083,6.6791,6.6791,6.6791,6.6791,6.6791,6.6791,6.6791,6.6791,6.6791,6.6791,6.6791,6.6791,6.6791,6.6791,6.6791,6.6791,6.6791,6.6791,6.6791,6.6791,6.6791,6.6791,6.6791,6.6791,6.6791,6.6791,6.6791,6.6791,6.6791,6.6791,6.6791,6.6791,6.6791,6.6791,6.6791,6.6791,6.6791,6.6791,6.6791,6.6791,6.6791,6.6791,6.6791,6.6791,6.6791,6.6791,6.6791,6.6791,6.6791,6.696,6.7332,6.7671,6.8233,6.891,6.9553,6.9958,7.0331,7.0635,7.0872,7.0906,7.1188,7.1188,7.1289,7.1289,7.1255,7.1255,7.1075,7.1075,7.1255,7.1255,7.1255,7.1255,7.1255,7.1255,7.1289,7.1289,7.1289,7.1289,7.1255,7.1255,7.1188,7.112,7.1086,7.0939,7.0906,7.0545,7.0511,7.0545,7.0444,7.0511,7.0511,7.0161,6.9777,6.9383,6.8808,6.7929,6.776,6.7578,6.7392,6.7481,6.7578,6.7699,6.7859,6.7965,6.8064,6.8083,6.8083,6.8083,6.8083,6.8083,6.8083,6.8083,6.8083,6.8083,6.8083]}]]